GFSGL_con_mucape_000.txt.gz
CAPE
2836 3425 3246 2941 3050 3370 3304 3428 3017 2210 1396 947 789 263 277 232 175 235 186 9 22 4 3 97 264 431 149 84 80 60 85 84 71 7 16 31 57 111 106 155 132 86 54
3304 3540 2997 2913 2889 3140 3390 3058 2317 1729 973 1038 534 397 305 173 196 298 185 10 24 0 47 235 396 271 356 447 185 254 204 181 137 217 160 67 285 52 87 214 192 65 76
2767 2902 2891 2837 2930 3067 2819 1762 1671 863 649 360 432 663 738 695 276 358 399 294 113 64 187 312 363 375 370 265 256 142 149 142 173 130 139 115 77 51 171 401 366 342 90
2483 2869 3034 2839 2752 2734 2004 651 492 240 325 199 430 274 272 535 553 512 410 401 188 136 321 439 586 599 559 438 263 450 380 242 341 120 173 93 122 209 193 99 97 112 80
2670 2713 3018 3048 2663 1991 1267 772 332 152 438 48 33 1 13 629 317 735 355 259 290 394 499 642 769 865 409 345 226 402 331 225 162 127 150 99 78 103 267 134 115 176 328
2819 2892 3026 3421 2400 1477 1133 867 897 745 429 204 88 12 32 155 24 22 158 321 432 656 831 921 998 853 499 203 65 36 71 148 130 89 83 121 346 435 330 203 213 173 202
2893 3024 3223 3019 1968 1297 1216 1243 1147 791 539 440 197 146 62 329 66 39 73 242 412 797 1065 950 722 439 328 575 242 78 36 0 0 131 299 270 467 405 331 481 311 258 144
2980 2999 3004 2649 1727 1612 1240 1160 1089 1033 969 662 353 252 208 253 263 142 67 449 905 1094 824 526 548 401 403 624 504 271 220 221 286 217 188 127 155 113 50 35 51 54 84
2764 2824 2508 2075 1479 1216 1242 1165 1169 935 783 654 657 555 552 646 443 183 109 474 859 891 593 320 245 416 253 96 93 154 268 238 53 3 0 0 0 0 0 8 5 38 27
2728 2656 2085 1747 1680 1534 1427 1312 1146 1160 826 516 598 664 330 1108 288 103 39 435 745 518 420 222 134 99 80 41 30 132 153 149 93 2 16 13 0 8 1 20 13 33 44
2695 2494 1929 1905 2116 2034 1818 1347 1108 959 855 931 781 1051 796 369 732 149 23 549 224 217 349 845 330 63 33 12 0 14 47 0 0 0 0 0 0 9 25 42 21 4 1
2776 2134 2073 1880 1787 1831 1631 1180 948 1081 1069 887 1445 1245 1022 1077 373 407 64 34 47 427 985 405 110 69 3 0 0 0 0 0 0 2 1 0 1 5 5 1 0 0 0
2274 2245 1986 1810 1549 1528 1469 949 815 913 871 1157 1285 1039 848 1051 391 66 35 37 38 430 379 104 29 0 0 0 0 0 0 0 9 1 0 0 0 0 0 10 6 17 31
2174 2059 1673 1902 1623 1477 1289 1140 1346 1327 1077 1644 1347 1028 430 876 570 74 27 44 35 24 24 0 0 0 0 0 0 0 1 1 1 0 0 0 0 0 0 0 0 0 12
1987 1767 2172 1753 1296 1677 1298 1022 1289 579 400 602 474 253 660 1125 676 356 120 174 166 30 0 0 1 9 11 15 15 8 5 2 0 0 0 0 0 0 0 0 0 0 18
2143 1717 1481 1526 1682 1513 830 634 391 224 24 17 82 179 213 167 155 46 26 11 1 0 0 0 3 4 3 7 8 2 0 0 0 0 0 0 0 0 0 0 0 3 7
1699 1650 1455 990 1008 1027 975 582 198 13 20 0 31 46 30 32 27 35 31 6 0 0 0 0 0 0 0 0 0 0 0 0 0 0 0 0 0 0 0 0 0 0 6
1374 721 972 882 838 662 622 648 621 528 226 3 9 26 28 50 29 10 0 0 0 0 0 0 0 0 0 0 0 0 0 0 0 0 0 0 0 0 0 0 0 0 6
484 511 526 353 257 155 281 322 451 468 327 197 54 32 32 11 0 0 0 0 0 1 0 0 0 0 0 0 0 0 0 0 0 0 0 0 0 0 0 0 0 0 0
210 14 68 287 447 481 589 511 500 451 472 415 121 35 6 0 0 0 0 0 0 0 0 0 0 0 0 0 0 0 0 0 0 0 0 0 0 0 0 0 0 0 5
369 421 182 451 418 315 216 192 189 262 303 253 247 112 0 18 28 14 1 1 0 0 0 0 0 0 0 0 0 0 0 0 0 0 0 0 0 0 0 0 0 0 0
381 203 109 24 73 184 215 299 336 319 268 258 213 11 0 4 14 33 23 0 1 4 1 0 0 0 0 0 0 0 0 0 0 0 0 0 0 0 0 0 0 0 0
103 84 162 333 306 168 308 352 401 383 345 252 248 167 1 20 31 22 15 0 1 0 0 0 0 0 0 0 0 0 0 0 0 0 0 0 0 0 0 0 0 0 0
224 230 197 153 108 100 128 232 308 124 225 136 124 85 44 18 35 14 13 11 2 0 0 0 0 0 0 0 0 0 0 0 0 0 0 0 0 0 0 0 0 0 0
120 110 100 90 73 73 130 104 98 72 23 57 55 26 24 42 42 4 2 21 15 9 0 0 0 0 0 0 0 0 0 0 0 0 0 0 0 0 0 0 0 0 0
1 0 0 0 0 2 3 7 10 11 10 11 16 22 24 40 45 47 33 36 32 21 8 0 0 0 0 0 0 0 0 0 0 0 0 0 0 0 0 0 0 0 0

GFSGL_con_mucape_003.txt.gz
CAPE
4184 4125 4303 3928 4058 4307 4090 3913 3729 2947 2798 2110 2168 1628 974 740 395 475 363 153 730 774 602 285 544 966 103 30 46 56 42 44 21 48 20 133 781 713 453 351 138 422 84
3961 4437 4421 4420 4100 3974 4155 4101 3984 3537 2901 2194 1975 1412 665 606 624 678 274 108 234 103 134 710 514 307 1357 1546 205 1282 690 436 94 591 264 21 427 780 891 882 222 43 97
3433 3525 4142 3912 4201 4041 4123 4123 3926 3778 2884 1813 1647 1344 794 656 764 684 682 458 188 142 130 657 611 1191 1394 700 1152 545 316 660 380 117 81 113 127 179 232 694 895 361 139
2408 2764 3939 4234 4034 3825 4120 3908 3373 3141 2492 1550 1372 951 803 602 477 445 494 390 588 506 460 746 822 1035 1205 1211 1163 1454 1188 759 465 189 89 100 166 90 217 140 139 120 112
3204 3068 4028 4453 4081 3903 3977 3938 3153 2614 2010 1180 919 703 585 318 441 709 452 466 970 656 499 433 855 1071 677 640 1103 367 1135 677 385 310 225 169 204 146 184 234 189 173 80
3899 3782 4362 4646 4294 3901 3835 3346 2302 2179 1548 999 458 424 427 101 0 43 465 239 863 911 738 756 1150 854 366 286 306 168 69 167 427 252 141 206 428 444 417 492 339 67 21
4306 4408 4780 4821 4254 3346 3105 2694 2159 1819 1510 1108 515 522 337 487 33 34 107 256 487 830 1167 1019 1099 535 330 443 439 219 167 84 63 226 361 584 494 366 525 499 333 169 30
4529 4541 4758 4618 3683 2685 2346 2057 1955 2025 1846 1286 668 862 560 517 357 288 174 216 328 571 885 1000 1246 1130 964 480 633 526 496 796 579 211 286 519 418 157 65 38 75 60 71
4002 4551 4685 4048 3286 2498 1846 1785 2185 2130 2330 1209 811 775 757 673 464 177 178 434 612 999 1142 1050 1268 756 338 145 110 150 589 824 305 127 39 1 0 0 0 0 3 7 14
4035 4265 4573 3732 2984 2198 1835 1891 2193 2286 1915 960 904 893 769 1178 348 79 80 316 285 409 1733 1379 245 114 147 103 144 227 425 533 306 190 135 0 10 8 0 6 38 55 41
3221 3339 3536 2930 2608 1943 2056 2288 2019 1886 1455 857 718 1104 1509 1087 782 159 98 379 190 701 590 888 262 71 66 42 39 44 169 51 118 0 0 3 80 58 10 73 219 6 4
3752 3447 2907 2458 2165 2157 2361 1828 1552 1575 1410 1335 1627 1471 1322 1180 423 216 60 53 134 672 473 423 969 319 57 63 1 0 0 0 0 0 7 37 30 1 1 5 23 23 4
3919 3065 2549 2480 2395 2533 2292 2048 1733 1558 1211 1285 1354 1055 1029 1143 1714 363 283 362 51 72 487 105 109 93 36 0 0 0 0 0 0 21 24 5 0 0 12 11 29 28 12
2900 2466 2360 2322 2212 2173 2145 1437 1145 885 1051 1250 1250 1432 1341 1661 773 443 215 150 29 21 15 94 56 3 0 0 0 0 0 1 16 3 0 0 0 0 0 0 0 0 0
2429 2373 2740 2339 2127 2020 1391 1228 1622 1569 1407 1166 1133 1234 1311 650 834 508 115 188 260 136 113 129 19 35 25 46 34 36 33 25 9 1 0 0 0 0 0 0 0 0 0
2670 2560 2299 2029 2250 1595 931 957 936 587 561 440 238 192 286 135 182 355 188 115 54 38 16 20 20 25 31 30 58 52 26 1 0 0 0 0 0 0 0 0 0 0 0
2513 2362 2170 1797 1928 1711 1529 1360 741 412 233 1 0 45 60 70 82 105 95 26 1 0 0 0 12 17 21 14 6 4 0 0 0 0 0 0 0 0 0 0 0 0 0
2186 1483 1723 1799 1346 1332 1211 931 597 344 150 28 4 12 33 0 0 2 12 9 0 0 0 1 8 10 2 0 0 0 0 0 0 0 0 0 0 0 0 0 0 0 0
1592 1209 1291 1015 881 612 600 455 452 548 412 118 56 0 9 0 3 3 0 0 22 33 21 3 0 0 0 0 0 0 0 0 0 0 0 0 0 0 0 0 0 0 0
824 640 654 591 441 349 355 302 307 300 244 189 140 26 10 37 1 0 0 0 8 8 6 1 0 0 0 0 0 0 0 0 0 0 0 0 0 0 0 0 0 0 0
293 373 169 521 267 310 289 236 177 168 168 163 229 54 27 1 67 101 40 9 3 3 7 2 0 0 0 0 0 0 0 0 0 0 0 0 0 0 0 0 0 0 0
376 347 343 303 165 71 104 125 122 133 153 166 61 44 33 51 69 46 39 51 11 17 12 6 0 0 0 0 0 0 0 0 0 0 0 0 0 0 0 0 0 0 0
287 199 157 63 100 57 146 172 160 192 206 302 164 214 104 117 37 52 33 15 37 11 11 0 0 0 0 0 0 0 0 0 0 0 0 0 0 0 0 0 0 0 0
160 177 168 257 216 208 139 87 78 33 122 90 78 178 126 19 39 40 24 15 12 3 2 0 0 0 0 0 0 0 0 0 0 0 0 0 0 0 0 0 0 0 0
225 158 131 165 172 113 74 56 71 79 27 20 40 58 44 35 19 3 22 15 12 13 8 9 2 0 0 0 0 0 0 0 0 0 0 0 0 0 0 0 0 0 0
104 87 77 72 52 24 18 22 33 37 44 48 30 33 48 30 25 27 38 18 9 14 20 16 7 0 0 0 0 0 0 0 0 0 0 0 0 0 0 0 0 0 0

GFSGL_con_mucape_006.txt.gz
CAPE
4219 4151 4187 4142 4000 3651 4123 3839 2831 3090 2119 2152 1671 1845 1708 1300 1257 940 681 580 623 679 524 651 547 1003 606 410 658 314 152 199 240 118 87 116 132 160 125 154 237 149 124
3972 4103 4089 4113 4125 4006 3507 3875 3197 3542 2541 2003 2129 1907 1700 887 1112 800 509 159 734 684 842 890 675 468 1014 782 854 672 734 623 384 356 294 210 169 268 318 275 191 25 44
3793 3837 3778 3966 3989 3936 3804 3289 3560 3352 2835 2572 2076 1925 1306 768 933 670 573 569 700 523 530 712 720 824 1014 1003 740 810 553 419 266 149 128 239 84 33 48 81 45 293 349
3398 3514 3637 3616 3690 3627 3727 3624 3445 3387 2987 2920 2175 1906 1245 751 683 624 682 686 660 621 918 933 1039 809 925 1047 760 924 933 625 217 126 115 100 196 97 245 92 39 152 175
2980 3479 3617 3873 3699 3673 3651 3695 3545 3754 3581 3256 2284 1796 1178 617 560 698 656 665 784 868 672 999 965 1029 685 806 914 718 992 468 180 34 40 15 40 132 100 102 70 61 39
2497 2932 3372 3777 3991 3843 3676 3868 3780 3965 3474 3008 1934 1312 746 487 310 305 723 740 888 940 640 1000 1228 411 321 129 91 151 652 379 137 42 36 42 51 159 163 112 101 42 0
2718 2983 3205 3856 4180 3919 3848 3902 4051 3750 3062 2374 1590 849 456 575 188 104 380 564 561 871 675 1049 678 538 507 792 341 173 142 93 63 20 35 71 118 194 158 104 80 45 0
3885 3379 3603 4259 4287 4050 3961 3915 3938 3077 2569 2257 1767 1264 624 560 148 222 126 129 406 851 710 830 307 827 1099 1218 729 825 302 245 194 133 85 95 245 414 167 30 0 0 0
3544 4180 4254 4794 4511 4336 3990 3665 3252 2717 2977 2399 1889 1325 975 707 300 373 420 517 528 425 655 621 769 1314 1195 393 230 236 236 592 546 260 174 246 235 87 37 8 0 0 0
4110 4405 4825 4808 4412 3631 3225 2909 2739 2717 2333 2279 1480 1210 880 1226 825 699 503 300 321 556 741 905 444 523 783 223 143 385 656 617 629 480 120 61 68 61 6 11 5 8 19
4535 4557 4951 4665 3946 3168 2861 2482 2523 2392 2648 1868 1577 1291 1069 1011 835 553 546 368 488 528 444 713 874 516 150 33 49 72 76 55 34 50 33 0 0 59 71 125 90 57 0
4556 4704 4758 3863 3434 2953 2278 2302 2334 2083 1660 1909 1272 1029 1827 1570 797 738 521 196 446 553 584 753 343 257 186 154 33 32 6 0 0 0 0 0 28 21 11 0 0 0 0
4194 4476 3869 3394 2516 2251 2583 1902 1803 1970 1631 1433 1405 1843 1690 1467 866 633 503 207 83 98 455 354 217 45 51 101 87 1 0 0 0 0 0 25 1 0 0 0 7 3 2
4068 3337 2786 2562 2882 2908 2419 2123 1851 1792 1691 1435 2028 1699 1795 1535 1088 578 484 311 314 261 107 79 62 14 40 9 0 0 0 0 0 13 2 0 7 0 0 0 0 0 0
2942 2574 2253 2136 2235 2227 1838 1471 1323 959 876 1838 2014 1698 1447 1418 1208 898 669 466 227 40 52 64 74 25 25 6 12 23 12 25 45 47 13 1 0 0 0 0 0 0 0
2551 2344 2456 1990 2306 2123 1401 1038 1028 979 948 836 639 744 630 557 656 619 170 81 138 169 152 545 338 226 164 58 35 30 41 55 64 9 1 0 0 0 0 0 0 0 0
2652 2650 2061 2037 2322 1675 996 869 926 910 531 454 363 117 36 69 18 172 182 174 114 97 205 207 58 247 226 170 45 23 10 23 0 0 0 0 0 0 0 0 0 0 0
2702 2151 2267 1975 2197 2114 1970 1496 1015 541 412 178 0 0 0 0 7 13 60 46 7 0 0 4 80 147 89 15 1 0 0 0 0 0 0 0 0 0 0 0 0 0 0
2369 2170 1848 1968 2234 1713 1569 1187 1118 406 367 59 9 1 0 0 0 0 0 0 24 19 6 17 42 13 17 9 3 1 0 0 0 0 0 0 0 0 0 0 0 0 0
2111 1409 1550 894 836 1089 919 755 610 446 133 108 57 0 0 0 0 0 0 0 0 15 132 57 51 35 11 1 0 0 0 0 0 0 0 0 0 0 0 0 0 0 0
1057 1076 757 613 740 612 490 327 343 307 359 262 80 28 5 0 0 0 2 2 46 30 181 64 67 60 20 5 2 0 0 0 0 0 0 0 0 0 0 0 0 0 0
544 652 777 490 248 507 455 297 157 81 103 160 114 30 20 27 68 187 87 18 29 30 16 46 23 24 13 6 0 0 0 0 0 0 0 0 0 0 0 0 0 0 0
139 214 430 91 82 67 92 165 164 149 154 125 9 14 7 33 188 10 42 33 14 14 10 2 10 2 0 0 0 0 0 0 0 0 0 0 0 0 0 0 0 0 0
248 91 79 156 62 145 105 204 204 37 105 90 133 158 59 25 11 7 18 27 12 19 9 2 4 1 0 0 0 0 0 0 0 0 0 0 0 0 0 0 0 0 0
91 172 102 95 155 64 54 53 93 87 41 86 78 99 104 35 21 6 9 12 14 7 2 4 5 3 1 0 0 0 0 0 0 0 0 0 0 0 0 0 0 0 0
161 102 44 55 67 59 60 55 56 40 33 90 60 49 131 58 43 26 27 27 27 22 19 15 14 15 0 0 0 0 0 0 0 0 0 0 0 0 0 0 0 0 0

GFSGL_con_mucape_009.txt.gz
CAPE
3073 2949 2832 2704 2297 1945 2330 1980 1980 1595 1411 1146 1050 1717 1291 827 349 374 104 37 180 5 1 0 54 62 34 21 90 59 28 41 15 22 8 21 20 11 0 0 7 28 35
3196 3122 3055 3011 2816 2433 2034 2308 2154 1691 1570 1362 1331 1043 1453 1037 604 436 213 124 39 116 20 16 7 0 102 87 169 154 175 187 120 53 74 80 49 54 9 9 32 63 24
3359 3255 3236 3010 3122 2989 2412 2729 2799 1867 1780 1328 1357 1270 1106 1003 758 490 334 148 179 105 130 92 60 59 92 205 174 231 209 151 122 76 54 49 33 23 36 10 2 25 23
3499 3376 3161 3091 3086 3170 3022 2379 2980 2851 2264 1721 1373 1382 1249 1044 841 570 497 296 143 231 160 265 243 70 109 345 227 153 176 176 160 97 71 41 31 34 22 60 4 0 0
3228 3330 3128 3097 3103 3168 3129 3134 2454 2867 2707 2476 2144 1789 1475 1237 984 601 458 336 239 312 202 327 266 345 342 286 217 257 210 171 151 129 81 16 3 2 13 10 0 0 0
2962 3132 3003 3029 3072 3182 3248 3221 3255 2657 2817 2619 2315 2019 1774 1530 1237 716 472 397 430 440 354 455 218 519 494 411 386 301 284 303 201 82 50 36 7 4 16 29 13 0 0
2571 2952 2977 2845 3077 3052 3193 3121 3201 3235 3065 2971 2762 2432 2188 2036 1671 1148 416 415 394 362 384 465 393 388 326 344 303 146 131 226 181 108 33 3 0 2 43 35 7 15 0
2109 2709 2839 2991 2889 3184 3157 3172 3257 3273 3288 3217 3116 2750 2521 2210 1746 1091 572 357 507 466 496 537 504 265 208 259 289 298 296 295 185 118 89 85 77 78 112 106 39 8 0
1809 2075 2624 2769 3143 3305 3329 3291 3339 3331 3303 3369 2876 2770 2670 2362 1759 915 561 354 335 421 303 307 271 97 174 358 293 271 119 100 100 370 496 407 203 179 237 131 28 2 0
1500 1895 2407 2598 3052 3551 3455 3431 3375 3245 2592 2402 2883 2734 2212 1583 1195 513 510 397 403 295 79 122 125 195 464 376 229 171 76 117 128 125 136 77 75 3 26 35 25 19 19
1402 2782 3153 3625 3789 3677 3524 3440 3012 2753 2597 2464 2576 1741 1481 1359 862 589 449 302 408 201 133 82 111 224 211 218 174 59 57 52 8 0 0 0 0 0 0 9 37 24 7
3429 4164 4248 4276 4036 3763 3480 2977 2898 2609 2430 1990 1873 1634 1422 922 945 435 459 461 576 473 216 287 206 365 367 128 74 31 24 31 0 0 0 0 0 0 0 5 2 2 2
4293 4288 4208 4146 4227 4085 2857 2419 2379 1668 1640 1524 1462 1604 833 849 698 670 643 692 621 346 251 175 151 124 61 19 25 52 3 0 0 0 0 0 1 2 1 0 0 0 0
4008 4125 4076 3977 3611 3130 2520 1632 1527 1337 1192 1097 1029 771 873 804 733 719 646 645 338 217 136 158 125 90 11 0 0 0 0 0 0 0 0 0 0 0 0 0 0 0 0
3798 3485 3365 3276 3156 2630 1462 1392 1296 1226 1269 1127 1262 1012 620 782 812 674 560 506 343 258 235 121 23 0 0 0 0 0 3 7 2 1 2 0 0 0 0 0 0 0 0
2678 2807 2841 2721 1876 1726 1483 1365 1177 1009 939 976 892 680 594 754 812 642 413 262 114 31 60 50 64 29 9 38 81 59 17 15 18 6 0 0 0 0 0 0 0 0 0
2685 2400 1875 1863 1898 1726 1503 1256 919 885 784 849 707 575 439 420 711 569 387 26 77 136 85 144 124 13 0 0 4 12 0 0 0 0 0 0 0 0 0 0 0 0 0
2238 1894 1816 1738 1791 1751 1507 1154 948 780 800 706 369 266 117 1 350 376 150 71 76 42 1 15 0 0 0 0 0 0 0 0 0 0 0 0 0 0 0 0 0 0 0
2237 1980 1837 1710 1511 1451 1283 901 772 718 620 231 8 0 0 0 2 3 8 23 8 0 0 0 1 3 3 0 0 0 0 0 0 0 0 0 0 0 0 0 0 0 0
2122 1934 1861 1841 1556 1403 1148 1059 812 599 316 127 44 2 0 0 0 0 0 0 0 0 0 0 2 7 1 0 0 0 0 0 0 0 0 0 0 0 0 0 0 0 0
1149 1116 894 1281 1156 1109 987 889 728 587 180 89 40 0 0 0 0 0 0 0 0 0 0 0 2 5 0 0 0 0 0 0 0 0 0 0 0 0 0 0 0 0 0
793 640 418 472 580 449 368 213 62 116 128 102 33 22 11 0 0 0 0 0 0 0 6 5 2 6 0 0 0 0 0 0 0 0 0 0 0 0 0 0 0 0 0
405 311 205 142 88 77 61 79 51 87 80 70 43 67 36 0 0 0 0 1 5 10 9 5 6 8 3 2 0 0 0 0 0 0 0 0 0 0 0 0 0 0 0
86 61 77 89 62 65 50 52 63 25 25 13 16 24 34 25 20 7 15 6 9 16 11 6 6 4 2 2 0 0 0 0 0 0 0 0 0 0 0 0 0 0 0
67 43 43 70 66 67 41 42 44 27 14 48 51 45 22 10 10 0 0 0 0 0 4 0 3 8 7 1 0 0 0 0 0 0 0 0 0 0 0 0 0 0 0
55 57 44 37 57 30 17 27 10 4 1 21 69 50 45 40 13 9 2 0 0 0 0 0 0 2 0 0 0 0 0 0 0 0 0 0 0 0 0 0 0 0 0

GFSGL_con_mucape_012.txt.gz
CAPE
1976 1894 1880 1672 1448 1802 1760 1538 1570 1497 1288 1285 1302 1198 831 643 628 480 127 58 4 62 61 11 1 0 3 2 3 13 33 17 9 18 20 0 9 3 3 0 0 0 3
2108 2111 2034 2070 1873 1607 1564 1575 1661 1665 1639 1385 1423 1180 881 783 815 601 236 54 32 3 20 48 13 3 39 47 25 72 87 71 17 25 52 47 37 45 36 27 31 12 4
2182 2228 2415 2285 2214 1986 1735 1639 1645 1572 1495 1555 1487 1340 1282 968 953 733 398 81 62 23 63 11 0 6 10 9 32 43 99 134 108 90 91 75 51 41 14 16 8 6 2
2454 2428 2465 2512 2382 2318 1988 1763 1670 1771 1558 1650 1616 1540 1364 1307 1283 1151 1021 684 254 119 0 47 2 4 17 14 81 132 154 153 139 130 105 81 59 25 16 0 0 0 0
2497 2677 2626 2629 2605 2586 2386 2111 1860 2093 1832 1874 1700 1510 1496 1441 1370 1264 1200 949 712 204 107 134 147 85 205 156 73 173 136 129 137 133 81 57 26 0 11 0 0 0 0
2620 2705 2735 2806 2764 2751 2778 2630 2265 2188 2489 2408 2188 1752 1542 1554 1511 1505 1391 1123 823 482 181 95 210 207 216 183 156 203 125 170 118 62 50 25 7 0 0 0 0 0 0
2713 2881 2915 2819 2823 2799 2833 2878 2822 2571 2370 2618 2792 2773 2563 2168 2094 1783 1427 1328 1345 657 211 96 145 200 237 206 209 173 238 166 222 139 74 39 8 9 16 0 13 13 4
2635 2864 3061 2979 2837 2797 2842 2895 2898 2958 2880 2750 2526 2683 2746 1984 1702 1733 1948 1732 1762 435 288 183 339 343 338 124 81 85 124 87 84 99 90 80 75 114 146 108 73 77 62
2383 2629 2854 2918 2756 2820 2818 2929 2931 2968 3029 3106 3052 2797 2284 828 1954 2535 1997 1355 882 318 199 287 344 395 315 192 116 89 95 135 116 96 118 151 176 207 121 78 142 56 2
1990 2324 2692 2782 2703 2696 2843 2860 2951 2995 3049 3126 3160 2668 726 757 2411 2139 1028 482 306 272 318 430 543 386 243 110 63 45 32 82 111 49 82 65 33 0 0 0 0 0 1
1864 2063 2284 2690 2729 2715 2873 2948 3003 3064 3151 3170 3027 2690 1358 2488 2249 1210 472 203 74 62 186 263 101 85 87 78 161 151 136 94 83 35 24 8 0 0 0 0 0 0 0
1595 1817 1895 2441 2655 2836 2996 3045 3076 3052 3097 2856 2607 2320 2556 1742 1267 576 371 215 206 146 533 216 42 77 94 129 79 47 12 3 4 0 0 0 0 0 0 0 0 0 0
1345 1576 1996 2468 2753 2926 2994 3155 3077 3039 2671 2593 2542 2403 1608 1285 679 614 354 286 253 459 338 68 115 144 62 53 33 31 9 0 0 0 0 0 0 0 0 0 0 0 0
2567 3021 2799 2611 2648 3025 3128 3029 2638 2681 2442 2154 1992 1487 1078 845 583 414 361 349 504 535 341 187 118 42 14 0 0 0 0 0 0 0 0 0 0 0 0 0 0 0 0
2730 2566 2566 2463 2859 3216 3222 2502 2192 1825 1723 1549 1140 950 849 649 577 543 526 548 623 454 267 148 64 40 0 0 0 0 0 0 0 0 0 0 0 0 0 0 0 0 0
2440 2607 3093 3391 3357 2890 2207 1172 814 987 902 922 876 703 585 591 630 601 528 356 317 177 98 88 23 0 0 0 0 0 4 11 0 0 0 0 0 0 0 0 0 0 0
3010 3255 2816 2183 1610 872 734 618 1072 1076 910 898 947 574 450 432 566 549 379 100 2 0 0 0 0 0 0 0 0 0 0 0 0 0 0 0 0 0 0 0 0 0 0
2408 1894 1780 1828 1474 825 884 763 790 673 697 730 561 410 414 569 597 421 100 0 0 0 0 0 3 0 0 0 0 0 0 0 0 0 0 0 0 0 0 0 0 0 0
2069 1933 1684 1365 1295 1183 1045 816 599 477 488 483 305 168 38 15 322 251 83 0 0 0 0 0 0 0 0 0 0 0 0 0 0 0 0 0 0 0 0 0 0 0 0
1624 1427 1562 1622 1612 1482 1187 851 581 483 368 360 209 84 1 0 46 123 34 15 0 0 0 0 0 0 0 0 0 0 0 0 0 0 0 0 0 0 0 0 0 0 0
1573 1655 1562 1499 1588 1279 1012 635 305 270 241 82 142 56 0 0 0 0 0 0 0 0 0 0 0 0 0 2 3 1 0 0 0 0 0 0 0 0 0 0 0 0 0
449 404 207 661 771 834 663 476 445 394 162 57 132 78 0 0 0 0 0 0 0 0 0 0 0 2 1 1 2 1 0 0 0 0 0 0 0 0 0 0 0 0 0
47 84 124 53 120 395 401 312 358 413 209 94 75 62 7 1 0 0 0 0 0 0 0 1 12 4 9 3 3 1 0 0 0 0 0 0 0 0 0 0 0 0 0
142 144 220 164 145 106 40 22 34 177 201 142 114 41 30 36 3 1 0 0 0 0 15 18 6 1 7 9 3 0 0 0 0 0 0 0 0 0 0 0 0 0 0
48 34 59 58 38 11 20 30 38 108 132 139 111 55 45 33 12 12 0 0 0 5 7 4 0 0 0 6 2 1 0 0 0 0 0 0 0 0 0 0 0 0 0
95 104 92 42 26 17 28 25 22 8 39 43 57 62 58 48 21 19 10 0 0 0 0 0 0 0 0 1 0 0 0 0 0 0 0 0 0 0 0 0 0 0 0

GFSGL_con_mucape_015.txt.gz
CAPE
732 944 1029 1162 1140 1119 1131 1067 1026 1076 1148 1105 1269 1527 1141 1157 1101 822 294 136 0 0 6 0 0 0 0 0 1 0 0 0 0 20 22 6 0 0 0 0 0 0 0
861 1026 995 994 1149 1259 1165 1174 1098 1239 1373 1451 1376 1274 1123 1140 1330 922 518 486 133 0 3 18 1 0 0 0 0 0 0 0 6 13 19 33 35 42 6 0 0 0 0
1053 1180 1230 1217 1150 1279 1353 1261 1208 1320 1420 1310 1320 1237 1158 1285 1304 1008 750 687 565 153 11 0 21 26 8 0 25 20 0 14 33 24 15 27 56 47 38 7 0 0 0
1220 1391 1448 1462 1506 1295 1308 1370 1380 1452 1554 1527 1327 1357 1443 1389 1240 1059 986 908 921 703 339 139 0 2 3 0 4 0 0 8 46 74 70 71 48 51 39 3 0 0 0
1294 1552 1617 1620 1694 1680 1554 1425 1354 1392 1437 1448 1502 1459 1607 1636 1430 1325 1247 1221 1037 932 779 446 96 22 35 8 11 53 16 57 99 89 106 86 32 21 14 1 0 0 0
1521 1640 1753 1868 1947 1951 1907 1765 1636 1525 1567 1565 1488 1385 1351 1430 1628 1655 1530 1365 1031 943 800 559 252 66 72 111 63 192 37 41 83 79 73 48 42 24 5 0 0 0 0
1768 1866 1948 1946 2133 2178 2119 2047 1929 1804 1695 1646 1602 1472 1443 1562 1680 1564 1539 1353 930 1005 915 1016 688 105 55 161 181 198 95 75 67 56 39 35 14 15 3 4 10 30 16
1976 2005 2168 2230 2194 2297 2358 2298 2174 2042 1960 1865 1792 1681 1584 1655 1754 1729 1922 395 271 742 1095 1155 361 217 15 163 232 154 64 47 49 12 16 33 54 25 40 55 36 11 23
2039 2173 2302 2442 2403 2468 2483 2527 2454 2302 2207 2161 1990 2032 2170 2231 2390 2566 2390 288 1257 1528 1097 755 469 255 47 258 149 21 32 60 35 34 23 38 42 26 19 16 24 1 0
2240 2306 2464 2607 2551 2534 2577 2522 2567 2574 2371 2309 2431 2385 2433 2473 2510 2625 967 959 2094 1527 824 418 355 146 248 395 193 37 29 24 15 38 57 20 8 0 0 0 0 0 0
2095 2401 2453 2645 2734 2635 2555 2542 2642 2673 2641 2479 2605 2708 2837 2874 2855 2386 836 2063 1605 868 358 261 201 282 405 184 90 119 39 6 33 29 6 0 0 0 0 0 0 0 0
1691 1902 2326 2480 2760 2705 2604 2582 2661 2680 2888 2765 2782 2845 2972 3148 2835 1449 2203 1611 812 340 115 83 129 152 8 1 0 0 52 9 3 0 0 0 0 0 0 0 0 0 0
1530 1645 1820 2217 2547 2626 2593 2614 2687 2792 3026 3561 2850 2895 2703 2658 2207 1746 1072 662 326 153 3 7 200 24 0 0 0 0 0 0 0 0 0 0 0 0 0 0 0 0 0
1300 1530 1624 1891 2370 2524 2618 2705 2690 2877 2855 2756 2479 2175 2257 1854 1476 1041 645 401 156 4 85 202 41 0 0 0 0 0 0 0 0 0 0 0 0 0 0 0 0 0 0
1222 1259 1460 1802 2406 2600 2609 2693 2619 2591 2308 2208 1876 1447 1464 1177 1015 662 578 389 288 174 282 326 104 39 0 0 0 0 0 0 0 0 0 0 0 0 0 0 0 0 0
1782 2123 2137 2118 2259 2389 2609 2603 2650 2268 1535 912 792 351 728 594 742 488 365 360 357 440 513 431 101 19 0 0 0 0 0 0 0 0 0 0 0 0 0 0 0 0 0
2482 2177 1933 1864 2056 2225 2531 2341 2529 1349 979 495 532 616 634 541 364 443 414 455 469 471 281 103 15 0 0 0 0 0 0 0 0 0 0 0 0 0 0 0 0 0 0
1400 1962 1865 1768 1777 1906 2034 1590 867 472 100 104 544 404 450 376 445 515 406 192 145 81 8 0 0 0 0 0 0 0 0 0 0 0 0 0 0 0 0 0 0 0 0
94 282 815 236 546 761 401 2 3 22 144 396 384 317 342 274 383 377 156 33 0 0 0 0 0 0 0 0 0 0 0 0 0 0 0 0 0 0 0 0 0 0 0
82 121 133 263 307 57 26 66 247 425 529 566 420 323 306 342 346 156 31 0 0 0 0 0 0 0 0 0 0 0 0 0 0 0 0 0 0 0 0 0 0 0 0
459 534 563 468 393 351 404 438 462 469 462 353 338 180 68 118 174 116 78 24 17 0 0 0 0 0 0 0 0 0 0 2 0 0 0 0 0 0 0 0 0 0 0
672 761 729 671 602 515 489 409 396 316 257 162 121 80 7 9 50 100 44 29 9 1 0 0 0 0 0 0 2 2 4 3 0 0 0 0 0 0 0 0 0 0 0
2 8 156 513 524 346 236 133 50 31 21 17 37 42 15 3 0 13 4 0 0 0 0 0 0 0 3 4 14 1 2 1 0 0 0 0 0 0 0 0 0 0 0
102 76 25 2 1 44 103 62 178 212 152 96 86 93 80 22 0 0 0 1 0 0 0 0 0 1 5 4 5 4 3 1 0 0 0 0 0 0 0 0 0 0 0
13 27 18 8 12 43 38 38 57 24 45 73 92 76 60 5 15 7 0 0 0 0 0 0 0 0 0 0 0 2 3 2 0 0 0 0 0 0 0 0 0 0 0
26 25 14 47 55 11 6 18 6 2 29 32 56 59 45 27 29 10 0 0 0 0 0 0 0 0 0 0 0 0 1 0 0 0 0 0 0 0 0 0 0 0 0

GFSGL_con_mucape_018.txt.gz
CAPE
794 889 892 862 829 776 762 837 857 936 925 882 953 1171 1231 1239 1352 1259 1026 625 314 0 0 0 0 0 0 0 0 0 0 0 0 0 0 0 10 25 14 8 0 0 0
543 983 1007 988 962 904 859 842 873 975 978 963 873 1071 1133 1176 1389 1271 1078 807 495 162 0 0 0 0 0 0 0 0 0 0 0 5 0 11 19 20 31 43 3 0 0
495 696 979 1043 1017 972 901 879 921 954 967 966 886 982 1091 1086 1422 1279 1122 1088 807 495 418 121 5 0 0 0 0 0 0 0 0 0 5 2 7 16 10 0 0 2 0
610 610 809 945 1021 1099 1056 968 929 948 1004 1021 1058 1209 1250 1426 1353 1345 1115 1310 1116 737 685 549 276 53 4 4 0 0 1 1 0 2 6 51 56 54 19 0 0 0 0
735 771 892 992 962 1023 1222 1172 1048 1015 1039 1122 1080 1276 1381 1370 1370 1288 1283 1346 1295 974 924 835 606 341 128 81 2 0 0 12 5 8 24 59 56 33 14 18 0 0 0
910 956 1066 1193 1245 1205 1144 1244 1255 1189 1196 1186 1105 1168 1424 1353 1322 1453 1537 1519 1258 1295 1331 1142 871 550 395 145 15 0 19 38 30 27 23 34 61 15 12 10 19 21 53
1004 1138 1304 1386 1454 1525 1426 1297 1253 1243 1268 1320 1291 1215 1311 1469 1425 1494 1693 1759 1527 1601 1612 1488 1176 940 707 134 32 22 43 93 45 52 48 28 21 15 7 9 4 0 22
1142 1210 1448 1620 1647 1658 1709 1599 1488 1360 1304 1363 1424 1367 1320 1379 1439 1505 1519 1593 1571 1704 1700 1535 1064 1069 936 229 89 45 90 85 69 38 40 71 19 11 9 0 0 5 9
1422 1448 1593 1755 1825 1848 1915 1898 1802 1647 1475 1483 1512 1587 1516 1486 1587 1513 1441 1509 1784 1816 1775 743 1140 1089 948 671 199 57 56 62 38 30 18 9 7 1 0 0 0 0 0
1665 1727 1812 1906 1902 1926 2117 2107 2035 1926 1751 1737 1562 1722 1759 1727 1589 1606 1515 1710 1827 2007 2377 1436 1320 1108 859 392 117 88 124 85 44 1 9 6 8 0 0 0 0 0 0
1580 1835 1946 2083 2175 2097 2237 2337 2358 2295 2115 1926 1757 1786 1920 1970 1837 1721 1760 1839 2148 2445 929 1682 1270 651 417 167 128 292 146 111 45 74 0 0 0 0 0 0 0 0 0
1530 1861 2013 2228 2324 2293 2450 2480 2548 2568 2569 2185 1939 2179 1967 2124 2183 2002 2205 2489 2657 1623 1346 1331 637 254 150 180 132 26 22 23 1 0 0 0 0 0 0 0 0 0 0
1192 1584 2134 2272 2513 2598 2611 2620 2637 2642 2592 2414 2357 2958 2861 2334 2360 2487 2537 2287 1318 1390 1326 460 137 93 108 51 4 0 0 0 0 0 0 0 0 0 0 0 0 0 0
1036 1075 1558 2202 2449 2725 2681 2615 2713 2740 2717 2334 2380 2725 2886 2364 2207 2199 1811 937 845 687 58 4 0 8 16 11 0 0 0 0 0 0 0 0 0 0 0 0 0 0 0
1867 1826 1344 1601 2118 2560 2617 2667 2678 2796 2670 2549 2768 2393 2416 2137 1441 1195 771 484 357 82 14 4 17 43 21 0 0 0 0 0 0 0 0 0 0 0 0 0 0 0 0
580 1603 1561 1420 1736 2359 2352 2445 2703 2773 2660 2606 2743 2282 1679 910 477 321 237 281 166 130 42 25 99 41 0 0 0 0 0 0 0 0 0 0 0 0 0 0 0 0 0
23 1184 1550 1465 1593 1847 2190 2263 2338 2547 2542 2552 2300 1787 861 574 142 63 295 196 102 159 33 114 176 57 0 0 0 0 0 0 0 0 0 0 0 0 0 0 0 0 0
93 146 1719 1557 1394 1201 1433 1667 1783 2078 2373 2476 1767 873 358 227 79 104 134 152 212 113 209 243 219 68 0 0 0 0 0 0 0 0 0 0 0 0 0 0 0 0 0
37 53 257 639 984 999 1166 1270 1704 1717 1859 1491 840 143 152 60 320 166 89 101 185 256 364 262 42 1 0 0 0 0 0 0 0 0 0 0 0 0 0 0 0 0 0
107 0 18 65 0 0 21 658 1100 1020 473 242 39 179 281 316 178 164 168 230 267 295 148 2 0 0 0 0 0 0 0 0 0 0 0 0 0 0 0 0 0 0 0
90 101 0 1 47 4 9 3 97 146 53 0 0 318 360 372 355 306 268 223 90 21 0 0 0 0 0 0 0 0 0 0 0 0 0 0 0 0 0 0 0 0 0
146 57 7 6 0 0 46 88 54 51 76 100 293 317 338 357 375 366 202 52 22 0 0 0 0 0 0 0 0 0 0 0 0 0 0 0 0 0 0 0 0 0 0
225 99 63 56 82 98 128 137 92 156 263 252 206 208 251 295 281 158 112 91 36 9 0 0 0 0 0 0 0 0 0 4 2 0 0 0 0 0 0 0 0 0 0
26 3 133 168 124 74 105 148 168 201 211 140 172 120 96 71 123 111 117 103 84 4 0 0 0 0 0 0 0 0 0 0 0 0 0 0 0 0 0 0 0 0 0
28 38 63 18 7 33 74 90 43 5 13 0 5 22 80 101 67 111 136 83 39 1 0 0 0 0 0 0 0 0 0 0 0 0 0 0 0 0 0 0 0 0 0
68 57 63 50 3 1 39 21 50 34 27 33 45 56 42 29 11 50 34 22 2 0 0 0 0 0 11 0 0 0 0 0 0 0 0 0 0 0 0 0 0 0 0

GFSGL_con_mucape_021.txt.gz
CAPE
1995 2027 1971 1934 1945 2030 2096 2240 2287 2214 2196 2149 2158 2137 2208 2216 2027 1825 1683 1244 758 588 279 303 323 302 95 59 54 52 50 2 4 12 7 79 202 241 63 146 65 175 91
1929 2093 2076 2119 2103 2089 2135 2211 2342 2374 2153 2644 2559 2228 2236 2277 2083 1837 1756 1347 988 790 642 342 235 124 231 159 50 155 58 78 35 253 118 144 306 313 387 532 247 9 84
1794 1945 2113 2201 2245 2209 2209 2286 2374 2404 2412 1954 2515 2629 2220 2170 2109 1874 1921 1732 1259 1087 832 528 409 276 139 35 51 38 27 123 118 80 88 115 115 139 271 415 464 188 39
1513 1818 2091 2253 2276 2294 2330 2401 2406 2454 2436 2491 2566 2582 2400 2097 2064 1911 1845 1897 1578 1250 1073 643 406 261 242 197 217 205 152 139 183 175 81 96 189 271 224 194 148 132 44
1774 1741 2058 2327 2394 2447 2453 2452 2448 2486 2382 2461 2607 2616 2444 2172 1909 2137 1868 1866 1826 1430 1156 882 717 657 521 275 221 300 290 234 147 118 88 67 68 228 296 139 147 132 103
1878 1873 1954 2312 2512 2518 2554 2567 2541 2497 2482 2514 2507 2586 2571 2050 1468 1213 1688 2102 1919 1765 1593 1077 1009 947 900 674 394 169 269 308 334 225 220 203 651 573 223 158 150 176 168
1570 2019 2198 2280 2447 2512 2537 2602 2553 2534 2494 2547 2510 2576 2624 2621 1370 1207 1341 2033 1903 1978 1802 1461 1146 1266 1321 1164 794 340 133 0 63 718 641 495 349 489 295 202 204 211 234
1956 2189 2325 2387 2423 2497 2462 2555 2678 2644 2576 2655 2554 2582 2679 2599 1517 1233 1240 1590 2117 2149 1820 1712 1662 1490 1631 1378 1045 528 188 211 57 62 537 771 449 389 318 225 374 343 231
1983 2202 2366 2442 2456 2578 2615 2592 2623 2708 2768 2692 2698 2684 2627 2707 1531 1317 1280 1438 2167 2126 1822 1670 1748 1667 1789 1126 1128 771 748 756 156 15 20 7 1 0 42 113 66 50 108
2170 2248 2364 2652 2708 2754 2807 2891 2820 2738 2723 2593 2771 2774 2233 2710 1738 1326 1269 1665 2089 1871 1711 1488 1507 1712 1280 933 1057 965 853 703 305 0 0 0 9 0 0 38 0 0 0
2024 2314 2825 2867 2910 2984 3082 3100 3120 3081 2828 2875 2856 2813 2817 2341 2753 1577 1472 2003 2033 1352 1381 1364 1649 1712 1446 1276 990 1078 631 645 39 17 0 4 9 0 0 0 0 0 0
2345 2680 3179 3198 2880 2904 3362 3412 3380 3176 3034 3002 2909 2771 2548 2737 1711 1925 1680 1625 1473 1617 1367 1319 1753 1275 1259 1047 694 422 280 138 43 3 0 2 0 0 0 0 0 0 0
2500 3096 3273 3306 3489 3488 3539 3519 3481 3333 2906 2803 2507 2337 2120 2068 2149 1759 1795 1834 1732 1541 1555 1592 1486 956 1074 655 187 197 169 63 5 0 0 0 0 0 0 0 0 0 0
2467 2908 3196 3294 3646 3767 3352 3420 3449 3247 2871 2981 2703 2523 2220 2016 1930 1808 1809 2024 1879 1741 1808 927 696 707 440 68 172 66 6 18 0 0 0 0 0 0 0 0 0 0 0
1564 2353 2344 2698 3067 3581 3806 3718 3601 3603 3224 3115 3131 2783 2390 1693 1501 2003 1839 2048 1942 1444 813 408 152 72 69 114 27 18 6 0 0 0 0 0 0 0 0 0 0 0 0
344 426 803 1440 2041 2576 3253 3524 2917 2967 2882 2692 2663 2445 2153 1697 2259 2033 1985 1667 1113 543 41 15 55 19 19 8 20 27 0 0 0 0 0 0 0 0 0 0 0 0 0
448 334 552 1378 1484 1393 2650 2948 2356 2316 2716 2666 2544 2383 2381 2317 2164 2008 1511 626 217 136 4 3 1 0 2 50 58 0 0 0 0 0 0 0 0 0 0 0 0 0 0
206 122 586 276 650 931 1033 1261 1540 1391 1309 2410 2487 2389 2283 2179 2335 1595 743 386 249 55 1 0 2 19 14 45 1 0 0 0 0 0 0 0 0 0 0 0 0 0 0
197 328 174 27 16 6 11 227 466 593 876 902 1696 2251 1991 1806 1707 1209 457 245 110 1 3 4 42 35 58 28 0 0 0 0 0 0 0 0 0 0 0 0 0 0 0
259 10 30 169 17 0 0 0 0 9 132 165 312 1031 654 813 777 349 31 9 10 6 245 142 106 90 53 0 0 0 0 0 0 0 0 0 0 0 0 0 0 0 0
358 196 9 40 38 25 0 0 0 0 0 0 16 3 238 326 135 51 7 31 75 13 232 242 119 71 0 0 0 0 0 0 0 0 0 0 0 0 0 0 0 0 0
304 73 53 38 12 0 0 0 0 10 2 3 21 71 109 75 141 119 119 185 203 206 249 128 9 0 0 0 0 0 0 0 0 0 0 0 0 0 0 0 0 0 0
180 98 66 88 31 21 10 3 0 24 3 6 2 39 121 107 82 142 182 136 104 77 25 7 0 0 0 0 0 0 0 0 0 0 0 0 0 0 0 0 0 0 0
5 15 15 35 36 12 29 1 10 49 72 101 166 154 131 138 80 55 54 57 64 15 30 33 16 0 0 0 0 0 0 0 0 0 0 0 0 0 0 0 0 0 0
1 0 0 0 4 35 33 14 10 23 72 85 84 126 47 34 43 28 26 65 47 39 13 1 0 0 0 0 0 0 0 0 0 0 0 0 0 0 0 0 0 0 0
19 9 11 10 5 10 5 9 11 1 4 15 13 4 7 13 22 28 55 80 89 49 18 0 0 0 0 0 0 0 0 0 0 0 0 0 0 0 0 0 0 0 0

GFSGL_con_mucape_024.txt.gz
CAPE
3190 3390 3328 3078 3017 3152 3246 3779 3880 3181 3529 2955 2885 2508 2371 2601 2847 3091 3146 2385 2498 2140 1309 908 831 287 48 29 32 0 0 0 0 0 0 64 263 408 84 57 178 194 146
2875 3552 3554 3562 3387 3061 3535 3561 3894 3768 3678 3624 3142 2900 2598 2424 3039 2996 3021 2272 2479 2308 1887 1337 1005 434 510 527 116 461 253 107 0 133 37 43 539 427 679 666 455 133 135
2772 2535 2750 3091 3176 3444 3747 3489 3773 3924 3946 2880 3444 3800 3410 2916 3103 2944 3178 2931 2559 2501 2202 1862 1419 735 780 347 272 138 81 58 267 18 37 182 118 274 578 777 624 609 265
1891 2274 3099 3525 3497 3551 3727 3761 3828 3998 4041 3883 3943 4100 3680 3128 2940 2911 2908 3019 2943 2628 2555 2222 1742 1132 1015 669 374 435 179 128 405 113 12 11 163 311 179 65 458 696 395
2559 2154 3165 3581 3817 3829 3836 3937 3869 4042 3965 4086 4048 4112 3946 3046 2451 3426 3443 3007 3324 3165 2996 2558 2157 1340 563 574 392 989 1286 417 44 158 81 31 39 113 279 82 93 91 256
2885 2826 3153 3729 3999 3985 4071 4112 4102 4058 4102 4166 3980 4092 4098 3067 1901 1729 2625 3508 3680 3787 3482 2988 2427 1227 807 670 691 590 933 981 1058 175 143 353 457 383 359 206 155 112 127
2907 3275 3509 3859 3969 4129 4059 4184 4147 4154 4156 4213 4167 4155 4254 4129 1960 1581 1655 3086 3583 3553 3739 3204 2651 1980 1045 1094 1007 1020 1006 875 455 971 936 765 681 698 1041 718 421 341 273
3275 3401 3628 3560 3827 3815 4179 4179 4206 4134 4016 4130 4131 4180 4251 4113 2602 1743 1484 2679 3523 3536 3122 3093 3158 2809 1908 1403 1406 1246 1161 1054 714 483 490 1015 1242 881 832 743 586 409 521
3311 3425 3568 3482 3524 3769 4153 4213 4189 4073 4095 4082 4089 4269 4274 4165 2663 2224 1612 2456 2666 3812 3386 3195 3291 3258 2339 1644 1579 1617 1269 1111 869 617 82 228 446 183 282 335 219 146 154
3127 2921 3575 3826 3919 3879 4046 4280 4297 4238 3987 3341 3824 4109 3590 4165 3022 2343 1997 2174 2590 2668 3550 3896 2207 2715 2276 1757 1632 1895 1856 1385 950 741 390 122 118 4 0 134 115 124 29
2410 2453 3307 3898 4107 4100 4291 4390 4181 4078 3638 4119 4088 4134 4306 3767 3995 2571 2134 2716 2548 2544 2301 2638 2919 1883 1791 1648 1497 1726 1801 1302 977 799 620 369 139 52 0 2 3 0 0
2836 2733 3625 4005 3385 3028 4475 4524 4221 4140 4221 4208 4173 3995 3810 4210 2776 2781 2386 1853 2195 2809 2716 2573 2505 1708 1319 1282 1455 1121 754 900 949 396 365 176 71 7 1 0 0 0 0
2759 3175 3162 3370 3398 3921 4378 4243 3663 4337 3465 3640 3401 3406 3617 3702 3942 2536 2391 2258 1662 2570 2520 2077 1720 1388 1156 1301 1486 820 711 564 501 459 584 335 80 11 0 0 0 0 0
3267 3406 3425 3596 3582 3511 3290 3419 3453 3379 3552 3362 3347 3567 3401 3272 3414 3130 2390 2092 1954 1706 1965 1737 1407 1104 1237 1234 706 495 337 460 714 507 471 223 18 0 0 0 0 0 0
3161 3181 3408 3402 3520 3571 3936 3400 3350 3883 3198 3595 3515 3326 3591 3420 3148 2652 2216 1973 1871 1623 1578 1617 1486 1261 1230 591 307 83 130 220 290 505 284 74 2 0 0 0 0 0 0
1152 1041 1178 1624 1939 2663 2889 3468 2831 2695 2873 3042 3049 3020 3348 3013 2815 2550 2306 1981 1666 1612 1528 1370 1149 1196 546 159 92 53 57 95 171 229 155 3 0 0 0 1 0 0 0
1249 1203 1244 1203 1688 1568 1747 2031 2344 2426 2921 2883 2887 2910 2751 2633 2689 2505 2192 1890 1564 1457 1594 1268 1234 715 285 56 5 16 55 106 284 114 13 4 0 0 0 1 0 0 0
945 462 665 677 883 1166 1231 1136 1129 1349 1519 1924 1608 1522 1682 2478 2571 2426 2205 2035 1542 1618 1511 1221 770 377 139 4 9 24 58 110 95 49 11 2 0 2 9 0 0 0 0
726 711 406 70 0 0 129 99 5 51 38 124 190 591 789 964 1335 1958 1817 1771 1682 1516 1194 544 265 252 81 35 51 109 166 137 66 49 3 1 6 3 1 0 0 0 0
551 5 45 477 340 347 315 251 0 1 12 18 0 0 28 56 301 335 695 691 1080 1075 632 351 131 110 161 177 88 68 60 40 40 3 0 5 3 1 1 0 0 0 0
462 149 31 27 13 34 159 10 6 8 1 19 24 0 0 3 0 0 13 13 1 288 152 153 198 197 418 382 78 62 7 15 3 0 5 4 2 0 0 0 0 0 0
290 98 69 45 25 14 8 12 17 22 35 18 5 0 0 0 0 0 0 115 179 124 159 268 191 185 279 209 39 2 8 1 0 0 2 2 2 0 0 0 0 0 0
233 405 154 177 138 5 0 0 0 0 0 0 1 0 0 0 17 7 51 123 200 196 255 236 405 305 174 67 7 0 0 0 0 0 2 2 4 1 0 0 0 0 0
6 42 12 15 5 68 78 29 20 0 1 26 5 2 0 9 16 64 41 70 133 232 100 90 41 14 10 2 0 0 0 2 4 3 0 2 4 0 0 0 0 0 0
0 0 5 12 0 18 32 11 8 0 0 8 88 34 16 15 45 64 92 70 58 34 9 1 12 17 37 56 27 0 0 0 1 0 4 5 4 3 0 0 0 0 0
0 3 7 8 9 13 14 17 7 0 0 2 14 5 9 39 35 32 26 32 6 2 13 45 55 54 53 27 0 0 0 0 0 0 3 0 0 0 1 0 0 0 0

GFSGL_con_mucape_027.txt.gz
CAPE
3889 3921 3903 3963 3977 4178 4005 4245 4148 4237 4479 3894 4220 3691 3721 3817 4065 4275 3806 3485 3751 3568 3003 2842 2248 2084 83 56 48 20 7 0 0 0 10 663 995 265 90 41 68 593 53
3735 4051 3968 4009 3926 4012 4114 4002 4316 4344 4300 4581 4332 4289 4130 3814 4017 4215 3946 2684 3727 3415 2977 2882 2053 1022 1924 1710 171 1502 319 564 0 1186 774 276 989 1359 1357 1637 430 73 385
3341 3507 4100 4056 4042 3877 4092 4127 4230 4362 4408 4203 4368 4539 4418 4009 4011 4278 4243 3966 3769 3675 3400 3277 2546 2247 2252 500 685 499 172 440 486 109 62 100 174 468 1223 1328 1646 1142 417
2555 2825 3585 4100 4009 4076 4126 4294 4255 4414 4425 4389 4353 4467 4461 4335 3944 3947 4083 4129 3947 3685 3677 3563 3229 2659 2321 2122 1618 1508 1236 627 492 215 58 3 80 858 425 401 899 747 657
3274 3276 3466 4075 4280 4353 4339 4309 4348 4407 4411 4463 4443 4410 4591 4420 3556 3926 3769 4018 4228 4022 3822 3849 3640 2823 1792 1824 1117 1399 1205 866 51 141 170 83 30 461 869 507 407 792 716
3536 3382 3734 4110 4402 4489 4520 4526 4632 4496 4550 4546 4510 4401 4378 4221 2825 2270 3002 3808 4224 4401 4206 4265 3999 2256 1667 1190 756 734 1099 1741 1129 203 154 292 1700 727 352 287 461 350 656
3278 3948 3724 4198 4337 4558 4674 4698 4612 4628 4631 4608 4520 4512 4464 4480 2964 2187 2108 3603 4059 4294 4405 4295 3918 2750 2126 1893 1107 540 651 700 797 1667 1348 1292 1424 1567 1508 754 1441 860 335
3845 3718 4127 4063 4403 4575 4672 4674 4719 4655 4594 4621 4616 4654 4573 4422 3465 2648 2067 2867 3701 4243 4197 4263 4300 3535 3063 2671 2278 1373 1122 970 1062 934 1350 1723 1766 1701 1093 1214 1390 1151 676
3745 4143 3918 4196 4402 4563 4605 4630 4678 4648 4635 4556 4629 4671 4642 4540 3544 3204 2566 2671 3184 3566 4132 4177 4078 4140 3260 2110 2721 2600 1819 1249 1154 1213 980 695 426 348 545 1001 287 252 94
3843 4067 4257 4447 4460 4573 4618 4731 4720 4705 4654 4486 4562 4620 4280 4652 3996 3403 3054 2905 3104 3261 3662 4175 2903 3489 3305 2503 2470 2867 2565 1751 1355 1248 895 614 477 163 224 1062 313 327 243
3011 3685 4483 4609 4724 4678 4693 4812 4855 4804 4512 4685 4583 4602 4683 4501 4576 3709 3269 3336 3099 3109 3263 3443 3769 2571 3175 2693 2345 2783 2395 1999 1411 1220 665 606 524 530 244 95 302 258 47
3900 4010 4497 4657 4190 4002 4873 4854 4902 4877 4810 4717 4726 4502 4503 4694 3866 3884 3577 3102 2948 3128 3209 3152 3303 2858 2552 2720 2439 2173 2120 1833 1896 1050 519 605 355 346 314 233 243 228 8
4421 4652 4712 4733 4641 4632 4854 4919 4471 4743 4000 4138 3963 4136 4194 4015 4654 3790 3462 3337 3040 2710 3179 2950 2391 2389 2284 2296 2317 2122 1665 1556 1393 591 551 406 272 186 383 134 107 8 0
3641 4194 4268 4311 4509 4511 3660 3951 3761 3608 3680 3727 3495 3869 3434 3942 4136 4602 3533 3409 3173 2942 2562 2359 2174 1951 2172 2168 2001 1775 1484 1310 1024 465 419 501 440 96 32 13 0 0 0
3778 3775 3926 3697 3899 4317 4346 3437 3536 4096 3331 3602 3607 3375 3534 3737 3735 3637 3777 3709 3194 2982 2691 2418 1861 1685 1859 1808 1560 1133 1020 1003 608 493 424 501 156 58 23 68 0 1 0
3133 3449 3235 3273 3604 3648 3602 3990 3063 2919 3016 2911 2834 2873 3016 3002 2958 2954 3093 3028 2907 2807 2546 2307 2048 1630 1541 1447 1374 869 769 677 223 198 121 72 63 60 2 36 10 1 3
2055 1996 1506 892 1348 1514 1930 2167 2288 2334 2473 2496 2481 2331 2417 2573 2726 2738 2814 2718 2782 2728 2647 2185 2029 1462 1328 1385 1244 712 497 220 96 103 74 277 70 49 3 14 20 5 3
1179 637 1168 1148 1316 1581 1691 1427 1079 800 733 618 224 349 747 1056 1082 1217 1656 1962 2295 2404 1947 1977 1682 1697 1541 1317 1273 997 484 251 63 179 316 226 31 24 14 11 12 28 0
973 1024 913 542 229 281 621 693 410 212 172 8 1 0 0 0 0 0 26 96 497 919 982 1338 1751 1512 1385 1167 1180 851 426 87 95 189 90 99 102 25 11 9 7 0 1
433 116 300 683 597 705 590 522 170 69 37 43 1 0 0 1 3 0 0 0 33 200 291 426 372 508 419 506 635 325 173 160 71 157 41 80 22 2 2 14 1 0 0
374 315 117 366 308 288 361 361 270 236 134 2 1 0 0 0 19 10 33 0 0 2 1 11 23 13 6 0 200 184 82 83 62 88 42 15 2 6 11 6 0 0 0
347 201 94 55 40 70 25 14 8 5 7 4 1 9 0 12 7 0 16 6 0 24 87 35 15 37 55 167 93 111 112 51 32 31 0 3 14 1 0 0 0 0 0
142 58 34 82 92 42 78 9 0 0 0 0 2 9 0 23 26 0 44 95 85 106 85 99 112 118 115 115 101 80 79 52 46 32 31 16 3 0 0 0 0 0 0
17 7 2 0 4 0 0 0 0 0 0 0 3 5 4 3 1 0 37 165 193 181 92 70 80 110 85 107 73 47 50 20 32 37 11 0 0 0 0 0 0 0 0
0 0 6 2 0 1 0 0 9 5 4 19 8 0 0 0 1 4 0 4 21 55 42 44 44 79 73 61 32 29 7 0 25 1 3 1 3 19 0 1 0 0 0
0 0 0 0 0 0 1 1 0 1 2 1 0 0 3 1 3 7 6 20 23 10 23 14 0 0 15 5 24 27 30 24 11 0 2 5 9 10 7 0 0 0 0

GFSGL_con_mucape_030.txt.gz
CAPE
3499 3417 3341 3443 2777 2737 2882 2612 3500 2564 4129 2858 4036 3351 3236 3180 3267 3530 3032 2804 3364 2875 2706 2576 1767 1115 910 849 649 765 611 507 125 231 780 699 522 143 1 65 57 20 0
3699 3697 3477 3495 3648 3254 2546 2862 3135 3921 2935 4060 3603 3444 3431 3123 3209 3183 3222 2415 3046 3125 2774 2675 2067 1353 1531 1582 1620 686 679 803 468 866 935 818 647 648 993 953 296 2 174
3663 3742 3678 3585 3489 3603 3535 2659 3309 3198 3931 3094 4036 3804 3283 3250 3126 3342 3204 3147 2522 3287 3071 2633 2307 1773 1606 858 1088 1399 892 1289 1574 554 722 1021 856 924 798 988 1186 805 582
3430 3690 3659 3757 3562 3525 3484 3570 2961 3502 3276 3674 3471 3601 3814 3351 3275 3157 3258 3312 3099 2857 3252 3055 2653 1978 1752 1622 1197 732 1369 638 740 1007 468 316 996 763 774 449 721 766 652
2620 3393 3519 3624 3915 3700 3645 3678 3786 3394 3481 3416 3551 3610 3509 3703 3438 3216 3161 3278 3385 3155 3005 3274 3007 2460 1858 1792 1122 1405 590 1512 904 468 477 592 480 790 582 473 567 418 637
2856 2923 3217 3521 3713 4075 3933 3857 3941 3884 3771 3860 3789 3656 3689 3613 3390 3112 2934 3197 3387 3332 3269 3116 3185 2770 2299 1842 1586 918 1133 660 701 413 391 349 449 646 818 435 389 376 158
3296 3377 3355 3583 3736 3932 4094 4111 3970 4049 4023 4004 3992 3968 3713 3717 3430 3230 2991 3103 3207 3283 3318 3353 3278 2946 2600 2244 1946 1708 955 819 666 576 401 512 933 1096 901 1181 924 790 433
4006 3837 4189 4077 3856 4021 4085 4181 4212 4180 4216 4117 4176 4186 4068 3919 3534 3391 3131 2749 3091 3147 3229 3301 3280 3137 2908 2519 2226 1974 1731 802 657 724 832 663 1275 1599 1630 1348 955 894 694
3292 3752 3689 4328 4192 4157 4236 4245 4299 4357 4288 4317 4257 4301 4294 4144 3774 3517 3333 3032 2681 2946 3250 3330 3345 3318 3131 2694 2396 2154 1967 1726 756 488 603 895 843 720 1158 574 542 377 285
3327 3498 3976 3759 4187 4207 4309 4399 4413 4467 4442 4404 4393 4341 4233 4298 4048 3845 3555 3285 2838 2640 2904 3228 3257 3316 3277 3014 2531 2270 2129 1801 1395 732 551 700 866 869 671 641 340 189 165
3455 3777 4181 4460 4157 4249 4444 4552 4550 4572 4530 4490 4442 4442 4398 4297 4292 4130 3890 3559 3291 2960 2716 2786 2957 3144 3277 3220 2897 2475 2273 2075 1513 1102 699 717 880 973 762 336 584 249 169
4593 4149 4479 4705 4231 4280 4578 4752 4632 4558 4545 4496 4534 4467 4443 4476 4228 4154 4021 3902 3565 3407 3201 2785 2759 2875 3023 3115 3029 2814 2507 2288 1931 1437 1095 963 1105 991 528 331 156 181 122
5226 4998 4712 4951 4628 4407 4710 4640 4584 4624 4557 4543 4493 4434 4519 4404 4384 4200 3998 3898 3804 3671 3358 3203 2819 2662 2782 2854 2839 2819 2682 2410 2043 1661 1404 1202 1167 859 399 219 110 112 96
5171 5377 5159 5109 4847 4702 4555 4590 4536 4459 4452 4428 4257 4309 4216 4120 4178 4155 3748 3903 3875 3693 3560 3339 3101 2847 2331 2588 2601 2615 2551 2311 1990 1687 1499 1158 1075 556 221 107 97 27 1
4562 4849 5083 4746 4748 4802 4663 3992 4532 4386 4025 4159 4086 3915 3725 4007 3665 3332 3187 3445 3581 3614 3645 3479 3217 3119 3010 2411 2171 2257 2335 2376 2223 1721 1438 998 819 327 132 3 58 35 13
4902 4560 4356 4096 4431 4137 4403 4407 3799 3230 3189 3101 3074 3149 3102 3017 3035 3001 3038 2907 2859 3094 3212 3105 3130 3065 3089 2787 2421 1986 1714 1965 2020 1691 1512 1158 779 250 37 7 1 27 15
3229 3725 2930 3062 3069 4577 4418 4767 4480 3169 2830 2907 2876 2814 2705 2571 2509 2786 2928 2888 2878 2791 2671 2620 2544 2466 2479 2563 2659 2326 2052 1636 1597 1411 1167 877 630 289 8 0 0 11 9
1947 1364 2013 2191 2102 1883 2180 2236 2224 2389 2294 2118 2044 1942 1826 1598 911 19 0 0 1 393 1293 1603 1659 1669 1815 1552 1524 1549 1271 1141 1162 1071 960 649 317 12 8 2 5 3 44
2033 1453 1256 862 718 891 1519 1466 876 874 839 546 246 0 0 0 0 0 0 0 0 0 2 2 37 140 318 728 936 819 871 568 495 730 616 630 99 30 28 0 4 7 0
472 760 1006 1294 978 1278 1084 881 754 702 414 287 28 0 0 0 0 5 0 0 1 3 4 4 0 2 0 1 18 77 176 239 209 86 156 3 13 1 8 22 13 8 0
345 401 226 407 308 278 329 304 266 223 99 44 4 0 0 0 7 10 8 10 6 0 37 45 0 0 0 0 2 0 12 6 6 2 21 198 55 4 23 44 8 0 0
331 177 105 83 61 14 3 4 1 0 0 0 0 0 0 6 4 3 23 26 21 20 7 39 16 0 4 0 12 18 3 30 25 82 94 70 44 54 64 14 0 0 0
12 5 27 14 5 3 0 0 0 0 0 0 0 0 2 0 0 2 15 46 41 26 141 138 135 91 125 146 104 38 2 2 20 46 60 55 58 64 49 0 0 0 0
5 4 5 4 4 2 0 0 0 0 0 0 0 0 0 0 0 0 4 2 5 3 114 172 31 106 48 45 35 52 51 45 39 49 36 46 63 52 14 12 0 0 0
0 0 0 0 0 0 0 0 0 6 2 0 4 0 0 0 0 0 0 0 6 15 5 14 24 22 31 50 34 24 7 7 18 6 10 21 0 0 0 0 0 0 0
0 0 0 0 0 0 0 0 0 0 0 0 0 0 0 0 0 0 2 6 2 11 9 45 14 0 70 72 48 3 3 2 0 0 0 0 19 6 0 2 10 0 0

GFSGL_con_mucape_033.txt.gz
CAPE
1927 1780 1962 1620 1265 1891 2071 1064 1249 1829 1588 1300 2087 1748 1942 1935 2321 2053 1802 2344 2391 2095 2023 1663 1297 1098 282 52 134 98 20 0 0 0 0 0 4 0 0 0 0 0 0
2216 1908 2018 2023 1796 1335 2055 2031 639 1799 1716 2492 2447 2152 2252 2023 2048 2459 2173 2138 2235 2363 2173 1927 1682 1333 831 159 601 51 50 27 0 0 351 189 0 1 0 0 0 0 0
2379 2433 2157 2187 2305 2005 1587 1681 2337 1115 2196 1730 2676 2572 2391 2327 2395 2237 2397 2484 2228 2212 2332 2172 1908 1598 1289 845 470 608 157 18 150 0 290 146 65 143 64 30 15 7 13
2452 2594 2672 2509 2505 2548 2225 1801 1485 2264 1927 2829 2046 2536 2617 2454 2290 2404 2350 2359 2447 2038 2397 2525 2196 1982 1650 1433 1005 402 506 352 515 429 21 309 354 380 135 182 304 382 252
2465 2716 2739 2807 2723 2684 2637 2687 2366 1550 2174 2256 2733 2778 2694 2644 2525 2385 2444 2483 2445 2483 2063 2374 2657 2569 2303 1859 1333 949 315 577 361 292 262 97 40 514 482 256 80 106 309
2183 2598 2864 2903 2868 2808 2832 2682 2875 2819 2167 2445 2753 2390 2661 2825 2878 2633 2523 2539 2552 2532 2573 2242 2492 2700 2673 2471 2089 1562 724 88 558 417 217 246 157 16 379 334 239 219 273
1773 2303 2726 2898 2938 2975 2907 2928 2803 2840 2929 2547 2319 2821 2531 2768 2968 3081 2956 2716 2605 2625 2623 2640 2451 2556 2802 2740 2503 2264 1922 1288 599 387 344 154 114 153 138 339 266 177 128
1881 2000 2171 2839 3030 3034 3160 3006 3094 2989 3072 3174 3038 2679 3061 2907 2926 3091 3162 3184 2947 2659 2780 2764 2702 2638 2586 2776 2788 2615 2369 2129 1723 1188 323 234 148 71 140 205 211 203 115
2192 2346 2315 2709 2890 3065 3120 3365 3291 3313 3246 3262 3363 3328 3227 3271 3340 3249 3214 3317 3220 3076 2880 2823 2921 2842 2819 2776 2787 2743 2617 2491 2204 1855 1431 670 130 742 753 658 302 312 280
2897 3125 3275 2837 3071 3052 3201 3294 3429 3497 3513 3537 3462 3616 3508 3501 3534 3519 3527 3401 3233 3149 3077 3004 2886 2956 3040 2993 2875 2785 2764 2621 2397 2149 1849 1496 914 381 546 407 491 292 318
2627 2562 3184 3606 3510 3616 3378 3403 3584 3667 3732 3732 3849 3772 3809 3768 3740 3812 3830 3797 3562 3302 3096 2925 2852 2815 2996 3187 3152 2876 2631 2397 2359 2314 2065 1716 1391 843 518 319 532 623 562
2686 2861 3098 3334 3289 3652 3850 3846 3904 4002 4017 4021 4010 4017 3982 3966 4036 3975 3935 4001 3827 3457 3433 3248 3373 2999 2818 2791 3075 3276 3144 2947 2722 2448 2154 1937 1717 1397 868 396 369 602 597
3764 3213 3274 3479 3918 3476 3867 4257 4182 4154 4144 4164 4136 4128 4106 4053 4037 4100 4090 3988 3993 3971 3787 3579 3428 3233 3082 2950 2753 2813 3096 3232 3114 2380 2491 2159 1734 1765 1273 681 368 478 449
3190 4562 3956 4244 4296 3890 4220 4188 4440 4386 4243 4135 4101 4069 3969 3883 3846 4037 3945 3897 3964 4008 3987 3909 3778 3641 3522 3327 3082 2870 2704 2742 2717 2673 2576 2395 2041 1615 1497 1258 648 587 563
3832 4672 4483 4476 4321 4330 4027 4301 4082 4014 4020 3935 3936 3788 3693 3722 3791 3764 3681 3632 3444 3245 3128 3131 3428 3638 3644 3568 3494 3316 3203 2896 2537 2517 2490 2034 1865 1807 1667 1275 828 750 454
3698 3911 4036 4088 4257 4295 4074 3716 3529 4070 4014 3799 3772 3848 3758 3497 3210 3281 2994 2946 2859 2955 2976 2877 2831 2772 2743 2906 2935 2969 2926 2824 2633 2395 1761 1744 1576 1423 1296 1298 934 603 470
3686 3679 3797 3208 3591 3777 3979 3688 3458 3111 3184 3604 3525 3152 2847 2922 2850 2834 2799 2882 2941 2929 2879 2873 2835 2737 2560 2468 2533 2462 2245 2135 2141 1927 1511 1463 1307 1108 1092 699 871 435 280
3174 3004 3343 3438 3262 3490 3282 3861 3782 3400 2774 2468 2742 2823 2826 2837 2787 2533 2139 1492 265 0 0 0 0 0 5 202 281 293 388 503 1005 1106 1247 1117 950 660 333 533 255 391 91
2019 2147 2541 2302 2151 2958 3166 3036 2986 2683 2754 2699 2567 2434 2260 1635 484 0 0 0 0 0 0 0 0 0 1 0 0 0 1 3 6 19 126 581 712 572 367 126 58 41 2
759 956 1306 1281 977 1727 1763 1797 1981 2108 2031 2077 1852 564 0 0 0 0 0 0 0 0 0 0 0 0 0 0 0 0 0 0 0 2 6 24 15 97 11 1 11 3 44
754 897 866 628 622 541 426 311 174 35 0 0 0 0 0 0 2 0 2 8 13 13 5 0 2 0 0 1 0 0 0 0 0 0 0 10 2 4 0 7 2 55 77
298 596 654 425 299 426 409 375 269 151 59 3 0 0 0 5 7 5 4 1 3 4 9 27 22 11 5 18 16 3 0 0 0 0 0 0 0 0 15 55 92 100 94
2 2 3 2 0 0 0 0 0 0 0 0 0 0 0 0 0 0 0 3 1 2 1 1 11 4 4 12 11 10 12 16 16 5 0 1 6 0 28 52 44 69 23
0 26 10 7 1 0 0 0 0 0 0 0 0 0 0 0 0 0 0 0 0 0 5 4 2 0 1 3 12 9 7 16 14 0 4 25 33 30 12 0 0 1 1
19 8 10 3 3 0 0 0 0 0 0 0 0 0 0 0 0 0 0 0 0 0 0 3 0 2 4 4 3 14 1 17 59 24 7 2 11 1 0 0 0 0 0
0 0 0 0 0 0 0 0 0 0 0 0 0 0 0 0 0 0 0 0 0 0 0 0 9 7 9 26 13 0 5 11 40 21 1 2 6 27 46 39 30 7 6

GFSGL_con_mucape_036.txt.gz
CAPE
1499 1433 1148 913 927 1817 1431 1058 717 1124 1383 1072 1407 1348 1697 1673 1772 1547 1517 1775 1557 1551 1836 1702 1019 766 394 111 30 110 86 25 14 7 25 57 14 1 5 0 0 0 0
1677 1685 1585 1379 987 929 1814 1811 1215 682 1071 1680 1255 1424 1544 1736 1732 1701 1440 1529 2190 2270 1870 1963 1858 1494 1048 390 61 47 136 118 71 7 0 72 21 22 8 14 1 0 0
1586 1608 1629 1629 1458 1110 1042 1729 1956 1508 980 1392 1694 1532 1514 1630 1747 1890 1698 1636 1610 1947 2164 2017 2024 1871 1621 1336 631 33 165 166 106 50 19 94 162 75 32 11 11 18 0
1720 1710 1568 1696 1743 1538 1242 1055 1714 2030 1595 1064 1671 2055 1971 1844 1753 1713 1959 1922 1791 1785 1837 2003 1980 2054 2000 1779 1454 915 131 317 249 81 27 16 171 47 30 21 9 1 13
1924 1939 1847 1674 1861 1969 1841 1527 1200 1419 1933 1918 1191 1663 2246 2287 2274 2135 1864 1889 2096 2138 2015 2066 2149 2083 2023 2019 1859 1676 1178 709 269 379 99 50 78 80 56 14 0 0 23
2032 2076 2106 2139 1957 2060 2188 2187 1925 1557 1346 1735 2000 1923 1822 2238 2373 2430 2377 2237 2016 1997 2049 1980 1929 2196 2331 2406 2458 2409 2308 1916 1249 226 238 152 53 38 76 39 22 19 45
2058 2125 2288 2303 2449 2342 2306 2362 2399 2294 2049 1747 1464 1951 2051 2133 2372 2515 2544 2484 2401 2270 2134 2075 2084 1947 2101 2216 2330 2512 2569 2475 2291 1735 988 192 112 51 8 56 97 53 52
1722 2211 2332 2560 2553 2635 2617 2521 2526 2525 2659 2579 2250 1964 2152 2092 2154 2552 2731 2698 2564 2488 2482 2471 2410 2321 2240 2170 2250 2168 2289 2479 2554 2423 2025 1611 1166 586 207 15 15 66 61
1402 1570 2373 2554 2836 2811 2764 2786 2732 2761 2663 2660 2732 2574 2343 2181 2493 2452 2632 2838 2863 2892 2870 2813 2782 2734 2690 2621 2522 2403 2330 2230 2270 2487 2415 2089 1764 1413 1070 675 82 21 33
1625 1705 1747 2438 2692 2847 2887 2879 2946 2869 2863 2799 2745 2839 2868 2797 2753 2828 2874 2811 2710 2727 2760 2891 2973 3001 3041 3037 2942 2858 2769 2631 2529 2422 2243 2201 2157 2009 1740 1424 938 104 7
1903 1800 1865 1955 2262 2676 2823 2951 2967 3096 2975 3003 3032 2974 3069 3147 3168 3176 3179 3300 3280 3220 3155 3101 3018 3003 3001 3014 3016 3028 2945 2842 2851 2605 2492 2561 2648 2212 1860 1739 1509 972 151
2368 2454 2448 2546 2301 2498 2694 2831 2985 2988 3178 3224 3231 3352 3370 3334 3466 3548 3607 3639 3636 3638 3425 3328 3485 3258 3117 3055 2999 2942 2959 3038 3044 2959 2907 2626 2360 2119 1899 1897 1849 1394 816
2384 2472 2537 2847 3139 3119 3034 2985 3002 3181 3184 3315 3437 3503 3613 3748 3804 3833 3858 3852 3885 3945 3899 3763 3704 3602 3551 3558 3545 3476 3377 3308 3105 2792 2734 2761 2620 2453 2289 2108 2136 2036 1182
2931 2945 2907 2565 2831 3009 3245 3404 3432 3510 3617 3650 3732 3829 3886 3940 3939 3898 3906 4009 4092 4117 4111 4132 4116 4094 4076 4043 3979 3880 3780 3752 3621 3415 3214 2946 2600 2460 2319 2279 1959 1876 1473
3040 3755 4158 3558 3296 3275 3470 3681 3864 3881 3887 3937 4008 4002 3936 3796 3626 3662 3691 3710 3683 3591 3456 3500 3133 2921 2893 2793 2744 2797 2882 2971 2938 2905 2747 2552 2278 2149 1844 1590 1451 1441 1358
2752 3328 4037 4048 3843 3697 3768 3637 4086 4134 4181 4154 4038 3842 3685 3488 3428 3413 3506 3286 3005 2854 2831 2843 2816 2796 2799 2772 2628 2485 2654 2492 1957 1693 1865 1637 1753 1576 1604 1355 1229 939 736
2273 2932 3503 3918 4079 3950 3767 3516 3479 3873 3334 3459 3890 3751 3496 3383 3382 3416 3204 2913 2830 2645 2706 2725 2306 1687 412 395 479 435 203 19 3 0 4 190 586 914 1062 641 984 608 593
2023 1886 2442 3343 3244 3817 3975 3705 3554 3437 2863 2655 2852 3358 3292 3101 2737 2560 2625 2669 2544 2131 1444 18 0 0 0 0 0 0 0 0 0 0 0 0 5 29 25 14 112 238 395
1427 1889 1806 2555 3101 2902 3686 3846 3396 3154 2862 2718 2209 1851 2208 2068 1888 2036 2041 1760 797 18 0 0 0 0 0 0 0 0 0 0 0 0 0 1 0 0 0 0 0 3 16
1456 1152 1545 1824 2481 2591 2743 3127 3053 3266 3075 3032 2511 2109 2025 2084 1742 1326 60 0 0 0 0 0 0 0 0 0 0 0 0 0 0 0 0 0 0 0 0 0 0 0 3
1141 906 1237 1350 1261 1562 1808 2190 2256 2629 2307 2147 2019 1906 1770 1388 319 0 0 0 3 0 0 1 2 6 6 4 3 1 4 0 0 0 0 0 0 0 0 0 0 0 1
615 1007 852 717 712 655 629 614 714 954 991 731 334 52 0 0 0 0 0 0 0 0 1 0 0 0 2 0 4 5 0 2 5 4 4 0 0 0 0 6 1 0 0
343 557 791 877 762 639 531 458 373 315 242 127 4 0 0 0 0 0 0 0 0 0 3 1 0 0 0 0 7 8 7 4 12 5 3 6 0 0 2 6 1 0 0
87 58 259 409 331 24 6 13 11 0 0 0 0 0 0 0 0 0 0 0 0 0 0 0 0 0 0 2 0 39 5 19 22 5 0 0 4 24 18 3 2 9 0
5 15 5 0 0 0 0 0 0 0 0 0 0 0 0 0 0 0 0 0 0 0 0 0 0 0 0 2 13 85 0 1 30 1 1 3 0 0 14 5 0 2 1
28 34 42 0 0 3 0 0 0 0 0 0 0 0 0 0 0 0 0 0 0 0 0 0 0 0 1 4 14 17 4 0 30 0 11 16 4 0 0 4 0 7 8

GFSGL_con_mucape_039.txt.gz
CAPE
538 501 544 639 648 614 657 606 548 631 648 817 827 829 1017 1108 1270 1482 1566 1356 1099 1025 1277 1509 1471 790 797 467 64 57 137 159 115 63 11 24 48 56 20 7 0 0 0
696 644 699 838 984 1013 802 813 784 779 845 837 947 1032 1066 1202 1229 1320 1554 1639 1360 1336 1357 1420 1521 1681 1456 858 403 83 55 126 214 194 102 22 10 71 33 12 0 0 0
716 808 765 766 824 1027 1414 1247 1009 968 934 916 1120 1281 1212 1301 1427 1407 1425 1573 1636 1480 1439 1562 1740 1678 1735 1709 1546 1196 148 28 93 147 213 147 85 1 6 12 6 0 0
816 1027 1110 1104 1008 869 840 1221 1497 1430 1245 1186 972 941 1174 1492 1439 1563 1615 1612 1599 1592 1633 1711 1859 1967 1894 1697 1707 1705 1454 790 5 4 79 139 113 60 29 23 10 3 1
1059 1263 1337 1381 1338 1239 1103 1046 1202 1457 1334 1364 1390 1254 1313 1461 1643 1615 1644 1737 1708 1648 1576 1573 1620 1692 1793 1846 1669 1652 1729 1643 1432 451 39 19 116 101 48 27 5 0 2
1365 1349 1372 1365 1457 1477 1421 1326 1234 1201 1510 1374 1275 1290 1305 1574 1716 1841 1877 1916 1820 1814 1727 1647 1614 1733 1816 1900 1937 1929 1802 1717 1650 1624 1484 1238 843 313 7 9 4 0 0
1601 1566 1539 1468 1418 1538 1615 1585 1514 1362 1256 1401 1487 1267 1190 1222 1516 2025 2064 1993 2028 2077 2110 2026 1948 1842 1899 1959 1973 2094 2133 2141 2109 1832 1719 1534 1281 1130 994 691 118 0 0
1771 1801 1807 1812 1700 1604 1727 1886 1896 1779 1606 1497 1373 1368 1478 1501 1631 1617 1995 2199 2046 2084 2075 2043 2082 2115 2145 2196 2219 2233 2213 2134 2033 1994 1991 1872 1749 1714 1669 1607 1300 945 694
1747 1920 1988 2016 2036 2079 2020 1975 2107 2160 2172 2074 1963 1830 1666 1535 1759 1971 2075 2145 2211 2215 2206 2258 2338 2390 2410 2483 2571 2625 2656 2679 2709 2707 2617 2484 2289 2065 1868 1926 1874 1646 1311
1573 1900 2049 2173 2246 2268 2395 2411 2308 2362 2371 2415 2503 2518 2437 2363 2318 2258 2126 2114 2081 2115 2258 2413 2533 2635 2707 2829 2874 2888 2874 2765 2686 2761 2499 2483 2446 2460 2412 2343 2123 2001 1743
1282 1343 1745 2198 2315 2484 2498 2519 2593 2625 2644 2682 2675 2644 2650 2696 2703 2741 2771 2786 2760 2824 2894 2962 2989 3024 2992 2985 2963 3458 3264 2940 2973 2879 2885 2913 2845 2702 2601 2635 2416 2382 1825
1815 1861 1841 1764 2266 2393 2657 2715 2731 2783 2820 2821 2811 2805 2857 2870 2903 2963 3042 3099 3139 3272 3383 3207 3228 3294 3269 3074 3197 3409 3349 3454 3488 3467 3316 3219 3034 2928 2838 2691 2464 2227 2228
2161 2197 2153 2157 2113 2080 2509 2608 2807 2860 2877 2981 2989 2984 3023 3127 3165 3224 3283 3341 3473 3641 3691 3578 3604 3727 3797 3813 3828 3829 3913 3931 3678 3313 3310 3328 3222 3002 2872 2812 2670 2438 2633
2579 2527 2416 2437 2476 2447 2480 2598 2638 2727 2849 2899 3032 3179 3204 3263 3439 3530 3603 3697 3802 3899 3930 3949 3984 3993 4031 4060 4136 4026 3414 2843 2790 2708 2590 2396 2282 2121 2355 2333 2118 2117 1378
2911 2904 3638 3234 2483 2679 2997 3093 3070 3087 3046 3075 3183 3290 3420 3514 3672 3788 3907 3930 3893 3896 3964 3964 3966 3897 3473 2883 2840 2696 2659 2464 2938 2428 2765 2335 1511 1257 913 1142 1329 1393 1232
1848 2798 3229 3879 3580 3138 2847 2754 3240 3543 3565 3652 3717 3769 3886 3971 3921 3653 3518 3472 3685 3737 3322 3222 2941 3017 2896 2613 2641 1978 1344 1357 1051 1097 820 179 0 0 0 2 62 425 456
1632 2114 2949 3622 3924 3632 3493 3366 3275 3495 3865 4019 4081 4016 3917 3510 3397 3164 3146 2840 2777 2829 2814 2642 2333 2324 1981 499 11 42 11 3 0 0 0 0 0 0 6 6 5 8 6
1705 1860 2188 3376 3724 3973 3700 3393 3199 2964 2883 3364 3234 3098 3351 3098 2914 2760 2788 2591 2509 2513 2031 2045 1402 384 0 0 0 0 0 0 0 0 0 0 0 0 0 0 0 0 0
1268 1701 1946 2373 2893 3631 3675 3561 3590 2352 2833 2840 2690 2238 2241 2267 2627 2555 2363 1971 1588 1651 1105 151 0 1 1 0 0 0 0 0 0 0 0 0 0 0 0 0 0 0 0
1179 1186 1385 1831 2237 2695 2793 3118 3542 3014 2230 2340 1734 1496 2218 1834 1362 1496 1729 1568 1288 471 3 6 1 6 1 1 0 0 0 0 0 0 0 0 0 0 0 0 0 0 0
1072 1019 1088 1219 1502 1624 1961 2275 2605 2809 2470 2000 2290 1903 1874 1890 1785 1794 1351 1021 8 0 0 0 3 1 0 0 3 1 10 5 0 2 5 4 2 0 0 0 0 0 0
652 736 804 736 940 1241 1282 1339 1657 1422 1582 1513 1506 1508 1390 1447 1352 434 1 0 0 0 0 0 0 0 0 0 0 1 4 3 2 0 4 3 2 0 0 0 0 0 0
407 518 373 641 600 623 760 784 784 826 898 804 623 440 177 6 0 0 0 0 0 0 0 0 0 0 0 0 0 4 2 2 5 4 2 2 2 10 0 0 0 0 0
409 293 233 537 303 354 370 312 618 207 312 306 327 146 0 0 0 0 0 0 0 0 0 0 0 0 0 0 0 0 3 5 4 3 14 8 22 43 54 18 0 0 1
112 208 138 86 153 142 291 252 568 342 237 78 0 0 0 0 0 0 0 0 0 0 0 0 0 0 0 0 0 2 5 4 5 0 19 20 52 59 69 70 20 19 3
21 26 52 16 12 18 46 53 22 7 2 0 0 0 0 0 0 0 0 0 0 0 0 0 0 0 0 0 0 0 1 6 11 4 6 25 40 53 44 42 16 26 26

GFSGL_con_mucape_042.txt.gz
CAPE
220 165 130 168 126 117 120 58 65 120 155 360 583 579 899 1069 1142 1111 1345 1505 1426 1235 1035 1113 1108 1166 988 652 555 280 39 25 95 154 162 96 37 5 25 87 59 26 1
298 279 213 244 266 267 264 183 176 241 259 417 596 582 713 947 1047 1151 1218 1360 1419 1519 1358 1139 1321 1234 1325 1360 1368 901 371 123 20 37 71 132 158 124 48 3 24 21 1
283 290 258 331 430 445 450 353 342 372 400 383 508 706 776 978 1098 1133 1203 1325 1475 1479 1593 1471 1378 1317 1446 1379 1489 1544 1304 947 217 9 6 10 37 59 100 68 10 2 0
397 431 417 482 583 679 682 641 552 569 582 593 610 718 874 1025 1262 1343 1329 1344 1386 1578 1670 1613 1582 1531 1554 1720 1473 1567 1561 1525 1491 1413 826 418 97 0 7 47 49 7 0
357 612 602 606 636 697 905 1136 868 770 728 699 731 764 849 1028 1141 1461 1595 1560 1520 1484 1539 1685 1771 1685 1525 1532 1705 1632 1290 1359 1290 1158 1076 927 931 912 729 403 347 223 108
405 671 758 773 749 710 633 684 1189 1122 1069 1033 1014 1012 854 966 935 1036 1323 1726 1757 1690 1627 1566 1625 1594 1637 1637 1630 1615 1555 1517 1349 1256 1037 1075 1042 831 828 872 867 839 558
681 796 993 1069 1116 1050 931 778 779 1011 1252 1125 1054 1030 997 1177 1198 1221 1284 1574 1740 1827 1847 1823 1791 1754 1777 1823 1759 1782 1747 1849 1896 1971 1884 1869 1784 1673 1570 1495 1373 1262 1150
1069 1100 1235 1295 1299 1308 1288 1192 1114 1099 1103 1283 1397 1234 1113 1031 1004 1324 1411 1403 1673 1792 1844 1924 1964 2061 1983 1875 1979 2064 2005 2058 2167 2268 2385 2456 2486 2488 2525 2480 2435 2205 2182
1447 1442 1454 1452 1371 1369 1462 1506 1458 1419 1359 1291 1242 1326 1471 1420 1172 1071 1202 1331 1694 1846 1969 2061 2056 2069 1870 1851 1970 2094 2223 2333 2428 2489 2471 2459 2486 2478 2426 2367 2284 1966 2074
1647 1669 1697 1693 1653 1563 1544 1599 1747 1829 1856 1754 1574 1505 1488 1459 1420 1411 1460 1557 1453 1621 1992 2175 1978 2029 2091 2160 2330 2562 2750 2719 2636 2606 2629 2602 2666 2726 2761 2686 2576 2363 2118
1482 1761 1835 1901 1927 1943 1935 1913 1910 2053 2155 2255 2308 2280 2180 2111 2176 2246 2366 2442 2397 2362 2389 2440 2551 2741 2927 2851 2735 2755 2846 2989 3203 3042 3186 3305 3160 3054 2939 2787 2828 2724 2544
1229 1610 1885 1995 2128 2201 2225 2322 2404 2364 2405 2478 2510 2562 2576 2654 2543 2587 2643 2725 2741 2781 2849 2917 3068 3190 3021 2895 2871 3001 3214 3438 3403 3376 3433 3183 3151 3388 2974 3065 2716 2606 2379
1301 1390 1483 1926 2157 2374 2493 2512 2553 2623 2684 2681 2714 2745 2790 2776 2744 2762 2854 2966 3049 3158 3197 3305 3435 3500 3609 3768 3807 3840 3840 3948 3781 3534 3469 3209 2673 2318 2575 2605 2528 2312 2022
1816 1797 1826 1998 2051 2238 2426 2641 2771 2732 2740 2871 2938 2933 2922 2957 2997 2976 3079 3180 3278 3370 3458 3604 3629 3706 3780 3813 3893 3955 3752 3459 2881 2406 2254 2455 2256 1996 1070 1052 1021 700 506
2768 2812 2275 2287 2315 2347 2340 2346 2446 2656 2776 2874 2913 3060 3113 3153 3199 3183 3394 3516 3670 3767 3785 3769 3781 3727 3661 3724 3792 3192 2735 2972 2492 2491 2139 1549 623 242 52 9 12 8 8
2424 2785 3362 3096 2479 2372 2424 2423 2552 2591 2645 2817 2903 3010 3118 3261 3508 3757 3862 3805 3798 3709 3743 3733 3753 3495 3163 2931 2676 2075 2318 2210 846 463 142 11 1 1 8 11 11 3 4
1121 1571 2565 3527 3361 2859 2555 2624 2641 2570 3108 3287 3397 3652 3809 4059 3641 3642 3466 3378 3379 3345 3393 3375 3039 2492 2282 1712 2001 1341 14 0 0 0 0 0 0 0 0 0 0 0 0
1331 1503 1753 3051 3699 3506 3160 2980 3047 3110 3279 3730 3950 3934 3613 3354 2812 2679 2303 2230 2523 2768 2611 2253 1939 1526 1731 1026 27 0 0 0 0 0 0 0 0 0 0 0 0 0 0
1209 1647 1787 2849 3531 3810 3545 3319 3117 2928 2443 2066 1892 2068 2085 2302 2017 2213 2221 2278 2878 2520 2080 1584 1483 838 17 2 1 1 1 2 3 3 0 0 0 0 0 0 0 0 0
1029 1469 1818 2253 3032 3527 3557 3368 3170 2799 2695 1746 1414 1328 1547 1248 1129 1176 1371 905 939 1257 1339 1081 436 0 7 2 3 3 8 5 4 0 0 0 0 0 0 0 1 0 0
921 907 1257 1606 2010 2672 3016 2506 2451 2512 2594 1906 2281 1970 1781 1646 1505 1492 1962 883 1002 1127 809 137 0 2 2 0 0 3 3 3 2 2 5 3 3 2 3 0 0 0 0
578 684 742 986 1174 1308 1528 1875 1821 1951 1702 1904 1884 1595 1595 1788 1503 1573 1057 956 1200 778 0 0 0 0 0 0 0 0 0 2 3 1 3 3 7 6 4 10 0 0 0
584 512 504 391 576 955 1238 1241 1215 1250 1235 887 1146 1111 902 655 680 571 502 170 37 0 0 0 0 0 0 0 0 0 0 0 0 1 3 6 3 5 0 6 0 3 3
554 458 479 202 182 305 284 205 372 499 816 697 545 656 497 458 168 97 0 0 0 0 0 0 0 0 0 0 0 0 0 0 0 1 6 10 7 4 1 5 16 30 22
592 349 230 288 64 223 239 27 60 70 27 36 43 16 147 149 65 0 0 0 0 0 0 0 0 0 0 0 0 0 0 0 0 0 25 9 15 19 3 18 63 58 18
468 167 130 51 148 198 101 40 35 37 133 150 134 108 6 5 0 0 0 0 0 0 0 0 0 0 0 0 0 0 0 0 0 1 10 10 5 15 17 20 54 59 33

GFSGL_con_mucape_045.txt.gz
CAPE
847 882 1011 981 1012 1143 994 1094 1594 1159 1319 1550 1862 1947 2063 2133 2249 2476 2396 2245 2552 2633 2466 2300 2389 2413 1975 1699 1371 1092 898 643 600 546 663 557 909 1102 819 631 647 738 525
869 968 975 964 1021 875 1264 997 1387 1669 1389 1620 1702 1908 2031 2060 2141 2333 2266 1998 2454 2522 2597 2608 2458 2148 2449 2451 2150 2041 1507 1351 886 1646 1193 747 977 1010 1202 1170 826 400 438
922 636 851 986 909 1311 1427 1385 1450 1605 1718 1325 1560 1775 1998 2002 2122 2237 2312 2378 2411 2398 2485 2695 2727 2619 2614 2278 2427 2238 2118 2023 1655 1281 1297 987 743 489 794 996 799 880 554
738 835 1135 1267 1343 1304 1647 1783 1341 1857 1816 1769 1764 1902 1849 1979 2062 2155 2268 2423 2495 2472 2561 2612 2709 2798 2855 2919 2779 2772 2652 2489 2451 1985 1695 1581 1574 1700 1122 854 848 802 661
1297 1210 1335 1479 1609 1765 1940 2011 1762 1741 1976 2018 1905 1743 1827 1801 1703 2128 2343 2521 2626 2672 2677 2737 2771 2584 2223 2409 2687 3236 2859 2604 2288 2041 1861 1730 1626 1567 1643 1333 1270 1246 1391
1509 1498 1623 1737 1855 1941 2108 2182 2040 1971 1953 2180 1835 2059 1924 1656 1059 1156 1739 2301 2742 2869 2824 2806 2815 2097 1927 1703 1662 1638 1947 3437 2902 2574 2433 2534 3593 2846 2462 2260 2057 1903 2029
1594 1780 1939 2022 2040 2139 2246 2401 2534 2298 2061 2213 1922 1983 2199 2480 1325 1063 1061 1927 2421 2699 2897 2954 2895 2495 2207 2657 2306 1977 1802 1814 1840 2891 3445 3551 3826 3350 3543 3310 3439 3065 2588
1726 1892 2128 2198 2173 2260 2320 2382 2575 2514 2608 2519 2198 2295 2304 2526 1589 1168 982 1411 2602 3004 3092 2898 3199 3240 2998 2579 2726 2738 2833 2951 2459 1846 2083 2685 3381 3487 4017 3513 3177 2895 2156
1837 1961 2215 2324 2357 2427 2402 2402 2197 2084 2151 2419 2321 2486 2460 2532 1536 1211 1132 1615 2093 2889 2997 2970 3002 3043 2510 2281 2591 2726 2966 3090 2497 2375 2322 2519 2553 2522 2543 2575 2591 2664 2423
2071 2133 2379 2531 2611 2690 2809 2824 2820 2466 2136 2003 2115 2396 2240 2773 2031 1367 1165 1601 2071 2022 2899 3132 2122 2049 2311 2165 2221 2600 3074 3148 3286 3570 3591 2968 2675 2875 2972 3054 2885 2795 2742
2078 2183 2717 2819 2899 3000 3114 3202 2839 2631 2832 2669 2494 2596 2474 2288 2423 1749 1432 1639 1986 2214 2294 2388 2550 2131 2233 2402 2643 2874 3192 3248 3203 3046 2990 3071 3151 3114 3307 3246 2912 2759 2665
3037 2941 3118 3159 2587 2569 3165 3028 2937 3163 3000 3135 3051 2973 2859 2858 2125 2002 2052 2184 2222 2498 2859 2960 3151 2699 2855 2974 2986 2881 2754 2713 2834 3153 3248 3331 3450 3203 3088 3037 2504 2622 2198
3202 3315 3159 3136 2929 3356 3169 3201 2857 3061 2919 3036 3047 3095 3130 3242 3417 2791 2503 2559 2595 2630 2782 2855 2895 3053 3168 3240 3334 3484 3599 3474 3491 3494 3569 3495 3070 2458 2382 2283 2030 1289 1104
2995 3261 3299 3268 3058 3269 2930 3001 3016 3088 3125 3180 3257 3318 3375 3540 3684 3662 2914 2726 2826 2926 2997 3084 3164 3223 3312 3424 3518 3488 3526 3324 3315 3044 2549 2240 2257 2295 2034 433 188 119 30
2231 2503 2646 2704 2815 3181 3287 2802 3191 3497 3150 3387 3518 3570 3638 3751 3722 3496 3647 3498 3101 3232 3330 3376 3452 3484 3514 3546 3538 3525 3538 3384 2504 2335 2085 2215 2077 191 24 0 0 0 0
3255 2691 2139 2068 2194 2730 2073 2208 2519 2798 2760 2918 2968 3282 3215 3302 3343 3234 3313 3575 3640 3671 3795 3787 3699 3554 3547 3564 3265 2888 2317 2419 1843 1883 1633 105 0 0 0 0 0 2 3
1902 2368 2694 2193 1838 2221 2204 2171 2187 2176 2354 2435 2708 2816 2932 3119 3183 3478 3547 3761 3590 3556 3701 3486 3454 3481 3352 2999 2593 2208 1831 1764 1434 11 5 3 0 0 0 3 6 4 3
1058 594 1830 2570 2142 2286 2105 2025 1964 2207 2047 2453 3070 3254 3481 3547 3472 3492 3446 3267 2940 3018 3203 3145 3087 3018 2355 2308 1608 1576 1355 75 9 8 10 9 6 4 8 14 13 0 0
1122 1356 2212 3303 3536 3377 2996 2684 2458 2596 2764 2752 3105 3541 3517 3368 2836 2443 2503 2255 2076 2049 2236 2310 2143 2264 1640 1530 1278 190 1 0 3 1 4 17 11 9 12 13 0 0 0
1469 1825 2047 3183 3180 3331 3275 3040 2917 2862 2803 2878 2689 2279 2263 2079 2030 1798 1750 1567 1282 1089 1534 1981 1637 1328 1067 580 18 0 4 2 2 3 1 7 14 31 30 23 21 0 0
920 1584 1522 1837 2888 3649 3157 3001 2871 2733 2451 2420 1879 1648 1419 1173 1428 1184 1297 964 1052 960 698 748 971 688 120 0 0 0 0 0 0 2 1 3 4 3 2 3 4 6 0
563 594 845 930 1366 2013 2537 2767 2670 2583 2457 2229 2313 1675 1519 1311 1396 1223 1357 1503 1265 886 814 587 601 677 0 0 0 0 0 0 0 0 0 0 0 1 3 2 3 5 3
564 561 630 571 502 891 1179 1308 1553 1717 1394 1434 1582 1308 1085 1168 1141 988 1099 779 906 934 589 326 80 1 0 0 0 0 0 0 0 0 0 0 3 4 2 6 1 4 6
617 624 448 415 304 524 799 856 876 810 627 646 592 691 736 704 818 746 541 328 195 24 0 0 0 0 0 0 0 0 0 0 0 0 0 0 0 3 6 1 7 5 36
75 439 517 275 179 67 365 313 256 269 248 275 258 82 65 174 76 206 162 2 9 0 0 0 0 0 0 0 0 0 0 0 0 0 0 0 0 0 7 11 4 11 14
9 8 169 370 65 73 68 260 162 37 49 16 6 6 4 4 19 47 8 10 8 0 0 0 0 0 0 0 0 0 0 0 0 0 0 0 0 5 11 7 8 23 18

GFSGL_con_mucape_048.txt.gz
CAPE
1469 1710 1711 1429 1377 1615 1517 1629 1792 1766 1660 1930 1414 1365 1792 2232 2401 2644 2476 2122 2714 2755 2605 2343 2578 2674 1996 1423 1332 1232 1200 1055 933 612 491 693 1503 1714 1532 1449 1214 1196 852
1862 2306 1683 1770 1762 1350 1712 1629 1883 1967 1939 2036 1862 1740 1707 1867 2348 2690 2608 2041 2510 2636 2691 2695 2678 2323 2769 2751 2047 2328 1991 1964 1148 2492 1981 1095 2070 2081 1699 1671 1490 976 790
1443 1257 1224 1330 1349 1827 2022 1901 2143 2003 2151 1929 1965 2068 2007 1796 2288 2594 2655 2556 2449 2590 2737 2765 2842 2967 3074 2592 2431 2124 2082 2377 2613 2321 2176 1597 1460 1613 2029 2682 2192 2210 1347
1163 1172 1775 1623 1701 1582 2437 2457 1906 2442 2265 2220 2153 2122 2178 1877 1826 2270 2471 2643 2527 2552 2817 2846 2944 3174 3408 3523 3478 3381 3228 3097 2942 2402 1955 1545 1268 1815 1677 1709 1801 1798 1758
2055 1288 1994 2458 2441 2509 2778 2746 2336 2708 2456 2427 2413 2252 2235 1948 1534 2124 2096 2195 2558 2696 2774 3030 3108 2950 2756 2993 3297 4363 4345 3412 2539 2047 1878 1868 1894 1993 2645 2259 2474 2493 2824
2548 2185 2482 3012 3033 3057 3239 3339 3164 2898 2840 2617 2481 2417 2348 1931 997 912 1204 1818 2223 2658 2889 3018 3155 2638 2522 2351 2263 2159 2089 3646 4571 3164 2557 2531 4485 3655 2892 2723 2528 2547 3115
2795 2727 2952 3216 3288 3357 3383 3586 3478 3420 3005 2869 2606 2773 3171 3090 1494 948 961 1681 1767 2441 3083 2842 2604 2021 2463 2908 2450 2322 2189 2019 1784 2531 3304 3594 4254 4132 4667 4500 4353 4176 4107
2997 3027 3188 3404 3253 3539 3631 3702 3858 3273 3453 3294 2894 3398 3600 3312 2066 1619 1108 1936 2324 2535 2769 2890 3409 3320 2891 2496 2865 2834 2926 3107 2848 2462 2675 2886 2862 3305 4272 4577 4500 3964 3568
2992 3226 3308 3405 3333 3362 3484 3638 3428 3243 3312 3209 2980 3532 3733 3773 2129 1896 1684 1993 2185 3004 2849 3112 3563 3633 2840 2398 2801 3047 3087 2996 1953 1829 1958 2182 2697 2791 2731 2700 2640 2858 2949
2909 3154 3460 3571 3572 3592 3673 3728 3798 3347 3204 2877 2995 3378 2876 3425 2700 2098 1729 2202 2474 2150 3332 3928 2278 2189 2531 2337 2831 2780 3063 2803 3066 3651 4551 3775 3422 3300 3291 3471 3060 3080 3138
2214 2318 3058 3437 3822 3680 4051 4039 3914 3382 3378 3686 3376 3697 3685 3245 3250 2421 2049 2349 2139 2083 2022 1939 2161 1888 1989 1895 1849 2813 3031 3280 3528 4127 4212 3974 3972 3834 3831 3628 3208 2866 2787
3111 3070 3566 3839 2883 2856 4149 3936 3781 3737 3843 3935 3691 3391 2969 3289 2457 2608 2365 2096 2014 2470 2403 2227 3333 2917 2649 2594 2605 2724 2840 2822 2728 3088 3105 2804 2939 3080 3302 3461 3202 3139 3032
3139 3654 3438 3445 3355 3975 3969 3998 3463 3803 3320 3245 3226 3163 2979 3037 3460 2588 2330 2167 1940 1857 2810 2986 3058 3232 3199 3019 3004 3101 3092 3090 3179 3121 3317 3834 3216 2933 2674 2973 3421 3350 2190
3305 3579 3326 3350 3280 3314 3331 3380 3261 3239 3238 3137 3208 3240 3223 3361 3642 3958 3077 2789 2529 2409 2478 2524 2716 2823 3019 3243 3137 3078 3334 3479 3461 3502 3202 2853 2525 2388 2484 1946 849 476 329
3164 3240 3366 3382 3293 3390 3290 2923 3181 3667 3055 3314 3323 3460 3571 3703 3823 3742 3941 4049 3322 2642 2781 3084 3132 3092 3212 3158 3078 3213 3461 3610 3224 3105 3160 2169 2411 1861 1792 350 309 273 150
2530 2735 2927 2939 3255 3293 3445 2494 2587 2804 2814 2922 2982 3288 3330 3394 3484 3519 3521 3717 3510 3174 3088 3295 3301 3269 3280 3416 3496 3480 3471 3173 2573 2005 2057 1797 1689 807 297 194 92 74 127
2848 3544 2583 2448 2803 2496 2503 2264 1929 2530 2753 2849 2980 3165 3482 3229 3393 3410 3208 3260 3328 3701 3695 3908 3595 4208 3993 3480 3397 3358 3069 2445 2163 1745 1585 1428 333 267 67 163 155 152 92
2219 2709 3895 2677 2199 2056 1158 1025 1040 1122 1993 2786 2621 2821 2757 2747 2939 3042 3473 3586 3966 3867 4101 3819 3643 3356 3283 3226 3010 2675 2404 1923 1553 1398 380 260 315 266 179 125 85 15 6
1659 1331 1540 1339 1084 815 374 131 121 145 2255 1765 2162 2648 2925 3346 3465 3437 3223 3354 2724 2080 1964 2106 2265 2412 2283 2437 2095 1766 1579 1424 1002 25 9 77 6 4 20 11 2 2 0
1096 1095 1414 1516 1392 1851 2068 1766 1904 2103 1665 1977 2678 2980 3382 3391 3324 2966 2577 2602 2449 2091 2006 1919 1815 1846 1924 1727 1655 1397 1053 506 14 0 3 9 18 22 16 18 5 7 6
1244 1493 1900 1993 1790 1833 2146 2065 2096 1825 2282 2546 2538 2632 3103 3198 3002 2268 1700 1655 1514 1670 1408 1000 982 747 991 1072 950 505 163 4 0 0 0 0 15 21 33 30 29 6 5
954 1129 1298 1504 1674 1794 1732 1665 1980 2449 2737 2656 2632 2480 2131 1899 1621 1391 1336 1236 1104 1063 1032 1056 771 628 637 475 412 457 168 0 0 0 0 0 0 0 8 25 45 41 37
177 342 644 687 694 1344 1733 1939 1808 2129 2281 2042 1812 1801 1766 1294 1119 1015 937 1147 1002 983 859 1113 799 641 621 225 58 1 0 0 0 0 0 0 0 0 0 0 10 33 31
17 225 307 247 92 153 408 765 1296 1639 1855 1174 1201 1728 1064 1016 577 754 801 721 687 317 335 453 236 65 0 0 0 0 0 0 0 0 0 0 0 0 0 0 1 6 5
1 53 95 338 183 61 45 274 646 853 960 698 631 569 541 534 424 319 233 194 199 249 36 69 0 0 0 0 0 0 0 0 0 0 0 0 0 0 0 0 3 12 5
10 0 0 0 55 18 9 4 155 265 380 207 132 208 120 79 19 0 0 0 0 0 7 0 0 0 0 0 0 0 0 0 0 0 0 0 0 0 0 0 0 5 3

GFSGL_con_mucape_051.txt.gz
CAPE
2347 2348 2005 1994 2142 2524 2859 3057 3072 2771 3157 2950 2433 2315 2322 2293 2936 3858 3620 2704 2769 3373 3074 2713 3094 3824 1961 1152 1176 1114 1063 1042 974 882 725 1361 2640 2980 2525 2321 1593 2213 1290
2041 2692 2326 2195 2141 2092 2457 2875 3291 3450 2907 3098 3081 2904 2621 2453 3352 3583 2795 2274 2751 2935 2947 3470 2614 2273 3862 3997 2491 3843 2216 2627 1399 2826 2038 1857 3103 3060 3237 3524 1858 1596 1614
1970 1926 2295 2079 2342 2095 2737 2721 3223 3449 3601 2322 3304 3539 3035 2723 3310 3596 3690 3175 2905 2934 3041 3461 3304 3565 4177 3011 3688 2414 1898 2674 2783 2511 2584 2336 2286 2055 2565 3579 3604 3139 2406
1278 1389 2189 2407 2444 2233 2556 3061 3126 3537 3717 3574 3761 3664 3241 2987 2868 2817 3280 3489 3450 2942 3319 3395 3527 3775 4255 4634 3870 4611 3837 3434 2768 2412 2352 2537 2348 2702 2362 2417 2748 2662 3025
1795 1665 2160 2647 2528 2676 2586 3199 3256 3579 3629 3930 3955 3740 3527 2637 1963 2839 3314 3494 3740 3385 3403 3418 3425 3333 2639 3528 3293 4160 4315 3825 2725 2554 2337 2148 2037 2230 3070 2902 2921 3304 3324
2258 1966 2160 2715 2756 2765 2826 3277 3643 3760 3838 3987 3941 3918 3638 2164 1302 1039 1977 2906 3415 3728 3867 3965 3932 2664 2365 2326 2476 2494 2503 3664 4845 3257 2616 2571 3791 3442 3129 2874 2979 2769 3318
2836 2491 2717 3146 3153 3179 3211 3544 3763 3865 4080 4223 4114 4035 3977 3793 1586 1016 836 1971 2823 3275 3679 4016 3471 2039 2768 3796 2859 2488 2363 2172 2031 3016 3520 3617 3720 4134 4461 4427 3601 4171 4581
2949 3471 3000 3496 3449 3616 3706 3741 3914 3955 4008 4174 4275 4288 4216 4080 2406 1699 1032 2303 2444 2890 3581 3813 4108 3833 3813 3427 3877 3741 3663 3818 3339 2585 2914 3371 3939 4248 4491 4156 4683 4643 4239
3554 3548 3480 3582 3743 3927 3968 3992 4080 4111 4138 4173 4311 4440 4423 4283 2510 2178 1741 2308 2358 3164 3359 3394 3507 3916 3559 2768 3352 3509 3755 3841 2080 1716 1707 1936 2343 2432 2797 3077 3173 3373 3413
3632 3526 3751 3725 3956 4004 4079 4207 4353 4268 4250 3707 4116 4362 4032 4562 3513 2395 2050 2290 2709 2433 3445 3840 2758 2574 2923 2828 3368 3923 3998 4105 3700 3557 3921 3297 3747 3725 3491 3258 3213 3198 3296
3374 3695 4015 3965 4135 4187 4331 4378 4417 4381 3702 4356 4199 4285 4371 4085 4397 2912 2405 3083 2542 2359 2197 1930 2236 2057 2157 1968 1935 3450 3554 3538 3062 3809 4093 4514 4108 4468 4545 4391 3969 3353 3347
3622 3712 4061 4235 3789 3599 4467 4458 4488 4489 4468 4624 4512 4312 3722 4499 3280 3291 2834 2418 2590 2904 2366 1332 1734 1239 1508 1896 2053 2396 2573 2467 2530 2888 3237 3677 3669 3506 3181 3418 3630 3072 3867
3907 3935 4135 4282 4269 4213 4405 4555 4065 4443 3358 3537 3437 3160 2877 3116 3685 2769 2779 2700 2501 2295 2491 1617 1906 2693 3056 3114 3143 3187 2975 2895 2968 3587 3562 3277 3382 3352 3078 2722 3172 4334 4019
4149 4092 4254 4222 4268 4206 3681 3740 3253 3162 3215 2913 2935 2661 2370 2267 2077 2842 2421 2372 2571 2381 2156 2069 2294 2678 3093 3346 3435 3322 3231 3342 3583 3161 3496 3458 3267 2840 2585 3233 2918 1695 693
4077 4137 3934 3618 3404 3952 3968 3116 3337 2418 2499 2920 2239 1834 1579 2063 1879 2177 3012 3334 2845 2426 2423 2753 2731 3044 3408 3827 3914 4204 4160 3138 3149 3395 3524 3293 2280 3006 3343 2542 1266 576 553
3696 3336 3481 3036 3404 3548 2749 2535 2491 2512 2490 2435 2401 2364 2836 2320 2547 2754 3310 3742 3721 3262 2603 3359 3646 3699 3661 3885 3854 3830 3225 3214 3346 3475 3149 2458 2458 1853 1561 1227 523 426 476
3343 4075 3341 2908 3269 3721 3442 2760 2621 2621 2601 2556 2666 2770 2750 3338 3205 3300 3380 3492 3636 3684 3582 3539 4026 3722 4047 4085 3142 3054 3539 3318 3289 2742 2088 1939 1543 1279 608 420 472 459 472
3347 2674 3304 3279 3445 3715 3669 3627 2910 2443 2268 2467 2589 2586 2380 2655 2716 2789 3031 3102 3264 3447 3254 3070 3081 3312 3212 3010 2966 2874 2696 2701 1992 1661 1652 1387 1202 497 519 502 399 332 177
3146 2988 3030 3434 3386 2891 2610 2422 1508 1685 1718 1675 1125 1357 1636 1907 2380 2579 2968 3414 2944 3190 3190 3511 3352 3253 3071 2256 2493 3004 2317 1580 1462 1582 1402 1130 234 148 142 71 20 1 2
2167 2121 1895 2002 1865 1021 1066 1205 792 550 425 481 232 335 1107 1515 2303 2588 2853 3111 2741 2706 1972 1809 1719 1343 1511 1578 1676 1752 1839 1631 1492 1196 833 384 32 16 13 54 21 24 24
895 1023 1721 1703 1568 1037 497 616 1476 1252 525 268 251 913 1357 1726 2300 2441 2638 2647 2099 2063 1889 1744 1609 1577 1630 1345 965 1034 1170 1088 906 546 239 36 0 2 5 22 18 30 28
644 841 1146 991 1280 1399 1478 855 496 464 434 702 1006 1297 1685 2167 2023 2343 2375 2400 1763 1630 1622 1567 1491 1283 884 772 503 432 418 430 280 223 191 49 0 0 0 0 8 18 29
556 944 1007 1347 1227 1310 937 965 1023 1055 1346 1237 1020 1924 2137 1935 2316 2135 2179 1750 1335 1313 1219 1060 988 939 935 972 700 554 460 291 51 0 0 0 0 0 0 0 0 6 25
29 315 619 880 1081 1075 1112 1197 1375 1320 1510 1531 1754 1741 1603 1749 1717 1494 1356 1135 1037 963 1018 981 752 701 410 328 246 160 1 0 0 0 0 0 0 0 0 0 0 0 0
4 39 138 61 64 153 314 968 989 1024 1063 1114 1390 1231 1271 1123 1016 1116 1003 1070 989 951 778 606 371 235 177 0 0 0 0 0 0 0 0 0 0 0 0 0 0 0 0
11 3 0 0 9 1 0 0 115 222 406 586 593 749 524 733 572 517 677 444 334 178 105 32 0 0 0 0 0 0 0 0 0 0 0 0 0 0 0 0 0 0 0

GFSGL_con_mucape_054.txt.gz
CAPE
2123 1659 1501 1263 1185 998 1587 538 2529 1910 3855 3283 3613 3248 2900 2952 3459 3681 3107 2973 3143 3321 3534 3680 3518 3346 3147 3015 2695 2170 2130 2489 2043 1838 2408 2035 3101 3138 2018 2130 2394 2002 1690
2188 1804 1581 1615 1224 1139 644 2176 1973 3313 2782 4287 3302 3819 3032 3009 3089 3202 3196 2062 2772 3186 3287 3293 3562 3174 3727 3468 3176 3351 3564 3935 3157 2737 2646 2240 2197 2416 3055 3409 2735 1747 1776
2277 1914 1863 1650 1748 1662 1189 1175 2358 2180 3048 2535 3637 3050 3246 2682 2857 3185 3198 2892 2872 3219 3109 3417 3319 3643 3812 3620 3710 2901 2557 2946 2849 2804 2679 3224 3131 2913 2532 3605 3365 2450 2094
1953 2027 1992 1752 1659 1390 1862 1282 2126 2709 2522 2796 2762 3212 3106 2704 2534 2972 3272 3160 3005 2811 3377 3002 3438 3533 3580 3933 3563 3637 3691 3591 3153 3120 2615 2481 2615 2630 3343 3045 3114 3240 2691
1682 1753 2001 2214 1902 1685 1705 1943 1549 2086 2545 2854 2844 3113 3108 2845 2330 2499 2735 3191 3169 3102 3035 3253 3267 3409 3062 3517 3563 3781 3702 3725 3423 3259 3015 2918 2483 3094 2755 2702 2894 3071 2512
1521 1664 1893 2166 2090 2106 1799 2045 2206 2128 2561 2852 3060 3067 3275 2767 2108 1556 2084 2401 3261 3140 3100 3110 3545 2606 2189 2216 2161 2467 2509 3453 3340 3733 3555 3077 2860 2958 2943 2475 2601 2624 2582
1803 1791 1901 2309 2451 2165 2374 1919 2436 2329 2526 2847 3080 3255 3273 3198 2049 1452 1367 2043 2465 3005 3401 3275 3293 2712 2507 3179 2177 1923 2066 2201 2252 2464 2583 2558 2543 2652 3025 3304 3219 3254 3471
1977 2279 2047 2384 2385 2499 2294 2424 2131 2523 2550 2877 3142 3273 3424 3349 2652 1777 1249 1335 2131 2715 2895 2872 3191 3133 3092 3461 3412 3329 2709 2695 2532 2376 2407 2744 2824 3215 3561 3506 3473 3453 3291
2372 2372 2304 2224 2420 2405 2376 2355 2335 2675 2848 2888 3135 3417 3450 3497 2968 2341 1739 1208 1639 1947 2073 2275 3091 3549 2941 2449 2196 2513 2685 2971 2957 2937 2989 3128 2916 2862 2954 3111 2834 3140 3201
2375 2543 2829 2210 2706 2564 2542 2575 2650 2837 2980 3009 3127 3307 3348 3558 3270 2749 2237 1820 1824 1910 2306 2571 2349 1990 2150 2338 2729 3264 3071 3006 3181 3247 3190 3183 3483 3702 3866 3890 3831 3589 3212
2493 2780 2977 2880 2731 3071 3139 3107 3104 3238 3218 3306 3238 3357 3659 3534 3704 3111 2580 2170 2210 2327 2260 2315 2608 2444 2269 2145 2202 2584 2780 3037 3341 3259 2976 3361 3974 4130 4366 3683 3427 3395 3268
3323 2850 3679 3587 2973 3346 3522 3649 3570 3543 3678 3616 3723 3757 3767 4011 3322 3480 3137 2480 2373 2561 2478 2463 2280 2037 2393 2266 2093 1886 1870 2147 2487 2547 2664 2877 3278 4113 3679 3264 3396 3115 3302
3794 3215 3605 3701 3731 3423 3774 3781 3831 3852 3758 3636 3715 3632 3672 3660 3829 3195 3139 3192 2846 2393 2696 2419 1962 1925 1927 1827 1435 1590 2015 2618 3045 2928 3039 3245 3828 3141 3185 3111 3287 2942 3000
3567 3681 3589 3948 3792 3537 3840 3786 3880 3805 3834 3734 3391 3566 3436 3526 3561 3803 3143 2910 2944 2774 2611 2462 2334 1990 2423 2995 3173 3144 3232 3223 3178 3333 3481 3223 3049 3308 3216 2465 2545 3045 2344
3926 3705 3573 3695 3430 3814 3499 3727 3797 3668 3536 3514 3361 3147 3445 3215 2911 2657 2909 2612 2578 2577 2505 2469 2571 2453 2404 3208 3743 3713 3404 3361 3287 3205 3095 3013 3242 3263 2262 2772 3083 2314 1343
3749 3693 3488 3568 3615 3744 3301 2971 3177 3300 2819 2985 2882 2927 2421 2272 1991 1826 1525 2403 2057 2034 2627 2720 2740 2771 2752 3031 3480 3611 3812 3629 3523 3477 3377 3047 2856 2360 2506 2187 1424 1074 872
3896 3632 3519 3248 3436 3553 3159 2818 2878 2893 2743 2253 2495 2446 2505 2614 2630 2473 2241 1484 2473 3166 3139 2666 2965 3511 3969 3434 3254 3077 2881 3067 2629 2803 2675 2549 2269 1675 1836 1152 935 1163 1026
3261 2973 3418 3033 3066 3411 3110 2625 2665 2677 2557 2309 2103 2058 2205 2563 2803 2980 3044 3006 2622 2840 2690 3294 3292 3300 3290 3345 3448 2996 2793 2741 2323 1768 1676 1626 1381 1180 1152 989 655 456 285
2392 2132 2510 3062 2904 3312 3299 3026 2948 2657 2724 2321 2205 2141 2282 2332 2283 2363 2355 2696 2691 2720 2704 2988 2940 2794 2575 2570 2682 2723 2083 1788 1778 1933 1074 893 1112 1259 918 352 194 120 24
1675 1877 2239 2403 2414 2706 2887 2690 2657 2344 2109 1977 1562 1441 1542 1527 1414 1746 1618 1282 1215 1540 1307 1402 1918 1820 2054 1811 1798 1498 1436 1570 1583 1513 1459 1293 1116 807 443 160 15 12 9
1166 1352 1651 1960 1862 1833 1835 2244 1778 1189 1311 1216 804 693 513 700 937 1048 393 77 53 0 157 150 182 564 643 850 955 1135 1224 1133 985 975 905 785 456 261 214 169 10 2 6
985 930 1134 1555 1620 1761 1048 887 630 434 91 50 4 92 390 781 792 690 163 54 8 17 266 571 656 908 966 980 967 877 726 505 345 352 450 406 262 15 0 0 0 0 0
330 625 747 858 818 490 937 988 660 181 65 39 120 211 311 422 381 400 440 463 491 853 1234 686 790 778 751 829 909 805 707 501 412 563 97 4 0 0 0 0 0 0 0
35 91 311 409 554 645 659 610 274 171 139 150 299 459 315 346 381 437 701 818 904 924 1187 675 776 831 664 672 638 698 327 210 136 70 10 0 0 0 0 0 0 0 0
0 0 22 72 146 63 169 333 576 695 621 477 816 837 705 939 1094 1070 820 1030 1178 1056 749 618 491 599 405 157 94 82 47 9 0 0 0 0 0 0 0 0 0 0 0
0 0 0 4 12 1 71 143 318 343 638 584 565 704 671 852 887 663 500 790 701 646 540 396 310 249 165 2 0 0 0 0 0 0 0 0 0 0 0 0 0 0 0

GFSGL_con_mucape_057.txt.gz
CAPE
547 825 325 124 741 816 271 61 528 430 1785 1936 1946 2164 2178 2077 1837 1669 1605 1838 1439 1721 1770 1736 1803 1680 1533 1768 2424 2070 1564 1069 983 891 1466 1626 1372 1275 1297 1232 1401 1396 1472
734 639 829 263 236 604 561 155 0 613 667 1979 2009 1864 1847 1896 2083 2013 1919 1823 1702 1868 2081 1771 1863 2161 1977 1653 2022 1897 2019 2146 2011 1375 1196 1214 2167 2405 2307 2197 2176 2040 1930
1073 719 878 728 155 394 187 473 312 735 668 1455 1963 1859 1812 1654 1624 1936 1881 1880 1802 1852 1973 2116 2104 1685 2358 2485 2238 2205 2450 2219 2887 2528 2417 2605 2582 2244 2078 2137 2280 2504 2560
1162 1203 924 797 689 93 138 12 865 439 1975 1553 2134 1676 1818 1513 1767 1773 1982 2057 2037 1795 2180 2045 2015 2305 2095 2276 2609 2583 2341 2370 2161 2139 2225 2258 2512 2560 2458 2334 2481 2341 2276
1230 1332 1204 950 697 670 210 176 0 1199 554 1620 1625 2259 1769 1954 1549 1653 2147 2133 2104 2115 1941 1967 2335 2164 2446 2521 2596 2684 2802 2868 2798 2808 2777 3059 3162 2757 2409 2443 2222 1651 2495
1290 1440 1375 1155 945 798 807 866 488 107 1541 1014 1255 1719 2268 2048 1972 1641 1584 2290 2354 2221 2258 2140 2222 2418 2321 2468 2654 2879 2947 3016 3165 3199 2860 2738 2442 2202 2072 2061 1940 2605 2585
875 1383 1420 1300 1230 988 893 780 1091 782 476 1741 1654 1747 1815 2157 2133 2051 1680 1483 1655 2298 2352 2269 2279 2226 2346 2401 2279 2139 1994 2010 2143 2081 2031 1994 1968 1966 2355 2228 2377 2752 2685
987 1094 1382 1378 1347 1348 1141 1012 954 1119 847 830 1449 1857 1930 1983 2375 2165 1986 1586 1437 1498 2421 2495 2302 2260 2372 2355 2184 2264 2241 2101 1982 1926 2044 2287 2522 2697 2505 2337 2612 2893 3061
1083 1086 1326 1318 1392 1507 1350 1229 1013 1209 1337 1128 1471 1805 2063 2143 2349 2519 2184 1719 1358 1410 1613 1871 2190 2423 2458 2418 2187 2367 2563 2953 3167 3098 2999 2745 2500 2542 2434 2540 3081 3319 3523
1446 1324 1265 1265 1511 1516 1474 1275 1449 1090 1152 1557 1388 1721 2117 2177 2367 2509 2467 2135 1571 1235 1195 1565 2034 2230 2466 2592 2447 2377 2157 1824 1790 2068 2274 2417 2574 2808 2936 3250 3351 3433 3318
1335 1505 1656 1350 1507 1570 1621 1502 1406 1525 1324 1378 1668 1681 2044 2371 2383 2622 2659 2373 1774 1257 1201 1077 1361 1523 1485 1383 1359 1394 1975 2272 2323 2566 2801 2989 2731 2783 3110 3284 3548 3197 3020
2069 1881 1675 1771 1485 1713 1599 1648 1536 1506 1554 1562 1816 1938 1958 2325 2568 2680 2744 2713 2252 1743 1300 1316 1235 1542 1727 1677 1631 1657 1661 1583 1965 2362 2430 2344 2714 2448 2850 3360 3372 2993 3018
2453 2348 2259 2325 1790 1853 1752 1711 1752 1777 1781 1938 1989 2113 2166 2281 2614 2732 2791 2855 2656 2414 1919 1572 1751 1876 1903 1858 1790 2057 2046 1906 1753 1740 1843 2635 2760 2714 3170 3155 3077 3058 2636
2504 2916 2428 2570 2356 1896 2290 2054 2170 2215 2224 2138 2282 2279 2388 2419 2647 2959 3023 2927 3005 2831 2497 2223 1999 2000 1884 1730 2255 1928 1383 1283 1428 1957 2756 2911 2960 3171 2912 2961 2413 2105 2330
2237 2946 2750 2479 2715 2398 2452 2592 2521 2538 2499 2444 2414 2457 2423 2633 2525 2792 3051 3114 3074 2880 2910 2785 2585 2363 2070 2017 2090 2656 2764 2544 2827 3020 2945 3382 3536 3075 2843 2192 2043 2202 1886
1586 2518 2923 2445 2875 2711 2535 2683 2888 2850 2858 2695 2622 2624 2636 2488 2714 2645 2779 3058 2974 2895 2724 2614 2513 2451 2363 2235 2089 2672 2766 3048 3121 3105 3104 3111 2687 2880 1932 1931 1919 1215 991
2019 2417 2924 2573 2651 2788 2693 2457 2619 2918 2895 2913 2873 2831 2761 2712 2483 2771 2793 2600 3118 2955 2779 2328 2315 2283 2716 2376 2109 2135 3315 3513 3487 3351 2831 2439 2287 1869 1391 994 826 902 780
2268 3094 2992 2731 2527 2802 2836 2658 2345 2305 2533 2840 2808 2965 2799 2425 2619 2368 2306 1912 1759 2115 2247 1965 2266 2613 2516 2650 2918 2964 2850 2857 2823 2450 2368 2213 1671 1309 934 794 971 919 619
2072 2250 2472 2721 2613 2724 2827 2715 2465 2128 2444 2779 2685 2546 2456 2389 2400 2588 2799 2323 1824 1819 1929 2044 2128 1683 1225 1314 1362 1401 1724 1709 2181 2285 1845 1598 1283 986 815 860 863 787 361
832 1481 1903 2222 2308 2316 2488 2533 2446 2283 2338 2599 2702 2492 2002 2026 2105 2154 2103 2038 1977 2052 1760 1515 1091 754 461 247 158 237 678 1106 1426 1178 1013 1186 1094 1164 1098 1009 889 370 127
786 892 1389 1978 1918 1830 1705 1901 2081 2297 2180 2301 2292 2188 1566 1683 1664 1681 1582 1432 1425 1395 1239 989 876 583 385 228 27 4 32 600 825 881 1249 1067 808 811 560 305 195 19 0
802 810 968 1090 1126 1354 1355 1567 1573 1592 1714 1699 1559 1216 900 655 816 986 1041 1013 754 613 601 612 340 71 37 2 0 0 0 58 516 565 416 300 269 309 284 76 0 0 0
591 457 764 742 603 806 978 1266 1116 1119 219 27 483 645 502 732 595 610 651 432 268 167 55 8 4 44 175 139 71 69 121 256 339 464 424 257 152 154 343 198 0 0 0
409 389 468 446 462 658 713 765 830 667 313 25 41 239 48 251 270 398 301 251 172 126 87 115 171 244 491 533 433 327 375 471 306 245 220 140 88 61 4 0 0 0 0
69 154 208 83 194 275 414 347 345 168 144 104 48 3 14 119 123 115 113 152 317 335 301 345 527 573 502 418 408 328 223 137 120 35 0 0 0 0 0 0 0 0 0
4 46 46 2 6 15 36 95 46 59 114 207 116 89 43 163 343 279 488 380 268 214 312 321 286 182 184 305 231 131 77 59 15 0 0 0 0 0 0 0 0 0 0

GFSGL_con_mucape_060.txt.gz
CAPE
476 215 59 36 300 843 154 65 414 860 1129 1152 1363 1341 1168 1293 1319 1465 1191 923 1217 1027 1320 1254 1328 1584 1560 1275 1461 1607 1722 1604 1008 793 759 1392 1238 1254 2265 2214 1991 1967 2009
549 479 241 26 64 544 764 62 35 293 651 1065 1481 1374 1253 1375 1195 1109 1407 1375 1211 1333 1155 1349 1621 1781 1898 1705 1500 1518 1368 1461 1651 1377 1602 2160 2166 2240 1988 1900 2332 2174 2313
275 479 463 213 12 103 486 638 210 23 218 1542 1652 1697 1420 1412 1550 1438 1346 1348 1330 1431 1340 1402 1545 1483 1608 2077 2044 1966 1995 2367 2640 2695 2454 2119 1964 1884 2460 2572 2073 2048 1968
275 401 477 582 217 5 115 350 465 341 1 394 1703 1643 1521 1643 1738 1675 1660 1540 1433 1392 1394 1470 1747 1744 1653 1463 1879 2050 2147 2188 2009 1892 1810 1974 2365 2569 2963 2603 2585 1872 1494
543 549 415 586 643 335 102 116 132 317 281 137 888 1616 1524 1336 1222 1160 1245 1391 1409 1372 1481 1554 1676 1889 2090 1842 2127 2071 2139 2183 2220 2363 2527 2657 3001 3199 3042 2474 1908 1720 1951
831 814 792 524 703 698 533 345 56 0 368 336 1050 1239 1402 1525 1330 1338 1256 1348 1436 1491 1502 1650 1688 1647 1875 2127 2133 2221 2309 2349 2357 2506 2606 2878 2902 2423 1955 1811 2112 2189 2092
936 968 1032 1015 791 727 703 646 522 268 0 527 445 1291 1536 1481 1531 1396 1282 1238 1497 1633 1701 1786 1802 1830 1938 1933 2174 2310 2287 2380 2611 2642 2561 2426 2172 1964 2000 2371 2480 2218 2199
700 1137 1276 1255 1182 1046 920 869 776 641 428 13 718 637 966 1513 1838 1725 1598 1484 1340 1310 1723 2003 2068 2006 1999 2029 1991 1975 2049 2109 2122 2053 1991 1966 1944 2342 2831 2719 2391 2351 2646
668 990 1222 1509 1386 1303 1209 1089 966 833 723 531 295 1247 1110 1036 1310 1737 1837 1775 1664 1557 1375 1327 1695 1756 1913 2059 2060 2063 2148 2160 2232 2679 2860 2957 3041 2804 2495 2419 2408 2419 2727
744 1025 1087 1001 1456 1405 1310 1253 1118 1020 868 856 633 455 1191 1546 1598 1590 1822 1600 1634 1719 1638 1423 1386 1706 1936 2174 2214 2135 1989 1898 1757 1744 1719 1701 2078 2109 2299 2798 2720 2675 2963
117 725 1128 1167 1000 1385 1350 1287 1235 1128 1036 976 987 843 902 1173 1349 1664 1743 1723 1496 1349 1511 1328 1213 1225 1501 1603 1661 1783 1777 1742 1807 2028 2272 2287 2231 2613 2816 2527 2593 2609 3047
36 70 321 687 801 1164 1338 1347 1297 1231 1158 1053 1113 1269 1109 1256 1629 1718 1884 1992 1732 1582 1331 1212 1119 995 967 1268 1596 1582 1319 1174 1151 1175 1438 1707 2100 2315 2501 2518 2873 3290 3159
423 1006 585 1178 1347 1202 1273 1285 1325 1252 1344 1250 1105 1082 1373 1419 1541 1856 1931 2022 2158 2026 1652 1470 1292 1154 1063 979 1074 1100 1132 1263 1529 1609 1627 1588 1640 1761 2590 2720 3179 2961 3268
146 382 1342 1651 1650 1473 1304 1298 1365 1335 1295 1351 1362 1291 1341 1547 1670 1842 2042 2251 2308 2234 2243 2115 1941 1746 1622 1502 1504 1651 1688 1491 1125 941 1043 1267 1545 2076 2607 2881 2883 2649 2083
407 591 1136 1813 1797 1687 1637 1504 1510 1434 1400 1383 1372 1432 1506 1624 1719 1927 2080 2166 2375 2456 2460 2122 2094 2146 2114 1989 1866 1738 1693 1677 1605 1423 1242 1536 2490 2591 2811 2822 2332 1862 1922
613 713 947 1997 2063 2094 1913 1913 1804 1657 1621 1654 1491 1608 1720 1824 1960 2090 2185 2466 2546 2564 2338 2048 1903 1905 1997 2147 2213 2185 2042 1899 1900 2038 2336 2705 2771 2902 2863 2396 2194 1816 1377
387 822 1116 1505 2378 2494 2426 2127 2131 2015 1978 1935 1884 1862 2006 2114 2123 2247 2398 2394 2809 2790 2724 2573 2404 2279 2129 2105 2105 2249 2144 2064 1992 1953 2439 2640 2631 2658 2347 1996 1429 1002 571
76 430 1155 1682 2324 2574 2549 2569 2361 2217 2366 2439 2481 2367 2377 2416 2519 2536 2469 2639 2520 2480 2607 2803 2619 2326 2383 2182 2007 2082 1967 1914 2246 2102 1503 1517 1629 1867 1998 1701 1138 649 599
286 620 936 1629 2550 2857 2674 2712 2595 2517 2414 2538 2741 2847 2887 2863 2826 2839 2730 2551 2340 2380 2488 2414 2278 2229 2211 2038 2042 2191 2290 1950 1360 686 276 361 1032 1502 1072 1097 942 625 634
161 404 683 976 1741 2722 2710 2695 2641 2619 2502 2338 2357 2676 2644 2325 2967 3013 2512 2130 2366 1962 1873 1657 1797 1990 1893 1758 1558 1056 880 701 283 58 27 335 486 670 842 806 1078 1054 845
181 364 607 662 1322 1953 2150 1853 1874 2177 2236 2033 1901 2119 2387 2462 2474 2247 1857 1850 1920 1855 1662 1476 1586 1648 1356 1020 617 364 263 215 130 65 82 250 449 468 513 568 640 635 211
449 650 645 700 1206 1438 1837 2035 1583 1580 1450 1674 1844 1709 1838 2486 2394 1809 1417 1386 1515 1342 1417 1501 1317 946 923 639 419 294 101 37 68 80 112 125 209 313 348 202 205 131 60
448 511 518 501 807 925 1291 1548 1614 1381 1348 1429 1501 1443 1229 1282 1677 932 771 615 655 654 817 972 902 601 394 283 195 30 9 0 0 1 52 89 178 251 277 161 58 17 18
474 451 826 936 969 1021 1045 990 1037 1029 913 1076 1129 1033 1010 910 367 223 287 331 379 352 398 298 203 155 31 2 0 8 42 65 40 43 121 195 174 146 93 22 1 0 0
496 705 668 459 395 529 658 678 557 570 765 576 484 722 515 223 50 17 101 91 48 54 32 33 11 7 2 11 72 229 182 149 177 167 157 73 127 33 1 0 0 0 0
226 401 449 369 380 346 304 180 96 142 229 10 367 479 479 130 27 38 62 67 77 104 114 192 158 151 226 96 110 183 141 144 175 98 43 73 29 0 0 0 0 0 0

GFSGL_con_mucape_063.txt.gz
CAPE
131 114 61 73 305 307 98 73 215 969 1124 1063 1097 1367 1316 1293 1254 1237 1100 953 982 996 1160 1455 1286 1258 1491 1523 1251 1375 1460 1582 1412 1258 1223 1311 1710 1945 1797 1728 2507 2088 2070
230 149 73 18 7 300 342 237 86 51 477 988 1092 1117 1257 1359 1249 1160 1305 1274 1109 1071 1225 1119 1274 1238 1509 1841 1646 1505 1532 1210 1327 1303 1473 2161 2143 1752 1653 2347 2548 2143 2357
255 230 160 14 0 9 189 373 301 63 27 307 621 1032 1198 1188 1240 1188 1282 1239 1386 1359 1272 1522 1322 1252 1706 1669 1824 1999 1868 1861 2110 2344 2222 1855 1632 1883 2338 2675 2783 2484 1461
195 319 241 179 85 28 0 115 337 329 133 26 873 1218 1266 1178 1221 1255 1214 1208 1298 1388 1411 1437 1434 1494 1651 1638 1402 1714 1947 1819 1884 1858 1849 1916 2133 2303 2654 2713 2288 1686 1936
227 234 341 305 244 142 27 0 58 191 212 184 115 1164 1495 1550 1428 1314 1353 1414 1420 1535 1576 1505 1456 1515 1671 1860 1778 1676 1701 1917 1957 1973 2034 2092 2160 2225 2367 2284 1803 1992 2255
333 365 328 341 339 297 211 88 52 6 72 102 117 98 1000 1314 1492 1416 1399 1501 1542 1476 1379 1320 1357 1502 1587 1670 1886 2176 2239 2172 2049 2091 2180 2182 2165 2150 2083 1850 1766 2291 2464
351 422 413 407 419 469 464 405 255 169 119 24 27 154 215 737 1225 1347 1264 1217 1079 1071 1149 1222 1290 1334 1549 1666 1667 1689 1867 2128 2261 2283 2325 2344 2279 2131 1871 1903 2452 2581 2074
610 526 535 536 494 516 558 579 562 453 341 274 210 63 389 541 785 1199 1308 1353 1200 1155 1182 1260 1321 1339 1585 1800 1856 1887 1900 1833 1783 1790 1892 1976 2077 2318 2273 2673 2611 2041 2101
171 399 768 756 743 731 721 742 724 700 636 579 500 385 285 260 811 1140 1254 1286 1213 1130 1145 1205 1377 1514 1591 1757 1879 1843 1874 1984 1926 1924 2020 1950 2131 2346 2406 2287 1981 2011 2342
140 185 362 1017 993 987 987 972 931 897 922 893 823 663 564 431 256 893 1346 1239 1289 1314 1320 1266 1246 1325 1436 1506 1525 1454 1486 1720 1801 1646 1602 1593 1516 1689 2065 1996 2018 2535 2633
538 226 495 599 1248 1367 1324 1216 1188 1250 1141 1070 1041 869 743 589 583 546 723 879 860 877 880 884 966 1101 1342 1461 1474 1442 1478 1488 1403 1380 1466 1525 1640 1884 1923 2004 2578 2507 2338
519 541 264 419 704 962 991 1300 1196 1259 1104 1211 1144 1047 901 775 673 888 1149 1152 969 958 929 835 765 907 961 1066 1152 1273 1406 1420 1412 1537 1691 1396 1054 1104 1268 1703 2036 2286 2712
196 132 211 498 739 635 668 711 1261 1245 1230 1173 1206 1163 1004 898 861 825 795 1047 1342 1308 1085 1103 1159 1066 906 917 964 986 952 976 1189 1360 1164 1000 1283 1408 1350 1482 1748 2381 2852
119 84 35 53 403 1106 1189 1212 1166 1244 1284 1234 1208 1201 1077 970 1078 1039 1002 1204 1231 1260 1384 1463 1499 1471 1445 1388 1348 1363 1283 1199 1074 1039 1283 1563 1172 917 1112 1461 2002 2619 2672
0 49 49 104 252 1074 1368 1468 1245 1257 1271 1286 1259 1262 1214 1075 1010 1195 1261 1262 1331 1454 1550 1563 1569 1620 1753 1798 1796 1795 1765 1679 1487 1553 1518 1420 1182 1013 1486 2119 2501 2740 2400
0 28 29 20 142 330 1375 1574 1378 1377 1395 1445 1461 1375 1310 1198 1131 1138 1364 1422 1442 1483 1499 1557 1394 1340 1342 1427 1558 1691 1971 1963 1840 1720 1642 1553 1621 1757 2168 2273 2380 2436 1887
11 0 0 15 15 158 620 1750 1688 1366 1467 1454 1494 1559 1522 1370 1293 1283 1376 1520 1654 1833 1938 1967 1890 1649 1270 1139 1305 1469 1635 1744 2014 2093 2031 1936 1789 1698 2419 1861 1919 1951 1727
0 0 3 0 0 3 357 1334 1932 1789 1528 1879 1682 1689 1696 1602 1611 1624 1632 1578 1851 2014 2140 2263 2280 2210 2120 2014 2073 2089 2016 1939 2028 2089 2061 1981 1743 1957 1394 1255 1296 1417 1174
0 0 0 0 0 69 351 1095 2052 2305 2067 2279 2201 1955 1984 1950 1939 1956 1819 1722 1910 2313 2362 2420 2194 2078 2264 2436 2577 2205 2240 2118 1995 1791 1953 1678 1722 956 922 880 939 791 721
0 0 0 0 0 13 449 894 1772 2482 2582 2463 2381 2310 2220 2183 2198 2220 2149 2147 2078 2378 2536 2434 2380 2291 1980 1985 2072 1899 1881 1973 1834 1592 1600 1373 628 330 307 383 390 435 511
0 0 0 0 0 0 264 886 1679 2349 2633 2623 2547 2546 2507 2377 2204 2041 2225 2276 2249 2294 2406 2292 2159 2066 1748 1632 1629 1418 1284 1285 1362 1499 1200 737 353 92 134 275 282 280 264
0 0 0 0 2 171 395 902 1416 2030 2412 2324 2325 2379 2208 2059 1787 1799 2206 2436 2091 1953 1624 1551 1796 1414 1239 1055 1158 1222 1123 725 399 248 123 92 51 135 226 205 179 155 154
0 0 0 6 345 489 568 647 1134 1578 1914 1918 1777 1691 1340 1536 1538 1388 1655 2021 1813 1724 1261 1063 1030 923 880 719 607 481 414 308 223 104 39 62 116 145 114 69 67 55 61
0 2 4 268 319 325 347 761 856 1075 1512 1863 1915 1683 1301 1256 1419 1347 1210 1590 1545 954 565 479 536 593 474 286 373 373 310 189 47 4 2 8 27 44 76 106 95 61 43
7 168 251 286 271 258 898 1216 1115 1082 972 1257 1456 1535 1283 1178 1046 1031 1098 807 1022 668 264 270 367 394 369 295 205 95 28 17 3 3 12 46 46 75 118 48 64 50 34
197 258 490 420 433 379 768 940 768 480 673 755 1034 1024 853 984 911 577 663 696 618 191 170 162 171 132 36 20 12 0 7 41 133 110 79 66 100 86 68 46 29 0 0

GFSGL_con_mucape_066.txt.gz
CAPE
91 85 52 37 0 0 0 110 210 325 494 637 981 953 899 883 1069 1085 815 828 789 837 712 1159 1295 1103 1129 1337 1370 1375 1246 1350 1427 1423 1274 1404 1973 2040 2297 2121 2496 2330 2326
174 131 86 61 36 0 0 0 8 150 462 906 990 1005 966 1019 1004 1093 1085 1146 883 908 1071 993 1175 1164 1242 1339 1733 1579 1463 1536 1339 1552 1703 2010 1925 1977 1936 2344 2542 2246 2013
161 229 154 71 0 108 60 2 0 4 40 100 540 790 1037 1036 1050 1114 1192 1267 1225 1046 1053 1105 1231 1199 1531 1557 1648 1545 1834 1889 1807 1772 2111 1768 1739 1848 2165 2329 2295 2295 1862
141 207 218 158 118 16 17 52 13 0 0 38 233 549 895 976 1065 1147 1075 1125 1201 1215 1233 1252 1372 1374 1457 1590 1459 1636 1747 1839 1807 1791 1737 1762 1861 2057 1979 2160 2490 2011 1878
186 235 219 196 149 92 46 2 32 0 0 0 10 496 947 1075 974 1165 1220 1139 1110 1146 1244 1223 1229 1367 1336 1431 1701 1911 1672 1750 1788 1910 1946 1868 2045 2223 2421 2192 1930 1771 2153
134 149 269 249 197 96 111 78 28 22 0 0 0 71 594 927 1125 1213 1293 1320 1309 1311 1318 1265 1376 1333 1295 1255 1372 1485 1669 2138 2257 2082 2261 2183 2530 2083 2131 1931 1933 1935 2333
107 139 174 301 289 277 188 146 148 101 24 8 0 0 163 481 588 1062 1198 1243 1257 1296 1374 1383 1191 1130 1030 1447 1217 1312 1397 1409 1518 2217 2287 2444 2495 2452 1967 1987 2215 2322 2284
62 248 185 245 275 335 310 273 278 269 214 149 82 44 2 73 207 499 845 845 1118 1081 1090 1142 1199 1352 1317 1372 1498 1681 1756 1694 1569 1635 1561 1893 2242 2332 1832 1954 1980 1915 1771
108 156 502 339 435 411 389 461 465 451 438 384 332 246 186 157 48 142 269 382 682 983 995 1115 1236 1325 1057 1064 1475 1732 1843 1834 1506 1507 1624 1717 1696 1741 1748 1624 1464 1659 2113
280 333 107 404 655 671 648 592 562 588 630 621 596 604 565 512 440 379 241 189 284 480 861 953 884 1055 1038 1104 1162 1619 1667 1682 1708 1617 1212 1364 1379 1329 1283 1251 1505 1859 2326
214 184 321 79 271 850 840 782 788 825 793 791 775 845 912 870 798 687 605 427 358 309 485 757 1037 928 1043 1066 1041 1359 1363 1495 1394 1298 1539 1297 1172 1194 1457 1303 1415 1530 2245
9 77 112 117 126 220 991 1100 942 970 984 1108 945 934 1071 1075 991 907 766 584 403 450 428 602 744 582 622 667 706 759 885 1061 1158 1232 1234 1261 1428 1623 1452 1487 1652 1187 1801
0 0 0 36 110 217 349 819 1436 1351 1176 1072 986 915 1009 1075 1075 1039 945 771 529 418 590 414 412 553 593 584 553 598 643 676 755 801 816 889 1106 1158 1171 1199 1488 1772 1684
12 0 0 0 1 47 375 570 469 865 1045 1022 905 873 884 944 1018 1055 1003 883 764 617 573 606 751 833 837 840 890 961 920 845 857 904 930 885 838 766 1012 1215 1362 1931 2040
0 0 0 3 5 160 222 620 1474 869 770 1166 1136 1105 1024 992 1048 1090 1082 1008 891 834 743 698 783 868 875 979 1117 1261 1272 1262 1277 1329 1368 1314 1215 1177 1295 1146 1583 2170 2280
0 0 0 0 0 5 13 74 676 1383 1372 1226 1107 1167 1242 1251 1261 1237 1194 1067 951 933 939 946 909 817 1016 929 936 1159 869 1007 1180 1395 1548 1607 1632 1426 1376 1352 1576 1684 1959
1 0 0 0 0 0 0 14 69 511 1345 1333 1209 1180 1242 1224 1265 1268 1312 1170 1042 1066 1163 1193 1210 1140 1019 1460 1037 1062 1293 882 769 889 1115 1481 1773 1725 1722 1578 1364 1583 2107
2 0 0 0 0 0 2 6 53 504 1143 1685 1496 1284 1292 1346 1424 1325 1346 1246 1195 1248 1317 1433 1603 1607 1586 1562 1715 1212 1159 1206 960 1061 1269 1524 1660 1411 1596 1646 1699 1498 2090
2 0 0 0 0 0 4 3 5 41 303 1379 1827 1771 1474 1636 1856 1662 1480 1368 1304 1420 1574 1489 1488 1775 1724 1920 2420 1906 1607 1710 1777 1727 1600 1666 1750 1755 1724 1557 1706 1488 1468
2 3 0 0 0 0 0 0 1 12 837 1070 1759 1887 1936 1708 1776 1904 1721 1552 1551 1683 1674 1621 1527 1547 2026 1898 2190 2015 1739 1844 1922 1719 1690 1579 1460 1345 1423 1529 1455 1030 691
1 0 0 0 0 0 0 0 0 5 160 967 1407 2230 2034 1987 1971 1977 2096 2071 1883 1909 1913 1937 1838 1758 1803 1846 2102 2352 2378 1643 1531 1341 1220 1090 997 948 929 778 317 165 206
0 0 0 0 0 0 0 0 2 6 152 568 1370 1736 1942 2078 2042 2149 2206 2243 2105 2177 2147 2087 1988 1971 1660 1784 1797 1904 1731 1401 1188 1024 858 656 547 484 337 335 190 103 126
0 5 0 0 0 0 0 0 9 16 65 1155 1606 1513 1922 2058 1964 1750 1871 1819 1693 1650 1620 1827 1942 2246 1650 1315 1391 1393 969 794 752 665 494 350 223 150 79 51 41 84 256
3 0 0 0 0 3 1 3 1 68 286 913 1190 1607 1410 1876 1928 1589 1274 1265 1392 1276 1301 1250 1417 1386 1416 1017 751 688 680 563 347 253 96 65 70 57 44 69 98 184 128
0 0 0 0 0 1 0 0 93 239 296 439 898 1005 935 1212 1665 1481 1234 1091 1216 1151 1034 926 1114 999 905 675 443 419 341 209 145 80 109 39 13 47 35 34 31 50 81
19 24 19 9 11 11 10 41 70 160 410 613 716 621 726 912 971 1163 1079 1019 1128 1244 896 905 912 594 663 521 355 351 275 210 230 158 66 18 2 7 16 45 57 73 83

GFSGL_con_mucape_069.txt.gz
CAPE
591 900 789 629 617 814 862 1244 1572 1684 1791 1922 2067 2085 2279 2256 2356 2320 2108 1938 2127 2076 2008 2099 2244 2439 1654 1719 2079 2199 2152 2005 1970 1826 2170 2432 3156 3246 3047 3265 3105 3013 2161
802 1069 816 900 676 578 690 816 1328 1645 1730 2003 2066 2222 2354 2287 2343 2425 2296 1868 2012 2062 2017 2071 1913 2018 2632 2570 2271 2753 2440 2591 2320 2428 2525 2483 2910 3127 3337 3522 2925 2287 2944
518 560 746 749 751 740 812 726 876 1186 1596 1611 2152 2298 2389 2390 2456 2412 2378 2335 2279 2029 1998 2172 2127 2281 2508 2210 2639 2560 2438 2723 2826 2689 2534 2497 2663 2655 2972 2743 3123 3263 2476
415 336 630 578 780 865 1340 1055 798 1085 1121 1304 1621 1928 2323 2436 2434 2400 2437 2484 2468 2269 2194 2147 2175 2294 2534 2830 2637 2800 2736 2740 2602 2822 2321 2367 2366 2665 2952 2710 2383 2344 2661
555 587 620 863 795 500 758 1435 1121 946 1078 1175 1143 1272 1525 1639 1670 2190 2370 2371 2354 2373 2305 2247 2150 2017 1830 1962 2082 2377 2697 2871 2460 2310 2223 2176 2137 2103 2218 2494 2489 2646 2921
213 664 912 1203 1202 1141 1070 1005 1412 1179 1057 1165 998 1053 1170 935 485 865 1625 2183 2329 2353 2397 2357 2285 1453 1291 1127 1184 1177 1424 2688 2851 2527 2049 2124 2556 2689 2406 2446 2526 2589 2019
239 215 644 1021 1174 1335 1011 1095 1315 1310 1386 1256 1015 1125 1398 1557 503 483 889 1548 2134 2490 2519 2436 2243 1747 1768 2253 1605 1136 1070 1082 1231 2383 2541 2345 2527 2466 2846 2902 2832 2930 2438
614 233 466 830 954 1170 1062 1144 1274 1062 1303 1374 1126 1209 1336 1209 465 343 630 1314 2078 2033 2242 2508 2516 2386 2259 2099 2206 2162 2171 2169 1809 1416 1880 2340 2619 2855 3052 2933 3068 2901 2495
304 532 774 805 880 934 1085 1469 1158 912 977 988 993 1197 1221 1236 199 115 154 927 1221 2222 2160 2195 2513 2451 2174 1504 1888 2129 2225 2252 1522 1592 1605 1686 1572 1410 1539 2086 2163 1905 1509
188 186 362 659 464 1256 1096 1188 1249 1230 980 817 723 861 721 1257 517 186 126 295 792 864 1696 2303 1182 1492 1554 1364 1409 1964 2185 2071 1777 1692 1986 1439 1112 988 1094 1263 1963 1934 1564
100 52 46 51 402 365 605 1576 1317 1299 1335 1298 1025 1069 1062 794 939 559 490 510 578 806 636 635 680 597 726 963 985 2263 2293 1878 1229 1782 1794 1859 1964 2158 2243 1568 1697 1998 1712
140 85 65 28 65 255 537 424 1635 1825 1864 1679 1673 1320 1057 1152 795 862 875 785 685 850 1224 928 887 365 472 449 641 668 1116 1250 1250 960 968 1426 1564 1612 1686 1997 2679 2528 2137
0 9 2 5 10 40 438 611 681 965 1674 1893 1603 1488 1563 1491 1270 902 978 970 885 780 941 934 656 482 224 486 603 509 503 427 911 940 921 1026 1262 1470 1956 2014 2075 2268 2541
0 9 3 0 4 10 37 214 474 573 976 1394 1668 1644 1633 1701 1673 1555 1004 1020 966 916 822 628 501 359 271 550 377 264 345 725 852 880 828 929 1247 1530 1578 1614 1624 1915 2198
0 0 18 0 1 9 5 21 412 836 708 693 1187 1525 1455 1667 1603 1373 1426 1225 1001 990 849 746 863 980 1057 1093 1102 1216 1286 1009 878 1070 1209 1215 1372 1558 1657 1772 1903 2069 2075
0 0 0 2 1 7 6 0 0 0 69 604 1142 750 1234 1246 1181 1123 973 952 941 942 936 1074 1360 1239 1102 992 1209 1409 1380 1119 1276 1121 1165 1218 1342 1530 1742 1985 2077 2073 2081
0 33 0 1 0 0 5 8 2 0 32 74 331 1130 1138 834 951 1110 968 959 953 944 914 1247 1401 1457 1296 1076 1299 1484 1457 1384 1954 1210 1107 1177 1351 1491 1679 1958 2131 2238 2171
0 1 22 0 0 0 5 13 9 5 1 50 135 821 1298 1333 1069 893 1059 1024 1037 1098 1088 1336 1674 1354 1300 1577 1510 1344 1410 1714 1894 1665 1312 1252 1383 1530 1683 1964 2093 2267 2210
1 0 0 0 0 0 0 0 17 5 0 30 34 175 850 1091 1279 1111 961 1085 1145 1272 1163 1146 1435 1761 1785 1965 1945 1867 1781 1336 1799 1988 1606 1583 1749 2111 2105 2102 2155 1697 1911
0 0 0 0 0 0 0 0 0 6 0 0 28 183 887 1180 1227 1425 1199 1019 1263 1781 2011 1404 1294 1838 1702 1791 1914 1854 2041 1540 1691 1940 2147 2051 2075 1754 1723 1909 1855 1398 1225
0 0 2 3 0 0 0 0 0 0 10 4 12 116 844 1170 1264 1149 1219 1036 1154 1669 2129 2306 2077 1819 1985 2259 1989 1675 1507 1461 1658 1957 2278 2133 1778 2446 1552 1120 947 947 943
0 0 0 0 0 0 0 0 0 0 0 19 5 13 341 616 1092 1758 1480 1328 1325 1462 1733 2331 2335 1977 1725 1773 1866 1817 1685 1503 1526 1657 2423 2036 2003 1145 1096 871 945 596 485
0 0 0 0 0 0 0 0 0 0 6 22 65 97 369 315 714 1276 1394 1441 1433 1369 1382 1553 1346 1456 1678 1708 1716 1560 1701 1618 1401 1366 1514 2128 1502 1022 777 548 411 272 145
0 1 6 0 0 0 0 0 0 1 2 3 61 175 330 414 713 1120 1448 1835 1703 1266 1327 1240 1241 1269 1274 1318 1350 1135 1063 1476 1286 1172 1296 1079 777 544 372 200 89 36 26
0 0 9 0 0 0 0 0 0 1 4 1 0 14 16 174 429 820 1283 1433 1509 1539 1218 918 941 1078 1005 1091 874 743 898 1013 1009 767 748 639 402 203 117 80 46 9 14
0 4 1 0 0 0 0 0 2 1 2 0 0 0 69 318 560 650 873 891 875 1235 1276 1083 901 767 792 929 836 757 742 634 473 585 414 271 146 101 77 46 31 4 10

GFSGL_con_mucape_072.txt.gz
CAPE
1610 1567 1563 1548 1579 1767 1685 1730 1784 1522 1653 2127 2219 2316 2188 1921 2210 2768 2080 1686 2362 2063 1669 1754 2273 2198 1569 1303 1571 1615 1641 1626 1455 1391 1917 2236 3363 3351 3262 3184 2469 2161 1337
1439 1634 1627 1673 1531 1350 1610 1563 1624 1719 1709 2158 2562 2368 2460 2174 2516 2576 2086 1656 1880 1929 2138 1962 1977 1626 2485 2364 1837 2024 1843 1869 1862 2018 2470 2281 2659 2941 2968 3317 2617 1972 2348
1229 1333 1405 1404 1419 1431 1361 1544 1506 1593 1732 1837 2121 2494 2403 2333 2771 2804 2255 2044 2262 2152 2150 2106 2212 2024 2145 1667 2197 1644 1768 2119 2240 2218 2083 1960 2161 2518 2645 3285 2595 2628 1817
1098 1128 1268 1256 1276 1417 1499 1538 1509 1616 1649 1755 1978 2189 2280 1790 2225 2486 2677 2293 2218 2118 2437 2370 2129 2144 2418 2685 2522 2708 2637 2359 2498 2114 1955 1827 1854 2050 2499 2019 1603 1536 2006
927 1199 1205 1312 1370 1402 1542 1787 1723 1648 1622 1621 1624 1765 2043 2112 1563 2156 2626 2517 2636 2535 2603 2718 2425 1761 1699 2077 2362 3127 3285 2615 1947 1707 1714 1761 1728 1693 2365 1489 1625 1433 2279
754 799 1089 1500 1574 1598 1592 1538 1796 1888 1869 1761 1636 1439 1436 1282 939 1108 1783 2514 2531 2586 2576 2790 2712 1741 1564 1649 1553 1298 1299 2655 2767 2368 1812 2029 3136 2439 1972 1487 1576 1314 1528
199 730 885 1125 1572 1695 1779 1788 1704 1626 2045 2299 1862 1772 1957 1830 505 531 827 1475 1744 2156 2442 2407 2478 1953 2019 2349 1504 1095 1108 1069 1066 2185 2537 2655 2934 2377 2646 2609 3248 2330 2193
225 208 636 710 1050 1545 2168 1931 1868 1812 1854 1994 2169 2489 2469 2060 773 448 379 1299 1796 2266 2183 2238 2856 2821 2213 2185 2338 2123 2271 2226 1934 1609 1878 2058 2564 2634 3237 3048 3281 3169 2414
140 163 112 317 1082 1209 1397 2062 1969 2043 1921 1759 1772 2302 2576 2563 1033 636 403 1055 1059 2086 2333 2662 2908 3077 2360 1601 2192 2188 2332 2221 1220 1554 1658 1579 1527 1465 1471 1619 1259 936 646
122 123 137 118 175 548 1279 2072 2548 2165 2021 1764 1765 1856 1518 2258 1492 926 422 787 1178 690 1653 2514 1637 1767 1948 1755 2460 2576 2590 1988 1318 1186 1769 1359 1306 1391 1171 1425 1682 1105 501
31 28 105 125 72 98 415 1746 1843 2300 2563 2397 2111 2148 1947 1808 1781 1165 809 894 839 880 731 461 484 647 1071 1034 1339 2835 2430 1442 778 1133 983 905 1049 1517 2319 2066 2220 1893 785
4 46 71 33 64 44 36 41 1006 2297 2528 2487 2815 2167 2021 2134 1274 1229 926 630 615 1113 1461 989 1208 587 243 588 643 649 1066 903 454 47 49 98 152 368 589 1278 3422 3248 2300
0 6 15 114 65 44 5 38 55 997 1547 2451 2865 1990 1926 1984 2204 1376 1091 840 678 619 1067 1156 1031 886 813 680 551 342 217 602 489 59 94 65 77 63 1429 2199 2918 4367 3763
0 0 0 2 35 25 6 12 15 29 436 958 1511 2495 2636 1974 2150 2301 1659 1400 1022 840 876 832 829 798 825 868 663 402 201 629 539 458 202 97 182 71 161 568 1071 1191 1491
0 0 0 0 0 15 1 0 0 0 53 358 1230 1661 1910 1832 1849 1878 1874 2328 2003 1079 916 977 1190 1194 1285 1361 1182 998 1027 844 747 796 816 704 474 184 173 428 707 997 1041
0 0 0 0 0 0 0 0 0 0 0 17 44 196 648 967 1120 1193 1266 1152 1117 1231 1032 1114 1540 1682 1683 1650 1414 1203 1188 961 1311 1255 1106 946 817 550 340 456 692 924 1079
0 0 0 1 13 0 0 0 0 0 0 0 2 0 0 359 650 733 766 1006 1023 1089 1093 1507 1776 1786 1970 1975 1955 1775 1566 1339 1880 1224 1141 1057 788 726 517 564 646 1068 1801
0 0 0 0 0 17 2 0 0 0 0 0 0 0 0 24 156 684 1056 650 558 1013 1053 1189 1560 2030 2269 2671 2139 2194 2067 2019 1953 1789 1632 1444 1231 960 861 878 904 1392 1446
0 0 0 10 24 0 10 12 0 0 1 0 0 0 0 0 70 169 552 844 954 1183 1082 1163 1229 1779 2264 2288 2313 2545 2676 2559 2293 2302 2234 2015 1777 1492 1317 1233 1113 772 1102
0 0 0 0 8 23 9 25 17 0 0 0 0 0 0 3 257 631 501 759 748 1467 1753 1773 1841 1800 2081 2673 2810 2888 2806 2764 2428 2289 2465 2394 2097 2321 2298 2116 1968 1943 2062
0 0 0 0 0 19 27 0 26 22 0 0 0 0 0 2 133 508 1401 704 671 1144 1870 2303 2315 2463 2456 2627 2723 2695 2727 2757 2369 2247 2265 2217 2087 1578 2408 2793 2589 2461 2758
0 0 0 0 0 0 0 4 3 18 28 17 1 1 0 5 0 18 250 1369 1177 800 1003 1852 2655 2433 2646 2893 2663 2693 2996 2723 2536 2176 1943 2115 1728 1417 1996 2198 1962 2294 1960
0 0 0 0 0 0 0 0 0 2 12 21 15 8 5 23 45 121 310 758 1306 1177 1282 1237 910 1435 1774 1859 1772 1847 1866 2223 2407 2001 1640 1494 1417 1696 1511 1511 1713 1868 1588
0 0 0 0 0 0 0 0 0 0 9 24 23 21 15 19 19 259 247 462 642 834 866 1392 1530 940 825 907 1087 1440 1535 1430 1428 1468 1351 1238 1234 1462 1249 1359 1542 1384 1011
0 0 0 0 0 0 0 0 0 0 22 32 24 26 31 7 6 13 192 261 256 442 634 810 1540 1301 1203 1111 913 797 798 809 953 803 749 841 819 830 938 1096 1033 652 380
0 0 0 0 0 0 0 0 1 0 0 0 6 0 14 0 0 0 3 8 131 279 509 677 1097 1419 1241 1022 889 815 693 797 718 672 737 691 643 635 775 671 545 454 307

GFSGL_con_mucape_075.txt.gz
CAPE
1988 1999 2109 2099 2163 2277 1847 1771 1909 1588 1752 1735 2864 2198 2143 1980 1936 2756 3138 2086 1944 2309 2656 1692 2683 3725 1803 1063 957 1109 1301 1434 1409 1290 1724 2904 3273 4061 3525 3928 3042 3574 2291
1734 2399 1951 2030 2103 1980 2193 2029 2325 2458 1825 2050 2121 2199 2248 2192 2502 2685 2136 1509 1978 1999 2268 2885 1770 1691 3670 3615 1931 3773 2436 3225 1927 3909 2786 1738 3568 3571 4577 4833 3053 1959 2448
1625 1563 1828 1846 1952 2001 2073 2101 2704 2557 2298 1505 2247 2553 2055 2101 2900 2758 2816 2196 2047 1939 2014 2429 2310 2814 3235 2406 2974 1985 1812 2267 2424 2065 2265 1880 1893 2083 2885 4012 4501 3705 2635
1074 1321 1656 1841 1877 1857 2308 2750 2044 2923 2599 2451 2408 2850 2526 1935 2065 2358 2781 2666 2636 2386 2361 2565 2463 2686 3355 3728 2859 3779 2931 2790 2348 1676 1510 1595 1812 2656 2181 2232 1937 1391 1546
645 1187 1760 1709 2046 1774 2240 2894 2595 2847 2764 2648 2670 2765 2404 2123 1505 2798 2687 2676 2814 2896 2912 2602 2999 2256 1712 2464 2186 3288 3626 3162 1784 1492 1388 1427 1471 1695 2956 2335 1919 1783 2559
352 584 1342 1479 1827 2315 2297 2282 2810 3027 3201 3276 2544 2659 2666 1419 860 1005 1732 2822 3262 3564 3659 3784 3684 1772 1513 1249 1390 1526 1821 3065 4449 2496 1924 2012 4356 2934 1811 1695 1688 1354 1179
72 160 500 735 1545 1633 2404 2471 2712 2734 3027 3600 3194 2843 3115 2970 1036 464 949 1622 2709 3355 3268 3788 2801 1580 2196 2894 1605 1248 1323 1061 834 2592 3413 3319 3354 3586 3681 4073 3042 3119 2295
135 179 372 357 644 1006 1985 1945 2373 2610 2612 2996 2997 3528 3591 3104 1572 861 393 2208 2387 2611 2981 3396 3547 3490 3401 3197 3183 2808 2572 2586 2349 1377 1898 2509 2998 3399 3628 3334 4037 4392 3110
82 73 136 246 471 551 822 1303 2609 2367 2242 2243 2547 3291 3621 3618 2044 1376 789 1263 1424 2375 2660 2655 2982 3537 3015 2164 2677 3520 3464 3465 1386 1723 1753 1938 1856 1422 1364 1622 1386 998 660
166 79 61 77 100 113 206 918 1098 2333 2165 1960 2321 2564 2469 3268 2549 2063 1415 1389 1545 1581 1995 2361 1406 1666 2119 2277 2757 3149 3217 3204 3319 1990 1783 1525 1465 1374 1137 1246 1641 1574 954
47 90 126 71 59 78 90 83 103 759 2011 2264 2031 2527 2968 2692 3073 1981 1745 1707 1737 1608 1515 1511 1429 863 787 1250 1535 3074 3012 3180 2688 2256 1817 1248 1069 1926 2350 2381 2833 2241 1414
0 0 14 20 35 51 61 46 46 79 444 2001 2668 2532 2896 2797 1962 1934 1679 1448 1531 1726 1844 1443 1528 613 292 478 617 696 1126 1648 1968 1609 939 463 363 589 452 750 3151 3330 2487
0 0 0 13 8 17 2 32 27 75 101 190 1621 1894 2227 3007 2149 1723 1512 1398 1287 1198 1700 1411 1041 833 896 715 645 605 559 613 1152 1357 1225 812 332 134 489 912 1529 4455 4156
0 0 0 0 9 26 67 20 24 0 0 0 374 1741 2073 2663 3092 2335 1792 1598 1448 1275 1175 865 663 689 903 991 1014 904 782 752 1051 1231 1204 1032 583 195 197 422 395 367 821
0 0 0 0 0 2 1 21 6 0 0 0 15 282 439 630 1620 1153 1129 1381 1851 1673 1327 1400 1277 1257 1371 1626 1897 2034 2123 1515 1155 1169 1360 1155 833 604 432 477 441 447 788
0 0 0 0 0 0 0 0 0 0 0 0 0 0 10 7 385 540 779 783 765 1017 1206 1495 1711 1801 2163 1948 2212 2328 2417 1621 1892 1752 1554 1341 1170 1207 1235 1151 740 554 771
0 0 0 0 0 0 0 0 0 0 0 0 0 0 0 0 0 2 34 244 816 803 823 1901 2096 1968 2188 2384 2153 2188 2269 2046 2157 1789 1897 2078 1851 1672 1486 1327 1225 997 1043
0 0 0 0 0 0 1 0 0 0 0 0 0 0 0 0 0 3 0 59 117 501 610 1210 1983 2253 2475 2631 2401 2487 2503 2394 2251 2384 2395 2103 1870 1877 1815 1602 1392 1267 1122
0 0 0 0 0 0 0 10 6 0 0 0 0 0 0 0 0 0 0 1 121 369 1067 1488 1484 2110 2240 2543 2812 2955 3163 2854 2837 2705 2433 2295 2080 1985 2017 1845 1575 804 819
0 0 0 0 0 0 0 0 15 15 1 0 0 0 0 0 0 40 0 2 207 497 454 1818 1858 1799 1970 2565 2792 2788 2817 3164 3418 2892 2617 2869 3165 2751 2263 2178 1889 1431 2051
0 0 0 0 0 0 0 0 0 27 21 15 0 0 0 0 0 0 39 55 229 706 791 1456 2688 2619 2361 2891 2613 2838 2805 2829 2815 2853 2908 2649 2905 2720 2848 2691 2808 2543 2332
0 0 0 0 0 0 0 0 0 0 38 33 13 5 0 0 0 1 16 79 62 703 1037 1211 1836 2783 2384 2652 2603 2749 2783 2622 2810 3232 3180 2847 2320 2486 2706 2556 2408 1960 2141
0 0 0 0 0 0 0 0 0 0 0 40 34 14 14 7 2 7 28 83 139 221 888 1247 1092 1208 1007 1038 1248 1733 2305 2398 2415 2656 2931 2821 2332 1995 1888 1747 1603 1571 1455
0 0 0 0 0 0 0 0 0 0 0 0 34 32 20 36 14 14 1 85 92 57 221 250 446 821 731 842 879 1004 1124 1194 1407 1472 1399 1546 1793 1746 1643 1377 1228 1175 1240
0 0 0 0 0 0 0 0 0 0 0 0 5 19 33 35 58 31 66 13 6 22 35 12 34 341 389 531 709 1123 1002 733 723 810 992 1165 1106 1164 1229 1155 983 822 615
0 0 0 0 0 0 0 0 0 0 0 0 0 0 15 28 42 51 43 11 0 0 9 12 0 12 182 328 476 990 1235 1109 980 845 806 680 541 505 498 457 478 481 402

GFSGL_con_mucape_078.txt.gz
CAPE
2628 2545 2543 2605 2780 2827 2833 3232 2870 2394 1007 434 91 663 1419 2734 3045 2972 2205 1847 2275 2392 3174 2794 2866 2908 2296 2963 2377 2660 2471 2861 2875 2632 2819 4715 4202 4404 3607 4048 4044 3485 3136
2439 2574 2634 2798 2771 2920 2873 2868 3315 3148 2959 971 733 1104 1454 2456 2515 2862 2413 2095 2093 2568 2776 2428 2771 2385 3218 3304 2855 2822 3264 3117 3119 2907 2831 2627 2354 2778 4706 4219 4148 2668 2639
1264 2499 2592 2534 2820 2833 3131 2910 3163 3237 3145 2555 2655 3267 3096 2424 2679 2368 2858 2826 2155 2308 2971 3135 2851 3133 3028 2645 3524 3304 2603 2913 3106 2700 2253 2904 3093 2954 3256 4230 4193 4053 3681
569 951 1443 2376 2389 2425 2940 2987 2790 3321 3007 2781 2901 3099 2794 2901 2863 2644 2683 2957 2477 2513 2824 2991 3089 3023 3023 3142 2987 3129 2695 3173 2609 2851 2233 1868 1938 2140 3574 3067 3234 2317 2026
192 295 267 831 2389 3128 2904 2707 3013 2910 2960 2987 2886 2644 2841 2499 2046 2613 2977 2803 2353 2132 2364 2680 2936 3260 2490 2934 2523 2947 2850 2975 2553 2094 1849 1908 1951 3294 3371 3242 2554 2725 2331
343 198 29 379 857 1377 2278 2629 3405 3012 2943 2802 2880 2788 2523 2362 1387 1121 2093 2694 2831 2869 2422 2860 3230 2470 2044 1427 1317 1455 1541 3020 3035 2868 2760 2373 2368 3085 2843 2806 2390 1720 1202
40 193 155 146 35 513 1540 2471 3029 2994 3037 2933 2888 2845 2796 2660 1647 675 587 1933 2666 2932 2912 2711 2710 1720 2222 2176 1243 1076 1040 1021 1087 1427 1648 2148 2278 2198 2762 3066 2713 2906 2596
69 90 117 162 268 533 748 930 1350 2534 2778 2769 2670 2853 3051 2905 2143 1591 1121 961 2099 2056 2506 2804 2678 2441 2747 2769 2970 2466 1663 1656 1327 734 554 758 1047 1356 2161 2102 2031 2401 2640
34 62 83 246 215 203 206 525 637 837 1938 2238 2231 2442 2785 2984 2409 2026 1592 1107 1201 1727 2027 2090 2083 2936 2518 1963 2019 2698 3062 2960 2385 1966 1731 1171 904 858 1004 1673 1523 1226 898
10 39 32 55 39 209 201 188 352 528 742 1574 1961 2189 2058 2505 2689 2525 1898 1598 1533 1305 1230 1530 1563 1564 1401 1754 2167 2191 2129 2011 2718 2679 1777 1185 1371 1217 1281 1307 1339 1400 1220
2 56 64 62 42 4 42 85 126 432 487 539 732 1930 2037 2185 2398 2281 2276 2005 1909 1742 1568 1402 1249 1115 1117 1114 1081 1887 2135 1927 1882 1957 2026 1668 1411 1671 1691 1398 1105 1190 1135
0 0 16 43 73 67 18 11 33 53 60 122 352 1016 1769 2197 2168 1738 1697 1722 1881 2036 1921 1641 1625 1307 1126 905 746 499 669 1406 1626 1634 1597 1434 1163 885 628 378 1720 1665 1502
0 0 0 0 0 0 2 2 0 6 25 39 54 21 460 1611 1923 2013 1763 1347 1523 1537 1911 1797 1609 1356 1131 1035 784 633 532 458 518 752 867 975 1000 873 500 133 78 1993 2461
12 11 8 0 0 0 0 0 0 0 0 0 0 0 549 1754 1896 2089 1848 1123 1050 1081 1278 1366 1404 1357 1172 1005 919 900 862 703 572 536 546 638 794 890 764 432 49 0 4
0 0 0 0 0 0 0 0 0 0 0 0 0 0 0 16 628 440 666 852 626 700 971 1128 1279 1289 1254 1217 1019 1096 1101 927 877 825 766 832 973 999 851 527 172 0 107
0 0 0 0 0 0 0 0 0 0 0 0 0 0 0 0 0 139 268 221 232 328 416 951 1175 1603 1855 1780 1416 1215 1227 1331 1578 1209 1128 1016 921 933 903 751 497 228 228
0 0 0 0 0 0 0 0 0 0 0 0 0 0 0 0 0 0 1 0 2 25 185 317 875 1663 1990 1907 1980 2012 1843 1742 1814 1761 1709 1635 1330 1143 859 693 560 615 953
0 0 0 0 0 0 0 0 0 3 1 0 0 0 0 0 0 0 0 0 0 0 1 22 205 703 1095 1640 1902 1932 2163 2306 2442 1989 1786 1445 1372 1529 1627 1383 1183 1098 910
0 0 0 0 0 0 0 0 0 0 0 0 0 0 0 0 0 0 0 0 0 0 34 191 373 634 929 1269 1805 2096 1927 1802 2331 2411 2529 2054 2016 1636 1214 1041 966 1080 1025
0 0 0 0 0 0 0 0 0 0 0 0 1 0 2 0 0 0 0 0 0 0 0 11 54 143 1437 1387 1571 2162 2267 2101 1829 2026 2750 2139 2894 2334 1649 1647 1623 1263 1112
0 0 0 0 0 0 0 0 0 0 0 0 0 6 0 0 4 2 0 0 0 352 426 608 905 1055 2058 2023 1945 2074 2015 2061 2011 1779 1945 2359 2323 2092 1823 2074 1679 1783 1443
0 0 0 0 0 0 0 0 0 0 0 0 0 0 0 0 0 4 14 0 0 0 0 726 707 940 962 1966 1814 1884 1327 1460 1440 1524 1941 2094 2027 1997 1983 2117 2270 2015 1820
0 0 0 0 0 0 0 0 0 0 0 0 0 0 0 0 3 3 0 15 0 0 0 1 392 1116 1173 1042 874 865 1038 874 792 820 665 813 1166 1872 2079 2123 2082 2033 1846
0 0 0 0 0 0 0 0 0 0 0 0 0 0 0 0 35 6 0 0 7 5 1 13 30 207 445 446 346 395 484 547 366 453 459 463 919 1235 1532 1640 1847 1792 1639
0 0 0 0 0 0 0 0 0 0 0 0 0 0 0 0 0 0 0 6 43 88 111 1 0 23 18 5 0 0 28 151 253 369 159 320 637 711 862 937 1148 1330 1187
0 0 0 0 0 0 0 0 0 0 0 0 0 0 0 0 0 0 0 0 2 20 13 9 8 24 18 0 0 0 0 31 187 286 509 728 630 622 655 727 692 875 838

GFSGL_con_mucape_081.txt.gz
CAPE
1494 1568 1615 1653 1513 1303 1385 1411 1093 734 554 465 582 245 709 1156 1322 1303 1009 1190 1029 935 1140 1752 1400 1816 1383 1670 1637 1421 1596 1756 1573 1673 2047 2522 1673 1798 2343 2717 2769 2596 2573
751 1111 1548 1851 1815 1699 1645 1281 1590 851 916 622 152 422 922 917 1331 1375 1246 1114 1013 1152 1086 1512 979 1611 1874 2072 1704 1597 1779 1825 1853 1177 1175 1088 1322 1795 1960 3219 3049 2945 2793
466 559 943 1625 1812 1619 1698 1871 2037 1217 890 1005 762 529 568 794 1111 1406 1311 1660 1275 1118 1070 1360 1399 1307 1518 1561 1250 1440 1610 2006 1896 1853 1731 1942 1961 1303 981 1408 2456 2705 2185
238 273 500 731 957 1202 1815 2142 2113 2107 1571 1217 1369 1156 1245 1281 1373 1624 1399 1212 1513 1412 1353 1636 1634 1197 1264 1505 1170 1222 1597 1527 1448 1601 1407 1329 1208 1292 2132 2550 2025 1863 1711
44 58 176 528 521 516 581 1224 2034 2118 2236 2005 1675 1921 1906 1557 1805 1889 1640 1213 1330 1322 1454 1498 1610 1925 1963 1733 1514 1287 1679 1704 1588 1931 2183 2176 2219 2037 2201 1996 1438 1527 1275
24 43 81 121 111 177 128 455 1274 1608 1949 2117 2063 1816 1759 1899 1519 1552 1723 1802 1718 1588 1193 1061 1489 1441 1652 2187 1976 1780 1622 2028 1737 1488 1589 1880 2045 2021 1880 1463 1934 1321 1183
129 70 32 81 43 37 120 199 593 1269 1547 1833 1974 2141 1836 1793 1868 1747 1393 1458 2028 1824 1383 1307 1445 1613 1766 1880 1953 1632 1535 1372 1179 1124 1098 1008 996 699 849 848 716 1227 1450
34 53 13 65 100 136 210 240 542 715 968 1627 1479 1573 1859 2067 2066 1782 1597 1380 1124 1570 2123 2080 1897 1607 1428 1484 1896 1902 1631 1464 1258 1093 1046 954 574 471 305 397 728 1035 1183
43 63 47 83 125 80 157 270 223 302 640 828 1214 1461 1488 1454 1701 2094 2044 1534 1350 1089 1014 1514 1908 1833 1646 1569 1570 2006 2170 2187 2115 2012 1868 1737 1650 1242 1174 975 1074 1368 906
47 44 35 99 88 53 96 112 85 98 196 426 698 881 1262 1391 1539 1729 1878 1613 1608 1415 1264 1027 1248 1486 1535 2046 2084 1978 1887 1706 1786 2451 2337 2268 2106 1756 1536 1228 959 821 773
6 12 0 15 47 38 42 42 41 85 93 143 292 403 508 1299 1448 1554 1556 1673 1597 1385 1345 1362 1279 1199 922 985 1209 1175 982 1142 1531 1659 1548 1399 1495 1489 1361 1135 894 781 778
0 0 0 0 0 13 4 23 27 0 31 60 78 94 164 292 1051 1271 1485 1467 1505 1431 1478 1394 1429 1416 1287 1118 1029 1012 841 702 726 870 1083 1217 1266 1241 1280 1203 1059 821 636
0 0 0 0 0 0 0 0 0 1 0 22 7 31 52 43 226 1382 1362 1469 1605 1543 1422 1321 1198 1462 1565 1478 1242 1096 1038 822 715 690 561 509 634 750 843 819 716 564 697
0 0 0 0 0 0 0 0 0 0 0 0 0 0 0 0 56 309 231 312 975 971 906 810 830 1016 1276 1524 1542 1399 1229 935 765 714 630 529 458 458 448 515 557 532 504
0 0 0 0 0 0 0 0 0 0 0 0 0 0 0 0 0 0 0 12 14 306 573 460 385 544 777 1010 1114 1258 1191 1092 1019 746 687 689 614 552 535 536 586 540 546
0 0 0 0 0 0 0 0 0 0 0 0 0 0 0 0 0 0 0 0 0 4 31 126 222 273 927 1137 1132 1169 1198 1238 1154 970 909 680 640 614 605 665 667 648 626
0 0 0 0 0 0 0 0 0 0 0 0 0 0 0 0 0 0 0 0 0 0 20 65 75 18 263 1153 1310 1475 1538 1555 1418 1139 1049 951 874 867 876 878 829 648 533
0 0 0 0 0 0 0 0 0 0 0 0 0 0 0 0 0 0 0 0 0 0 0 0 0 0 0 70 521 998 1311 1291 1281 1356 1277 1064 1034 1008 1044 1091 1025 812 728
0 0 0 0 0 0 0 0 0 0 0 0 0 0 0 0 0 0 0 0 0 0 0 0 0 0 0 11 116 600 986 1229 1263 1171 1029 1102 1135 1092 1137 1135 1109 1002 1071
0 0 0 0 0 0 0 0 0 0 0 0 0 0 0 0 0 0 0 0 0 0 0 0 0 0 0 28 387 681 809 856 1090 1270 1232 1052 1048 990 900 886 946 935 852
0 0 0 0 0 0 0 0 0 0 0 0 0 0 0 0 0 0 0 0 0 0 0 0 0 35 146 468 570 1070 1155 1160 1163 1098 1114 1167 1030 1024 899 907 824 746 824
0 0 0 0 0 0 0 0 0 0 0 0 0 0 0 0 0 0 0 0 0 0 0 0 0 0 0 187 450 776 928 1039 1152 1115 1013 700 716 706 616 579 490 488 552
0 0 0 0 0 0 0 0 0 0 0 0 0 0 0 0 0 0 0 0 0 0 0 0 0 0 0 142 363 492 558 677 535 411 372 646 377 247 322 151 20 148 271
0 0 0 0 0 0 0 0 0 0 0 0 0 0 0 0 0 0 0 0 0 0 0 9 12 6 2 0 2 197 449 519 142 2 14 69 193 171 13 4 37 98 176
0 0 0 0 0 0 0 0 0 0 0 0 0 0 0 0 0 0 0 0 0 0 0 1 17 1 3 5 1 25 58 45 9 0 0 0 7 131 186 190 459 606 744
0 0 0 0 0 0 0 0 0 0 0 0 0 0 0 0 0 0 0 0 0 0 0 1 2 2 3 6 22 15 12 21 12 0 0 0 0 10 133 251 256 237 347

GFSGL_con_mucape_084.txt.gz
CAPE
827 769 1039 1140 923 862 835 828 887 779 690 759 839 726 993 1015 1142 1244 1127 822 923 739 462 1153 1351 1275 1457 1446 1244 1045 1222 1357 1125 1107 1675 1253 1293 1642 1731 1386 1552 2322 2577
205 431 646 756 995 1110 1142 1143 1162 1041 682 590 541 529 319 652 942 1208 1081 952 1021 894 851 816 911 912 1130 1493 1543 1222 1565 1578 1748 1606 1441 1486 1563 1393 1040 1513 1940 1981 2157
132 173 247 377 545 652 956 1221 1103 1034 873 712 679 222 54 409 860 1111 1148 999 844 901 1114 769 975 927 757 841 1061 1023 894 1296 1340 1447 1368 1253 1090 1075 1675 1940 1756 1738 1648
84 71 126 260 321 450 703 830 963 1132 1056 866 849 719 328 237 615 764 1083 1098 1124 1320 1041 964 987 1138 1091 873 888 1076 942 1036 1207 1247 959 1161 1534 1897 1858 1701 1353 1411 1565
50 49 34 101 162 267 397 431 560 851 1102 965 873 881 1015 864 891 797 1311 1255 998 892 1133 1302 1271 1442 1598 1504 1378 1321 1163 1081 1079 1232 1698 1544 1374 1429 1608 1736 1425 1063 888
77 118 52 79 85 58 53 116 136 243 700 1198 1298 1367 1497 1788 1688 1454 1383 1338 1335 1223 904 971 1023 1240 1246 1363 1674 1843 1896 1261 1134 1307 1369 1254 1130 1250 1353 1444 891 522 79
108 100 74 54 33 35 69 76 67 52 295 817 1213 1297 1383 1405 1589 1690 1430 1326 1376 1404 1348 1265 1194 922 1057 1169 1279 1631 1781 1723 1640 1468 1157 954 805 704 605 359 176 191 187
156 211 116 111 111 61 86 103 104 59 227 560 816 1162 1223 1396 1433 1455 1553 1438 1378 1261 1456 1562 1468 1358 1209 1299 1163 1121 1173 1335 1526 1532 1371 1156 1019 976 1036 916 682 703 637
104 96 58 88 50 37 9 93 90 132 172 246 510 641 893 1057 1143 1218 1302 1372 1408 1268 1090 1055 1430 1682 1849 1840 1552 1433 1293 1376 1643 1726 1630 1565 1581 1580 1505 1472 1274 864 757
36 36 66 128 83 95 96 135 115 144 118 95 95 331 522 724 765 797 1063 1017 1105 1192 1174 1124 1189 1056 1183 1496 1449 1408 1374 1334 1389 1377 1579 1631 1624 1646 1754 1832 1801 1553 1131
0 4 32 3 31 77 81 74 139 111 86 79 75 76 147 264 277 436 647 736 1004 1130 1124 1021 1031 1071 1093 1145 1171 1106 1161 1082 926 936 1080 1159 1241 1312 1366 1346 1309 1253 1000
0 0 0 0 0 0 4 25 34 74 74 37 60 86 94 65 50 127 262 686 760 771 905 1100 1250 1305 1270 1290 1320 1354 1262 1080 959 877 844 766 818 947 990 1047 1113 1105 989
0 0 0 0 0 0 0 0 0 0 2 12 34 49 65 75 98 86 145 216 300 400 664 982 979 897 1121 1210 1219 1318 1338 1309 1243 1092 918 836 761 714 671 752 850 931 949
0 0 0 0 0 0 0 0 0 0 0 0 0 0 0 0 0 2 13 106 91 48 36 32 327 551 519 506 573 670 932 1191 1415 1373 1319 1225 962 710 639 637 591 500 474
0 0 0 0 0 0 0 0 0 0 0 0 0 0 0 0 0 0 0 0 3 0 8 20 16 12 225 272 131 337 544 714 852 1144 1229 1179 1076 911 687 480 440 460 437
0 0 0 0 0 0 0 0 0 0 0 0 0 0 0 0 0 0 0 0 0 0 0 0 0 0 0 4 9 107 659 790 922 978 973 1020 1074 1047 916 856 774 534 448
0 0 0 0 0 0 0 0 0 0 0 0 0 0 0 0 0 0 0 0 0 0 0 0 0 0 0 0 0 7 339 748 1058 1083 895 857 916 915 977 913 838 685 660
0 0 0 0 0 0 0 0 0 0 0 0 0 0 0 0 0 0 0 0 0 0 0 0 0 0 0 0 0 0 0 51 538 1014 1069 965 848 813 849 770 750 615 663
0 0 0 0 0 0 0 0 0 0 0 0 0 0 0 0 0 0 0 0 0 0 0 0 0 0 0 0 0 0 0 0 27 207 659 931 969 958 867 758 670 588 423
0 0 0 0 0 0 0 0 0 0 0 0 0 0 0 0 0 0 0 0 0 0 0 0 0 0 2 2 0 0 0 5 189 400 611 813 817 805 803 778 692 631 369
0 0 0 0 0 0 0 0 0 0 0 0 0 0 0 0 0 0 0 0 0 0 0 0 0 0 0 0 26 8 44 103 349 589 803 827 826 865 650 655 598 561 477
0 0 0 0 0 0 0 0 0 0 0 0 0 0 0 0 0 0 0 0 0 0 0 0 0 0 0 0 0 3 7 6 10 239 203 248 341 254 450 529 408 388 399
0 0 0 0 0 0 0 0 0 0 0 0 0 0 0 0 0 0 0 0 0 0 0 0 0 0 0 0 6 2 2 3 2 58 171 174 152 17 100 208 217 219 206
0 0 0 0 0 0 0 0 0 0 0 0 0 0 0 0 0 0 0 0 0 0 0 0 0 0 0 1 2 0 6 0 0 7 31 21 26 0 6 17 28 128 73
0 0 0 0 0 0 0 0 0 0 0 0 0 0 0 0 0 0 0 0 0 0 0 0 0 0 0 0 3 6 5 6 14 18 33 23 13 2 0 0 12 88 230
0 0 0 0 0 0 0 0 0 0 0 0 0 0 0 0 0 0 0 0 0 0 0 0 0 0 0 0 0 5 6 8 16 18 16 20 10 16 7 0 0 6 7

GFSGL_con_mucape_087.txt.gz
CAPE
478 482 463 498 520 540 373 288 425 178 356 481 571 896 962 907 924 872 975 1012 880 532 693 536 1026 1119 1318 1380 1392 980 1263 1506 1243 1036 1198 1313 1564 1419 1166 1672 1909 1850 1875
238 535 636 718 704 774 573 597 735 927 820 589 515 794 791 764 806 952 1133 1112 852 768 723 726 493 716 810 1176 1375 1026 1047 1114 1376 1194 1253 1227 1100 948 1092 1626 1624 1581 1540
107 168 322 377 449 540 596 768 751 900 878 729 591 576 557 333 427 702 1002 1162 1013 798 675 672 1001 672 867 545 630 723 777 756 1149 1102 920 997 882 813 1572 1608 1516 1431 1493
89 82 100 168 185 224 245 393 608 604 817 885 821 593 589 222 55 363 703 954 1001 948 923 1025 778 776 818 914 823 755 922 950 828 878 945 772 1081 1333 1612 1625 1508 1374 1220
70 63 32 82 68 53 119 135 255 415 472 677 938 893 705 637 447 423 521 724 937 948 956 888 1015 1057 1004 1264 1442 1328 1337 1423 1363 1001 896 965 1060 899 854 1076 1248 1087 516
38 40 0 14 58 35 39 51 71 112 124 249 570 973 980 894 812 948 955 878 1058 1231 1094 1035 1073 790 896 1068 1173 1160 1417 1488 1570 1636 1408 1160 1075 850 730 732 655 362 1
19 42 52 62 47 58 31 32 52 23 40 39 205 553 838 987 1114 1376 1401 1359 1353 1272 1295 1231 1147 1171 1120 1014 837 767 880 988 1321 1472 1412 1402 1322 1278 1064 807 781 808 598
66 63 42 60 45 76 47 29 45 24 16 8 40 152 292 538 774 950 1051 1180 1239 1235 1233 1211 1225 1149 1228 1330 1319 1269 1155 1054 983 931 982 1145 1290 1273 1127 1074 1212 1194 1042
136 143 168 102 71 103 76 80 47 33 23 11 20 62 122 199 385 466 521 768 867 1190 1289 1212 1202 1034 1074 1266 1211 1107 1214 1413 1472 1355 1230 1205 1264 1327 1359 1333 1270 1214 1097
1 41 113 90 115 125 90 8 0 1 43 73 58 51 76 72 109 239 321 512 647 671 870 907 920 948 935 889 921 981 954 822 841 882 924 975 1080 1101 1174 1157 1248 1248 1111
0 1 20 33 98 159 71 72 34 32 30 92 108 76 72 77 79 163 138 155 254 456 552 638 756 871 1069 1192 1249 1257 1092 1029 1070 1113 1103 1029 912 859 967 954 962 997 946
0 0 0 0 4 0 14 123 115 68 54 82 107 106 78 69 48 67 82 89 107 186 340 431 467 554 616 805 980 1177 1204 1133 1170 1202 1194 1108 1007 960 894 863 781 760 750
0 0 0 0 0 0 0 0 0 1 6 12 21 51 83 81 84 91 78 70 35 58 91 146 194 243 296 522 529 418 467 611 737 938 1028 963 1113 1122 1153 1090 984 862 720
0 0 0 0 0 0 0 0 0 0 0 0 0 0 0 0 46 74 76 71 53 23 28 62 90 50 32 97 64 40 150 211 114 118 294 492 722 774 871 1035 1043 949 776
0 0 0 0 0 0 0 0 0 0 0 0 0 0 0 0 0 0 0 0 0 0 0 0 5 10 13 0 19 16 0 72 167 190 235 386 559 759 772 775 819 905 958
0 0 0 0 0 0 0 0 0 0 0 0 0 0 0 0 0 0 0 0 0 0 0 0 0 0 0 0 0 0 0 0 13 285 447 499 474 538 599 653 651 643 575
0 0 0 0 0 0 0 0 0 0 0 0 0 0 0 0 0 0 0 0 0 0 0 0 0 0 0 0 0 0 0 0 0 20 311 482 451 483 491 492 411 347 358
0 0 0 0 0 0 0 0 0 0 0 0 0 0 0 0 0 0 0 0 0 0 0 0 0 0 0 0 0 0 0 0 0 0 0 137 380 595 600 720 635 530 502
0 0 0 0 0 0 0 0 0 0 0 0 0 0 0 0 0 0 0 0 0 0 0 0 0 0 0 0 6 6 3 1 0 1 0 1 65 378 431 1056 1021 897 679
0 0 0 0 0 0 0 0 0 0 0 0 0 0 0 0 0 0 0 0 0 0 0 0 0 0 0 0 0 2 3 2 10 28 34 19 148 309 387 490 630 619 760
0 0 0 0 0 0 0 0 0 0 0 0 0 0 0 0 0 0 0 0 0 0 0 0 0 0 0 0 0 0 0 0 0 3 10 3 9 159 223 234 237 473 893
0 0 0 0 0 0 0 0 0 0 0 0 0 0 0 0 0 0 0 0 0 0 0 0 0 0 0 0 0 0 0 0 6 40 22 29 9 44 197 191 209 219 283
0 0 0 0 0 0 0 0 0 0 0 0 0 0 0 0 0 0 0 0 0 0 0 0 0 0 0 0 0 0 0 2 0 4 0 8 16 54 38 56 49 95 149
0 0 0 0 0 0 0 0 0 0 0 0 0 0 0 0 0 0 0 0 0 0 0 0 0 0 0 0 0 0 0 16 34 2 1 0 14 8 25 35 23 59 37
0 0 0 0 0 0 0 0 0 0 0 0 0 0 0 0 0 0 0 0 0 0 0 0 0 0 0 0 0 0 0 0 0 6 6 5 11 22 8 22 79 61 19
0 0 0 0 0 0 0 0 0 0 0 0 0 0 0 0 0 0 0 0 0 0 0 0 0 0 0 0 0 0 0 0 0 0 15 7 15 8 11 24 26 12 34

GFSGL_con_mucape_090.txt.gz
CAPE
42 160 149 257 381 394 349 285 217 284 130 126 369 582 733 687 701 685 583 656 728 612 341 490 804 892 1215 1425 1407 960 1273 1277 1488 1443 1263 1425 1654 1773 1821 1750 1735 1971 1724
117 232 318 395 470 452 435 329 368 338 423 372 374 401 541 770 768 799 828 951 815 750 506 448 538 543 962 1079 1402 1254 1276 1220 1403 1554 1300 1325 1527 1396 1327 1517 1624 1305 1334
108 103 205 385 498 521 462 411 442 582 606 640 487 379 439 563 519 562 690 663 773 715 707 609 654 614 836 676 547 824 726 792 1131 1270 1252 944 1095 798 1272 1759 1876 1809 1342
171 81 80 129 184 210 205 185 199 303 550 655 628 561 539 410 283 202 411 632 699 757 683 664 681 616 798 885 751 782 689 738 932 970 936 869 779 1120 1082 1347 1430 1340 1307
111 82 65 44 35 32 31 65 95 79 120 294 633 764 758 725 654 507 190 530 778 739 715 799 787 757 747 807 1040 1207 1020 1005 1098 1408 1394 1458 1374 1132 1113 1092 1149 967 765
57 14 26 22 54 47 0 38 47 74 91 69 203 402 601 706 804 784 701 703 852 823 915 984 1005 897 930 891 757 864 933 1294 1478 1082 1266 1257 1485 1099 1044 1217 1175 1013 878
18 46 13 15 23 29 7 36 62 48 52 68 39 50 241 317 456 589 869 1056 1082 1112 1156 1176 1078 1072 990 989 992 972 918 799 688 1408 1423 1551 1472 1351 1052 1090 995 930 849
43 27 18 20 23 52 46 76 44 51 52 31 43 31 54 76 85 194 260 435 816 977 1030 1034 1037 1123 1106 994 1021 1005 1112 1088 1029 1131 1134 1187 1267 1348 1039 1225 1068 896 781
179 82 47 43 31 67 55 45 29 45 34 29 27 17 34 37 26 57 87 154 344 572 694 883 1006 1014 979 895 813 820 1050 1101 817 781 776 870 944 929 887 824 734 647 944
185 111 100 154 66 28 15 21 14 28 10 9 15 21 13 2 1 18 18 64 139 267 471 478 630 701 756 783 853 799 772 910 941 1087 1019 922 960 985 957 864 767 734 795
9 0 4 117 170 67 68 86 114 25 19 14 45 35 45 10 3 16 26 34 51 107 189 345 437 579 590 658 807 888 932 983 974 977 991 971 954 982 1023 1009 917 784 732
0 0 0 0 8 47 94 170 129 44 17 21 12 27 42 62 65 40 36 37 49 46 76 128 199 251 304 399 369 321 321 311 285 334 459 569 697 778 789 818 1030 964 938
0 0 0 0 0 0 0 0 0 42 84 109 92 60 56 71 79 81 57 47 61 20 27 62 45 55 65 76 79 92 92 86 55 15 43 68 109 475 665 727 772 1108 978
0 0 0 0 0 0 0 0 0 0 0 0 2 36 14 0 0 0 0 3 2 35 28 32 26 20 13 38 59 74 64 40 28 25 0 3 119 275 553 458 408 621 651
0 0 0 0 0 0 0 0 0 0 0 0 0 0 0 0 0 0 0 0 0 0 0 0 0 0 0 1 0 0 0 24 33 32 16 44 119 203 343 500 674 528 386
0 0 0 0 0 0 0 0 0 0 0 0 0 0 0 0 0 0 0 0 0 0 0 0 0 0 0 0 0 0 0 0 0 0 0 38 110 87 4 129 596 526 412
0 0 0 0 0 0 0 0 0 0 0 0 0 0 0 0 0 0 0 0 0 0 0 0 0 0 0 0 0 0 0 0 1 6 7 12 23 100 13 7 97 494 941
0 0 0 0 0 0 0 0 0 0 0 0 0 0 0 0 0 0 0 0 0 0 0 0 0 0 0 0 0 0 23 21 17 37 43 29 33 39 44 209 561 608 327
0 0 0 0 0 0 0 0 0 0 0 0 0 0 0 0 0 0 0 0 0 0 0 0 0 0 0 0 0 0 0 27 14 9 13 4 45 54 46 47 63 192 180
0 0 0 0 0 0 0 0 0 0 0 0 0 0 0 0 0 0 0 0 0 0 0 0 0 0 0 0 0 0 0 0 0 0 0 1 10 61 41 18 19 66 204
0 0 0 0 0 0 0 0 0 0 0 0 0 0 0 0 0 0 0 0 0 0 0 0 0 0 0 0 0 0 0 0 0 0 0 2 15 46 8 12 54 73 166
0 0 0 0 0 0 0 0 0 0 0 0 0 0 0 0 0 0 0 0 0 0 0 0 0 0 0 0 0 0 0 0 0 0 0 3 6 9 3 21 3 11 41
0 0 0 0 0 0 0 0 0 0 0 0 0 0 0 0 0 0 0 0 0 0 0 0 0 0 0 0 0 0 0 0 0 0 0 0 0 54 74 4 1 9 3
0 0 0 0 0 0 0 0 0 0 0 0 0 0 0 0 0 0 0 0 0 0 0 0 0 0 0 0 0 0 0 0 0 0 0 0 0 0 0 11 12 3 8
3 0 0 0 0 0 0 0 0 0 0 0 0 0 0 0 0 0 0 0 0 0 0 0 0 0 0 0 0 0 0 0 0 0 0 0 0 0 0 6 2 6 2
8 3 0 0 0 0 0 0 0 0 0 0 0 0 0 0 0 0 0 0 0 0 0 0 0 0 0 0 0 0 0 0 0 0 0 0 0 0 0 3 8 8 5

GFSGL_con_mucape_093.txt.gz
CAPE
165 374 643 1067 1040 1072 1113 1159 1135 1077 920 1200 1377 1354 1703 1738 1748 1780 1700 1795 1736 1821 1644 1697 1742 2009 1488 1795 2326 2063 1988 1948 1653 1620 2040 2095 2702 2726 2122 2057 1747 2603 1749
524 234 232 758 805 1146 1338 1153 1267 1120 1041 1035 1026 1272 1293 1258 1709 1877 1755 1273 1690 1754 1796 1580 1521 1275 2015 2059 1836 2622 2165 2198 1647 1676 1607 1353 1961 2224 2317 2545 2027 1492 1946
84 67 49 137 1138 1447 1369 1377 1292 1391 1492 1415 1245 1315 1280 1249 1401 1614 1730 1633 1418 1641 1473 1758 1653 1765 1888 1292 1656 1366 1179 1557 1629 1696 1593 1679 1882 1873 2153 1945 2187 2120 1134
121 116 94 129 243 366 428 526 812 1276 1562 1549 1525 1396 1125 1066 884 771 954 1319 1490 1542 1623 1607 1770 1661 1848 2136 1895 2074 1694 1792 1666 2018 1769 1819 1886 2103 2375 2073 1843 1813 1956
119 110 74 72 189 242 283 229 224 375 652 1120 1509 1411 1288 988 717 721 665 682 994 1391 1354 1429 1713 1555 1137 1140 1401 2141 1949 1928 1530 1487 1453 1510 1542 1457 1723 1583 2147 2159 2184
173 103 78 67 70 34 103 133 123 134 181 257 624 795 828 589 499 603 604 950 1269 1464 1781 1931 1720 958 932 758 797 755 895 2070 1925 1286 1238 1551 2325 2176 1736 1744 1692 1748 1399
121 65 103 47 41 33 51 26 31 11 28 64 52 94 139 180 281 341 446 1031 1590 2062 2225 2377 2114 1384 1289 1717 1236 845 774 767 711 2084 1863 2399 2460 2764 2492 2592 2241 2094 1878
69 5 43 35 11 29 54 6 33 60 29 11 1 17 33 14 62 75 131 224 751 1214 1520 1681 2027 2047 1809 1711 1914 1925 1986 2229 1851 1186 1362 1907 2255 2292 2496 2315 2239 2071 1730
65 45 43 13 12 5 5 0 24 51 47 46 24 26 1 15 12 19 31 92 264 382 590 863 1030 1206 978 731 858 1727 1944 1976 1332 1004 823 765 713 719 804 1052 1552 1486 1268
162 94 113 93 80 58 62 10 1 3 5 6 0 0 17 10 3 6 18 17 0 0 94 292 418 338 368 455 570 783 1248 1757 1620 1810 1789 1358 1247 1353 1182 932 1423 1588 1444
208 154 89 67 47 171 44 12 2 14 57 8 4 0 0 3 17 8 11 21 0 0 0 21 65 154 252 255 209 221 277 343 389 382 350 1030 1367 1558 1594 1697 1655 1529 1507
50 30 11 0 14 103 160 49 33 66 141 59 32 0 0 0 1 7 19 4 0 5 0 8 5 13 33 103 131 129 125 87 80 89 86 92 71 69 81 126 1178 1596 1597
0 0 0 0 0 0 1 15 70 106 59 69 125 8 0 0 0 1 37 48 58 61 35 30 34 31 26 40 37 23 17 24 26 36 38 41 32 20 0 165 284 1381 1763
0 0 0 0 0 0 0 0 0 0 0 0 0 5 19 3 2 4 3 0 0 0 0 0 17 44 44 31 21 16 5 3 0 0 4 0 0 0 5 3 13 53 105
0 0 0 0 0 0 0 0 0 0 0 0 0 0 0 0 0 0 0 0 0 0 0 0 0 0 0 0 0 0 0 0 0 0 0 0 0 0 0 0 2 44 138
0 0 0 0 0 0 0 0 0 0 0 0 0 0 0 0 0 0 0 0 0 0 0 0 0 0 0 0 0 0 0 0 0 0 0 0 0 0 0 2 3 8 40
0 0 0 0 0 0 0 0 0 0 0 0 0 0 0 0 0 0 0 0 0 0 0 0 0 0 0 0 0 0 0 0 7 0 0 0 10 8 6 4 4 9 9
0 0 0 0 0 0 0 0 0 0 0 0 0 0 0 0 0 0 0 0 0 0 0 0 0 0 0 0 0 0 0 0 0 0 6 0 0 5 6 11 29 39 56
0 0 0 0 0 0 0 0 0 0 0 0 0 0 0 0 0 0 0 0 0 0 0 0 0 0 0 0 0 0 0 0 0 0 0 0 0 0 0 2 9 10 4
0 0 0 0 0 0 0 0 0 0 0 0 0 0 0 0 0 0 0 0 0 0 0 0 0 0 0 0 0 0 0 0 0 0 0 0 0 0 14 24 31 20 37
0 0 0 0 0 0 0 0 0 0 0 0 0 0 0 0 0 0 0 0 0 0 0 0 0 0 0 0 0 0 0 0 0 0 0 0 0 0 0 0 1 1 35
0 0 0 0 0 0 0 0 0 0 0 0 0 0 0 0 0 0 0 0 0 0 0 0 0 0 0 0 0 0 0 0 0 0 0 0 0 0 0 0 0 36 60
0 0 0 0 0 0 0 0 0 0 0 0 0 0 0 0 0 0 0 0 0 0 0 0 0 0 0 0 0 0 0 0 0 0 0 0 0 0 0 0 0 0 23
0 0 0 0 0 0 0 0 0 0 0 0 0 0 0 0 0 0 0 0 0 0 0 0 0 0 0 0 0 0 0 0 0 0 0 0 0 0 0 0 0 0 0
1 0 0 0 0 0 0 0 0 0 0 0 0 0 0 0 0 0 0 0 0 0 0 0 0 0 0 0 0 0 0 0 0 0 0 0 0 0 0 0 0 0 0
12 2 0 0 0 0 0 0 0 0 0 0 0 0 0 0 0 0 0 0 0 0 0 0 0 0 0 0 0 0 0 0 0 0 0 0 0 0 0 0 0 0 0

GFSGL_con_mucape_096.txt.gz
CAPE
1069 1198 1078 926 705 734 729 901 944 1372 1775 1961 1542 1137 1312 1134 1231 1755 1648 1556 1924 1724 1799 1745 1764 1690 1191 962 1220 1374 1212 1224 1373 1345 1769 1828 2665 2438 2312 2312 1725 1557 842
1188 1079 738 906 826 729 781 845 1190 1085 1793 1617 1561 1630 1614 1328 1545 1565 1497 1297 1666 1451 1199 1443 1566 976 1504 1581 1160 1763 1965 1677 1341 1813 2159 1413 2103 2088 2055 2577 1719 1026 957
454 591 507 463 620 818 987 938 1176 1422 1289 985 1125 1235 1396 1567 1399 1666 1990 1750 1418 1204 1240 1224 1447 1336 1594 1027 931 904 748 804 1228 1054 1081 912 1279 1836 1934 2850 1705 1812 1404
158 80 123 140 246 538 766 1111 1213 1455 1602 1109 1176 1223 1313 1815 1724 1700 1774 1853 1668 1326 1311 1178 1080 1211 1583 1766 1988 1825 1911 1843 1875 1098 837 619 734 1478 1555 1087 669 711 1134
312 119 167 204 253 370 769 875 991 1129 1246 1485 1724 1889 1908 1821 1442 1840 1592 1501 1500 1393 1373 1451 1362 1147 971 1206 1417 2086 2308 1647 909 517 621 523 621 939 1674 879 906 845 1301
325 246 141 288 173 153 264 439 521 578 650 1050 1254 1542 1527 1194 660 431 570 1659 1695 1700 1849 2067 1832 1175 958 772 705 685 798 2300 2062 1615 1100 1227 2639 1963 1696 1397 1312 978 1044
196 118 76 56 81 83 33 46 102 220 268 256 428 796 404 290 147 202 286 1174 2068 2063 2021 1962 1724 814 1214 1357 1030 852 750 749 745 2486 1904 1933 2903 2915 2429 2415 2589 2054 1799
192 96 111 143 64 21 5 17 39 51 147 154 190 178 34 33 29 70 98 435 1402 1755 1753 1761 1956 1787 1163 1041 1686 1522 1577 1863 2184 1562 1749 2179 2671 2640 3149 2664 2674 2846 2290
226 132 20 21 9 54 32 48 47 52 42 69 99 79 26 9 15 24 24 345 732 976 725 761 608 640 631 491 831 1808 1863 1821 1437 1089 1109 1049 1036 931 866 1215 1451 1361 1229
346 246 63 33 34 5 2 5 7 21 40 36 20 28 9 0 1 6 27 26 19 60 433 90 157 164 180 170 165 220 803 1200 685 700 838 824 1090 1473 1466 1391 1899 1761 1591
196 125 99 84 89 74 78 94 38 0 0 0 10 8 4 0 0 15 27 12 5 8 27 16 0 0 13 29 44 53 62 92 99 70 61 357 681 1089 1251 1612 3068 2889 1967
211 221 181 145 79 39 23 146 104 23 0 0 5 4 0 0 0 0 2 3 21 7 30 7 8 2 0 1 6 25 55 47 40 30 15 27 39 42 26 43 593 507 495
26 41 44 7 19 3 3 43 230 135 59 0 0 1 32 0 0 0 0 2 1 21 43 39 31 22 14 7 4 0 0 6 1 5 11 3 1 0 0 121 692 1788 2130
0 0 0 0 0 0 0 0 0 3 15 11 3 0 0 0 0 0 0 0 0 0 0 0 0 0 0 0 0 0 0 2 5 1 0 4 1 0 0 0 0 0 0
0 0 0 0 0 0 0 0 0 0 0 0 0 0 0 0 0 0 0 0 0 0 0 0 0 0 0 0 0 0 0 0 0 0 0 0 0 0 0 0 0 0 0
0 0 0 0 0 0 0 0 0 0 0 0 0 0 0 0 0 0 0 0 0 0 0 0 0 0 0 0 0 0 0 0 0 0 0 0 0 0 0 0 0 0 0
0 0 0 0 0 0 0 0 0 0 0 0 0 0 0 0 0 0 0 0 0 0 0 0 0 0 0 0 0 0 0 0 0 0 0 0 0 0 0 0 0 0 0
0 0 0 0 0 0 0 0 0 0 0 0 0 0 0 0 0 0 0 0 0 0 0 0 0 0 0 0 0 0 0 0 0 0 0 0 0 0 0 0 0 0 0
0 0 0 0 0 0 0 0 0 0 0 0 0 0 0 0 0 0 0 0 0 0 0 0 0 0 0 0 0 0 0 0 0 0 0 0 0 0 0 0 0 0 0
0 0 0 0 0 0 0 0 0 0 0 0 0 0 0 0 0 0 0 0 0 0 0 0 0 0 0 0 0 0 0 0 0 0 0 0 0 0 0 0 0 0 0
0 0 0 0 0 0 0 0 0 0 0 0 0 0 0 0 0 0 0 0 0 0 0 0 0 0 0 0 0 0 0 0 0 0 0 0 0 0 0 0 0 0 0
0 0 0 0 0 0 0 0 0 0 0 0 0 0 0 0 0 0 0 0 0 0 0 0 0 0 0 0 0 0 0 0 0 0 0 0 0 0 0 0 0 0 0
0 0 0 0 0 0 0 0 0 0 0 0 0 0 0 0 0 0 0 0 0 0 0 0 0 0 0 0 0 0 0 0 0 0 0 0 0 0 0 0 0 0 0
1 0 0 0 0 0 0 0 0 0 0 0 0 0 0 0 0 0 0 0 0 0 0 0 0 0 0 0 0 0 0 0 0 0 0 0 0 0 0 0 0 0 0
5 4 2 0 0 0 0 0 0 0 0 0 0 0 0 0 0 0 0 0 0 0 0 0 0 0 0 0 0 0 0 0 0 0 0 0 0 0 0 0 0 0 0
14 5 0 0 0 0 0 0 0 0 0 0 0 0 0 0 0 0 0 0 0 0 0 0 0 0 0 0 0 0 0 0 0 0 0 0 0 0 0 0 0 0 0

GFSGL_con_mucape_099.txt.gz
CAPE
1582 1540 1907 1391 1623 1426 965 836 1057 1145 1466 1219 1452 1348 1344 1455 1529 2215 2473 1836 2103 2066 2383 2096 1611 2518 1368 986 1526 1113 981 1003 1073 1174 1367 3133 2602 2350 2242 2760 2342 2905 1143
960 1253 1418 961 1163 1397 914 907 916 1273 1352 1373 1507 1602 1719 1499 2032 2196 1743 1478 1775 1637 1406 1341 1453 1091 2659 3020 985 2525 1404 1964 1173 2219 1718 991 2137 3091 3497 4129 2193 1339 1282
222 1176 898 1072 1158 1414 1544 1059 1013 1029 1427 1246 1506 1633 1504 2007 1958 1930 2099 1966 1571 1515 1279 1321 1249 1285 2100 1518 2309 1587 857 757 1357 993 1035 923 1053 937 1674 3165 3430 2424 1475
694 233 296 265 341 589 682 790 1098 1691 1345 1365 1383 1610 1491 1515 1790 1808 1828 1854 1626 1362 1367 1363 1247 1247 1776 2313 1344 3185 2240 1670 1509 1012 715 1031 889 1470 1111 1364 1016 827 829
655 672 573 209 244 335 365 843 988 1758 1285 1322 1352 1456 1548 1461 838 1033 1863 1760 1912 1766 1650 1562 1719 1254 820 1191 1296 2674 2906 2144 1378 1167 602 441 447 1757 1695 913 1466 1093 1611
1013 895 670 664 841 776 713 672 761 903 1076 1278 1375 1615 1477 695 609 505 685 2083 1618 1799 1745 2025 2375 1331 984 696 542 559 695 1994 2365 1716 1174 1329 2735 2068 1580 1655 1822 1202 1031
771 564 573 436 364 424 392 308 249 294 835 771 936 575 468 452 282 290 295 253 1641 2248 2427 2375 1838 970 1135 1646 1256 801 725 621 608 2144 2032 2400 3069 3309 3432 3282 2819 2392 1901
272 243 205 133 119 146 113 18 39 58 350 513 531 166 46 1 23 52 85 96 1015 1607 1511 1682 1933 1453 717 651 852 1736 1638 1873 1541 1536 2129 2263 2949 3271 3117 2925 3286 3055 2585
390 233 187 185 172 119 7 94 79 333 293 316 313 119 50 22 0 4 37 426 1069 1094 505 370 560 380 400 338 270 1257 2003 2376 1201 897 892 895 965 1008 1007 1185 1378 1020 1203
293 247 166 123 99 18 20 29 10 5 82 112 61 30 54 40 20 23 21 20 99 70 728 131 1 10 0 3 23 52 554 955 672 521 150 534 606 1105 854 998 2247 1961 2445
83 332 380 243 58 22 11 10 13 46 50 17 23 1 21 21 26 2 9 20 22 13 36 14 28 31 16 1 0 0 0 14 21 27 19 116 372 606 382 1457 2356 2608 1489
274 196 158 118 139 106 49 32 35 159 65 0 0 0 4 16 26 13 0 0 1 5 24 15 2 0 17 18 11 2 0 0 0 2 59 103 141 165 183 346 812 905 299
59 177 125 112 160 221 111 57 16 9 135 29 18 0 0 0 0 0 11 1 0 0 0 0 1 1 16 9 13 10 2 2 5 9 2 0 0 0 13 20 144 761 1555
0 8 11 4 30 1 3 0 6 0 0 134 119 78 11 1 5 0 0 0 0 0 0 0 0 0 0 0 0 0 0 0 0 0 0 0 0 0 0 0 0 0 0
0 0 0 0 0 0 0 0 0 0 0 0 0 0 0 0 0 0 0 0 0 0 0 0 0 0 0 0 0 0 0 0 0 0 0 0 0 0 0 0 0 0 0
0 0 0 0 0 0 0 0 0 0 0 0 0 0 0 0 0 0 0 0 0 0 0 0 0 0 0 0 0 0 0 0 0 0 0 0 0 0 0 0 0 0 0
0 0 0 0 0 0 0 0 0 0 0 0 0 0 0 0 0 0 0 0 0 0 0 0 0 0 0 0 0 0 0 0 0 0 0 0 0 0 0 0 0 0 0
0 0 0 0 0 0 0 0 0 0 0 0 0 0 0 0 0 0 0 0 0 0 0 0 0 0 0 0 0 0 0 0 0 0 0 0 0 0 0 0 0 0 0
0 0 0 0 0 0 0 0 0 0 0 0 0 0 0 0 0 0 0 0 0 0 0 0 0 0 0 0 0 0 0 0 0 0 0 0 0 0 0 0 0 0 0
0 0 0 0 0 0 0 0 0 0 0 0 0 0 0 0 0 0 0 0 0 0 0 0 0 0 0 0 0 0 0 0 0 0 0 0 0 0 0 0 0 0 0
0 0 0 0 0 0 0 0 0 0 0 0 0 0 0 0 0 0 0 0 0 0 0 0 0 0 0 0 0 0 0 0 0 0 0 0 0 0 0 0 0 0 0
0 0 0 0 0 0 0 0 0 0 0 0 0 0 0 0 0 0 0 0 0 0 0 0 0 0 0 0 0 0 0 0 0 0 0 0 0 0 0 0 0 0 0
0 0 0 0 0 0 0 0 0 0 0 0 0 0 0 0 0 0 0 0 0 0 0 0 0 0 0 0 0 0 0 0 0 0 0 0 0 0 0 0 0 0 0
7 0 0 0 0 0 0 0 0 0 0 0 0 0 0 0 0 0 0 0 0 0 0 0 0 0 0 0 0 0 0 0 0 0 0 0 0 0 0 0 0 0 0
26 19 6 0 0 0 0 0 0 2 0 0 0 0 0 0 0 0 0 0 0 0 0 0 0 0 0 0 0 0 0 0 0 0 0 0 0 0 0 0 0 0 0
35 27 5 1 12 0 0 0 1 5 5 0 0 0 0 0 0 0 0 0 0 0 0 0 0 0 0 0 0 0 0 0 0 0 0 0 0 0 0 0 0 0 0

GFSGL_con_mucape_102.txt.gz
CAPE
1489 1061 1951 1603 1861 2013 2154 2105 1760 691 294 467 819 1877 1761 2613 2534 2724 2699 2184 1405 1547 2109 1975 1798 2521 2221 1835 1538 1262 1538 1487 1565 1615 970 1103 900 1267 2729 2993 3180 2713 1961
1015 1341 1430 828 1094 1555 740 436 1471 1720 2078 2267 2652 1972 2208 1810 1920 2331 2318 2038 1949 2051 1988 2491 2265 976 2232 2881 2471 2335 2350 2260 2077 1769 1865 1973 2266 2859 3043 3903 3201 1779 1608
750 672 687 1440 1186 1511 1499 378 337 1418 2221 2184 2203 1828 1447 1977 1533 1938 2298 2109 1873 2255 2209 2121 2211 1922 1975 2094 2272 2121 1648 1500 1329 1413 1395 1064 993 1025 1066 1934 2724 2016 2362
224 318 522 565 624 467 584 820 1154 1222 1093 1142 1862 1652 1579 2240 1672 1627 2035 1925 2216 2128 1966 2371 2355 2267 1698 1909 1623 1872 1637 1917 1704 1702 1747 1612 1231 1314 1972 1218 1196 1913 1636
389 447 419 419 67 121 286 244 635 416 722 1035 1312 1581 738 650 737 591 514 1081 1432 2040 1979 1800 1928 1155 714 778 1499 1881 1744 1612 1395 1205 1101 1149 1506 1640 1676 1600 1909 1295 1201
925 677 717 790 664 560 315 275 172 170 445 600 472 898 817 552 287 326 269 906 1335 1340 2015 2498 2703 948 935 731 495 484 328 1503 1512 2102 1829 1462 1600 1878 1801 2052 1901 1811 1784
1392 1235 985 707 1026 626 512 429 371 202 161 203 520 413 257 188 142 143 175 317 1120 1390 1425 1721 1423 915 696 553 712 822 667 548 549 972 1454 1608 1899 1963 2475 2128 2106 2243 1913
655 687 492 577 359 239 212 119 71 154 110 171 250 193 112 65 55 52 52 62 455 1432 1611 1749 1525 700 323 201 234 976 1837 2129 1447 1069 758 1499 2179 2205 1768 1791 1769 1675 1665
468 366 286 207 124 34 49 198 131 127 22 204 238 96 99 52 38 8 3 116 1535 1098 193 152 269 181 105 76 55 69 421 1192 639 605 562 603 393 217 437 508 685 1194 904
543 395 461 257 135 151 147 29 11 135 368 5 76 74 55 36 41 37 22 14 51 38 140 110 17 0 0 0 0 0 0 14 41 45 53 12 13 240 413 362 683 1013 1045
471 501 473 340 288 150 106 56 9 0 170 39 2 27 11 3 26 47 19 3 12 19 7 2 3 6 4 5 1 0 5 5 0 0 0 1 154 471 386 734 1347 1199 883
342 521 322 219 472 363 269 36 41 26 29 18 30 3 0 0 0 9 8 4 2 0 0 0 0 3 3 14 5 0 1 25 7 5 1 3 9 19 79 87 79 221 462
49 371 225 271 108 163 99 113 56 29 49 130 114 43 5 0 8 21 19 18 14 0 0 0 0 0 0 0 0 0 0 0 0 0 0 0 0 0 0 0 0 0 0
130 107 99 26 55 51 174 60 96 115 65 6 1 16 101 78 10 0 0 0 0 0 0 0 0 0 0 0 0 0 0 0 0 0 0 0 0 0 0 0 0 0 0
43 40 11 0 0 0 0 0 0 0 0 0 0 0 0 1 0 0 0 0 0 0 0 0 0 0 0 0 0 0 0 0 0 0 0 0 0 0 0 0 0 0 0
0 0 0 0 0 0 0 0 0 0 0 0 0 0 0 0 0 0 0 0 0 0 0 0 0 0 0 0 0 0 0 0 0 0 0 0 0 0 0 0 0 0 0
0 0 0 0 0 0 0 0 0 0 0 0 0 0 0 0 0 0 0 0 0 0 0 0 0 0 0 0 0 0 0 0 0 0 0 0 0 0 0 0 0 0 0
0 0 0 0 0 0 0 0 0 0 0 0 0 0 0 0 0 0 0 0 0 0 0 0 0 0 0 0 0 0 0 0 0 0 0 0 0 0 0 0 0 0 0
3 0 0 0 0 0 0 0 0 0 0 0 0 0 0 0 0 0 0 0 0 0 0 0 0 0 0 0 0 0 0 0 0 0 0 0 0 0 0 0 0 0 0
0 0 0 0 0 0 0 0 0 0 0 0 0 0 0 0 0 0 0 0 0 0 0 0 0 0 0 0 0 0 0 0 0 0 0 0 0 0 0 0 0 0 0
0 0 0 0 0 0 0 0 0 0 0 0 0 0 0 0 0 0 0 0 0 0 0 0 0 0 0 0 0 0 0 0 0 0 0 0 0 0 0 0 0 0 0
6 0 0 0 0 0 0 0 0 0 0 0 0 0 0 0 0 0 0 0 0 0 0 0 0 0 0 0 0 0 0 0 0 0 0 0 0 0 0 0 0 0 0
13 12 0 0 0 0 0 0 0 0 0 0 0 0 0 0 0 0 0 0 0 0 0 0 0 0 0 0 0 0 0 0 0 0 0 0 0 0 0 0 0 0 0
47 36 34 9 0 0 0 0 0 0 0 0 0 0 0 0 0 0 0 0 0 0 0 0 0 0 0 0 0 0 0 0 0 0 0 0 0 0 0 0 0 0 0
115 32 8 41 0 0 1 0 0 0 0 0 0 1 0 0 0 0 0 0 0 0 0 0 0 0 0 0 0 0 0 0 0 0 0 0 0 0 0 0 0 0 0
157 68 25 40 8 20 9 12 20 9 21 7 0 2 12 5 0 0 0 0 0 0 0 0 0 0 0 0 0 0 0 0 0 0 0 0 0 0 0 0 0 0 0

GFSGL_con_mucape_105.txt.gz
CAPE
1368 1065 970 959 941 980 872 812 590 426 184 0 13 527 875 1068 1194 1020 981 945 722 892 1042 1121 872 922 1372 1520 1001 1310 938 1176 918 933 678 880 814 604 560 734 1404 1823 1603
1111 767 577 734 719 766 546 515 491 488 438 547 710 1259 965 1031 1014 1239 1304 1293 1178 798 755 1089 933 979 730 831 919 934 976 832 625 403 785 897 628 614 994 893 1565 2319 2009
852 670 355 339 128 643 383 237 207 647 863 1104 893 1057 962 841 841 980 1059 909 853 923 788 929 973 1062 1142 658 457 386 900 820 786 989 971 950 990 1088 880 945 1530 1456 901
549 274 199 306 325 478 511 353 334 338 322 565 749 990 702 619 775 797 842 754 836 974 1052 1018 1030 902 727 714 682 612 862 564 543 516 550 567 832 992 1146 1166 1489 1161 1064
175 159 151 119 35 35 39 34 62 72 123 359 639 673 603 363 232 397 384 391 762 721 795 895 718 747 665 583 542 671 722 397 317 260 346 410 411 628 907 1360 1534 1361 1441
367 335 396 246 106 111 151 58 27 23 3 161 120 236 230 231 175 127 136 293 748 825 687 475 734 697 746 582 728 679 426 362 285 506 587 741 713 808 1101 1412 1530 1376 1443
595 622 518 414 301 449 374 254 121 6 36 49 23 7 29 41 83 107 89 163 271 397 712 929 673 487 462 309 235 464 830 644 598 709 639 563 736 744 1187 1164 1185 1340 1164
968 771 525 404 562 206 100 41 10 43 33 42 21 1 4 4 58 58 46 81 209 698 632 647 534 392 277 122 73 132 430 629 480 426 502 390 409 534 217 231 568 811 894
844 779 453 346 242 160 111 86 33 26 36 61 66 68 49 32 42 57 52 202 511 257 117 148 104 43 16 4 10 10 6 88 136 159 190 118 20 0 14 99 147 276 389
647 596 494 363 245 145 87 32 13 4 25 54 24 8 4 0 0 0 0 13 31 64 130 126 57 25 5 0 0 0 0 0 0 0 0 0 25 35 88 94 201 218 225
631 539 459 343 255 145 120 65 32 18 0 0 4 0 0 0 0 5 1 18 19 20 17 30 19 7 0 0 0 1 0 0 0 0 0 5 14 16 19 26 13 25 49
193 429 393 448 384 270 202 203 47 9 1 0 0 0 7 8 0 0 1 23 40 18 0 0 0 0 0 0 0 0 0 0 0 0 1 15 8 1 3 17 27 40 36
131 247 347 253 112 65 101 67 84 92 87 57 22 5 30 3 2 0 0 1 7 18 12 0 0 0 0 0 0 0 0 0 0 0 0 0 0 0 0 0 0 0 0
48 42 38 20 47 69 68 21 24 47 117 15 14 8 13 52 45 5 3 6 8 3 0 0 0 0 0 0 0 0 0 0 0 0 0 0 0 0 0 0 0 0 0
19 33 21 15 19 14 7 12 0 1 2 6 3 0 0 1 0 0 4 4 1 0 0 0 0 0 0 0 0 0 0 0 0 0 0 0 0 0 0 0 0 0 0
5 1 0 0 0 0 0 0 0 0 0 0 0 0 0 0 0 0 0 0 0 0 0 0 0 0 0 0 0 0 0 0 0 0 0 0 0 0 0 0 0 0 0
0 0 0 0 0 0 0 0 0 0 0 0 0 0 0 0 0 0 0 0 0 0 0 0 0 0 0 0 0 0 0 0 0 0 0 0 0 0 0 0 0 0 0
0 0 0 0 0 0 0 0 0 0 0 0 0 0 0 0 0 0 0 0 0 0 0 0 0 0 0 0 0 0 0 0 0 0 0 0 0 0 0 0 0 0 0
2 3 6 1 0 0 0 0 0 0 0 0 0 0 0 0 0 0 0 0 0 0 0 0 0 0 0 0 0 0 0 0 0 0 0 0 0 0 0 0 0 0 0
0 0 0 0 0 0 0 0 0 0 0 0 0 0 0 0 0 0 0 0 0 0 0 0 0 0 0 0 0 0 0 0 0 0 0 0 0 0 0 0 0 0 0
0 0 0 0 0 0 0 0 0 0 0 0 0 0 0 0 0 0 0 0 0 0 0 0 0 0 0 0 0 0 0 0 0 0 0 0 0 0 0 0 0 0 0
65 2 0 0 0 0 0 0 0 0 0 0 0 0 0 0 0 0 0 0 0 0 0 0 0 0 0 0 0 0 0 0 0 0 0 0 0 0 0 0 0 0 0
36 44 0 4 9 6 2 0 0 0 0 0 0 0 0 0 0 0 0 0 0 0 0 0 0 0 0 0 0 0 0 0 0 0 0 0 0 0 0 0 0 0 0
131 69 68 12 0 7 4 4 0 0 0 0 0 0 0 0 0 0 0 0 0 0 0 0 0 0 0 0 0 0 0 0 0 0 0 0 0 0 0 0 0 0 0
152 140 93 42 20 16 4 1 0 0 0 0 0 0 0 0 0 0 0 0 0 0 0 0 0 0 0 0 0 0 0 0 0 0 0 0 0 0 0 0 0 0 0
116 162 117 119 66 15 3 0 0 0 0 0 0 0 0 0 0 0 0 0 0 0 0 0 0 0 0 0 0 0 0 0 0 0 0 0 0 0 0 0 0 0 0

GFSGL_con_mucape_108.txt.gz
CAPE
701 856 490 943 854 794 622 312 361 258 211 188 327 87 377 611 820 819 774 747 662 398 566 586 660 757 689 839 762 845 531 796 472 480 402 520 706 899 927 1006 956 1226 1917
965 913 888 774 715 760 672 573 530 295 264 108 25 333 702 849 872 768 743 1055 738 845 542 641 696 852 640 607 600 464 520 602 638 259 591 833 895 934 794 820 1367 1234 907
765 619 402 283 259 560 469 406 458 384 424 455 594 688 791 706 711 678 773 758 772 708 743 612 693 725 691 733 468 398 531 561 541 678 615 596 711 863 982 918 1120 1038 1024
505 481 375 224 164 335 361 226 220 377 319 539 616 798 684 449 482 542 567 382 463 475 586 776 782 808 719 546 599 603 548 621 286 143 100 96 375 553 688 907 1175 1089 984
382 300 315 288 248 213 219 199 128 88 133 135 415 524 699 543 184 49 92 166 288 242 475 493 477 438 480 449 349 423 543 533 384 86 159 247 292 403 598 830 1019 1149 924
238 186 142 131 102 108 99 71 21 41 42 135 156 259 318 242 91 72 42 84 331 523 460 320 244 309 352 318 296 492 538 400 279 267 325 356 394 452 584 840 927 811 722
331 280 312 211 196 207 253 221 147 69 74 62 36 38 33 3 0 0 22 71 137 346 460 611 414 299 236 235 175 357 524 412 411 459 381 382 326 388 304 204 139 307 388
305 354 433 418 437 332 239 158 68 98 125 48 6 4 14 20 7 0 31 31 157 306 356 260 201 204 135 98 92 93 307 328 311 259 257 164 61 11 1 0 24 80 263
634 641 511 495 414 303 209 137 30 106 99 29 12 1 6 6 2 5 138 220 246 175 179 225 120 66 30 2 4 9 15 24 18 16 12 10 1 0 3 82 91 90 104
889 755 671 585 576 316 194 132 67 91 111 85 42 24 29 0 0 0 0 1 37 77 77 78 61 45 15 0 0 0 0 0 0 0 0 0 0 17 51 71 76 59 25
857 845 674 490 503 493 233 143 125 113 108 64 22 10 0 0 0 0 0 0 0 0 14 25 9 0 0 0 0 0 0 0 16 29 18 10 12 16 47 37 26 9 12
473 432 714 432 508 304 282 140 97 100 41 7 13 12 3 1 8 9 0 2 2 9 19 29 15 0 0 0 0 0 1 2 0 0 0 0 0 0 0 2 0 0 0
316 220 274 431 515 476 309 114 156 127 122 68 39 19 15 19 19 22 19 9 12 14 27 8 16 12 0 0 0 0 0 0 0 0 0 0 0 0 0 0 0 0 0
71 107 163 206 160 116 159 146 58 50 52 23 42 37 32 30 28 58 29 15 12 1 0 3 2 0 0 0 0 0 0 0 0 0 0 0 0 0 0 0 0 0 0
28 25 54 70 30 9 9 0 0 0 0 0 6 6 9 17 9 0 21 36 32 10 4 6 11 7 0 0 0 0 0 0 0 0 0 0 0 0 0 0 0 0 0
3 3 3 5 7 1 0 0 0 0 0 0 0 0 0 0 0 0 0 0 0 0 0 0 0 0 0 0 0 0 0 0 0 0 0 0 0 0 0 0 0 0 0
0 0 0 0 0 0 0 0 0 0 0 0 0 0 0 0 0 0 0 0 0 0 0 0 0 0 0 0 0 0 0 0 0 0 0 0 0 0 0 0 0 0 0
0 0 0 0 0 0 0 0 0 0 0 0 0 0 0 0 0 0 0 0 0 0 0 0 0 0 0 0 0 0 0 0 0 0 0 0 0 0 0 0 0 0 0
0 0 0 0 0 0 0 0 0 0 0 0 0 0 0 0 0 0 0 0 0 0 0 0 0 0 0 0 0 0 0 0 0 0 0 0 0 0 0 0 0 0 0
0 0 0 0 0 0 0 0 0 0 0 0 0 0 0 0 0 0 0 0 0 0 0 0 0 0 0 0 0 0 0 0 0 0 0 0 0 0 0 0 0 0 0
50 36 24 0 0 0 0 0 0 0 0 0 0 0 0 0 0 0 0 0 0 0 0 0 0 0 0 0 0 0 0 0 0 0 0 0 0 0 0 0 0 0 0
35 54 59 45 1 0 0 0 0 0 0 0 0 0 0 0 0 0 0 0 0 0 0 0 0 0 0 0 0 0 0 0 0 0 0 0 0 0 0 0 0 0 0
78 67 65 75 32 14 6 0 1 0 0 0 0 0 0 0 0 0 0 0 0 0 0 0 0 0 0 0 0 0 0 0 0 0 0 0 0 0 0 0 0 0 0
105 115 94 67 72 65 24 6 12 9 4 1 0 0 0 0 0 0 0 0 0 0 0 0 0 0 0 0 0 0 0 0 0 0 0 0 0 0 0 0 0 0 0
89 115 90 86 70 45 42 29 12 5 12 2 0 0 0 0 0 0 0 0 0 0 0 0 0 0 0 0 0 0 0 0 0 0 0 0 0 0 0 0 0 0 0
61 74 93 100 71 69 87 73 19 2 0 8 0 0 0 0 0 0 0 0 0 0 0 0 0 0 0 0 0 0 0 0 0 0 0 0 0 0 0 0 0 0 0

GFSGL_con_mucape_111.txt.gz
CAPE
573 513 319 427 418 460 624 594 423 391 240 59 160 376 296 381 453 715 684 720 644 397 363 530 412 629 504 577 530 734 444 539 486 284 194 389 714 719 642 714 933 980 788
563 651 628 620 618 665 681 531 230 218 183 3 34 235 7 438 770 703 698 670 620 510 432 370 520 596 761 561 620 518 323 518 491 246 244 525 677 767 776 630 918 880 757
654 529 390 417 415 325 518 604 518 449 246 287 327 287 654 694 692 696 661 657 753 794 643 611 564 644 704 637 515 463 425 504 470 439 359 400 247 297 489 508 808 817 847
436 402 327 218 210 148 156 262 366 325 377 443 461 594 726 545 442 368 373 520 528 443 552 609 659 674 674 525 411 421 535 502 513 295 285 0 128 183 329 508 575 679 791
324 184 177 257 273 193 152 208 166 194 105 155 401 451 503 495 435 234 87 174 202 263 420 470 452 284 267 217 175 228 222 382 379 325 171 225 242 280 411 514 637 555 289
160 213 197 185 228 159 153 136 100 67 30 96 116 201 180 234 321 175 89 52 120 247 333 285 240 152 160 269 225 152 335 445 304 219 185 232 224 297 303 279 302 113 124
205 130 144 143 196 183 148 129 96 63 60 78 98 79 60 38 5 0 0 34 107 258 400 366 239 134 160 144 120 226 243 185 203 247 182 82 46 83 16 21 0 18 66
281 187 202 143 178 304 333 284 206 162 118 77 57 56 26 19 21 26 3 2 31 157 223 303 256 174 116 78 67 74 173 144 108 90 63 23 2 0 0 43 69 52 28
257 308 261 294 373 379 298 235 189 171 137 79 54 30 12 11 31 45 127 145 148 149 147 148 154 133 83 41 23 28 20 14 12 11 0 0 0 0 0 0 13 29 30
37 144 393 462 433 298 289 228 161 189 158 109 65 38 29 19 1 2 0 47 101 94 71 77 83 74 65 43 20 1 0 0 0 0 0 0 0 0 0 0 0 5 9
295 339 401 524 429 496 341 148 97 120 156 168 108 58 27 11 4 0 0 0 0 0 3 0 0 10 27 30 27 5 0 0 0 0 0 0 0 0 0 1 0 0 0
343 404 411 473 404 412 254 250 162 184 127 143 127 34 2 0 0 1 4 1 7 14 3 0 0 10 20 18 8 4 0 3 6 1 0 0 0 0 0 0 0 0 0
347 399 312 385 471 425 386 336 241 145 139 60 39 20 1 1 8 3 9 19 8 5 38 14 12 25 39 29 26 13 7 0 1 0 0 0 0 0 0 0 0 0 0
158 234 268 274 350 456 346 291 142 117 130 94 70 78 96 62 8 44 31 46 53 25 24 65 48 33 6 7 4 0 0 0 0 0 0 0 0 0 0 0 0 0 0
27 47 84 152 187 147 112 51 148 195 31 13 23 2 0 29 28 20 17 2 26 64 50 22 13 24 17 17 3 0 0 0 0 0 0 0 0 0 0 0 0 0 0
0 0 0 2 15 18 26 10 0 0 0 0 0 0 0 0 0 0 0 0 0 0 0 2 0 0 0 0 0 0 0 0 0 0 0 0 0 0 0 0 0 0 0
0 0 0 0 0 0 0 0 0 0 0 0 0 0 0 0 0 0 0 0 0 0 0 0 0 0 0 0 0 0 0 0 0 0 0 0 0 0 0 0 0 0 0
0 0 0 0 0 0 0 0 0 0 0 0 0 0 0 0 0 0 0 0 0 0 0 0 0 0 0 0 0 0 0 0 0 0 0 0 0 0 0 0 0 0 0
0 0 0 0 0 0 0 0 0 0 0 0 0 0 0 0 0 0 0 0 0 0 0 0 0 0 0 0 0 0 0 0 0 0 0 0 0 0 0 0 0 0 0
0 0 0 0 0 0 0 0 0 0 0 0 0 0 0 0 0 0 0 0 0 0 0 0 0 0 0 0 0 0 0 0 0 0 0 0 0 0 0 0 0 0 0
13 13 23 10 0 0 0 0 0 0 0 0 0 0 0 0 0 0 0 0 0 0 0 0 0 0 0 0 0 0 0 0 0 0 0 0 0 0 0 0 0 0 0
1 10 15 19 26 27 26 21 0 0 0 0 0 0 0 0 0 0 0 0 0 0 0 0 0 0 0 0 0 0 0 0 0 0 0 0 0 0 0 0 0 0 0
0 0 0 11 15 26 31 14 10 8 0 0 0 0 0 0 0 0 0 0 0 0 0 0 0 0 0 0 0 0 0 0 0 0 0 0 0 0 0 0 0 0 0
0 0 5 15 27 34 42 57 47 58 26 13 1 8 0 0 0 0 0 0 0 0 0 0 0 0 0 0 0 0 0 0 0 0 0 0 0 0 0 0 0 0 0
0 0 1 27 31 28 32 33 44 38 63 46 26 27 14 10 0 0 0 0 0 0 0 0 0 0 0 0 0 0 0 0 0 0 0 0 0 0 0 0 0 0 0
0 0 0 9 16 27 32 30 41 42 43 94 40 11 1 13 9 1 0 0 0 0 0 0 0 0 0 0 0 0 0 0 0 0 0 0 0 0 0 0 0 0 0

GFSGL_con_mucape_114.txt.gz
CAPE
165 169 219 337 205 398 335 413 413 325 232 170 144 139 309 296 370 432 578 651 550 429 342 371 592 379 398 480 569 504 364 328 430 433 253 222 437 683 895 784 1069 1293 1133
210 213 344 278 297 402 433 456 300 225 195 168 101 168 302 172 476 534 493 675 634 567 415 311 365 448 542 498 367 615 424 217 392 389 206 520 490 508 543 886 979 956 1186
241 354 464 339 533 503 563 399 289 229 233 200 102 12 96 495 573 596 542 479 732 706 754 577 638 518 626 560 556 387 325 322 359 317 388 213 185 250 659 646 899 1043 784
363 367 376 490 444 305 81 75 97 151 190 198 250 338 408 575 547 538 426 294 314 470 616 658 663 844 768 624 442 377 300 370 366 369 248 150 52 188 269 581 961 749 546
372 406 353 195 200 172 146 70 98 115 121 109 196 247 355 453 344 304 238 116 148 224 367 625 464 362 318 173 336 264 246 408 267 236 216 133 209 255 460 487 650 314 233
286 320 193 148 109 155 186 146 96 116 117 72 85 103 137 137 168 205 186 72 0 61 308 402 290 180 131 105 109 135 162 221 244 181 141 320 299 284 219 9 113 74 128
100 126 135 157 125 126 131 131 110 87 73 78 38 13 66 85 70 13 4 7 11 53 172 220 133 107 122 60 71 82 106 124 114 138 186 91 31 29 7 0 9 41 115
98 108 108 125 95 99 138 126 98 81 54 66 56 66 59 40 27 22 13 3 5 13 80 75 97 104 82 70 59 93 129 120 90 63 29 3 3 0 0 4 9 0 96
88 123 132 117 102 118 125 96 151 146 143 131 80 52 44 36 32 31 23 19 18 27 79 86 73 70 47 56 64 64 52 24 7 0 0 0 0 0 0 0 0 0 13
138 181 211 172 140 101 108 133 148 147 130 110 85 55 41 26 0 0 0 1 44 55 68 71 68 34 28 52 34 30 31 19 8 0 0 0 0 0 0 0 0 0 2
40 10 24 145 190 158 146 127 85 153 160 141 100 145 73 54 23 3 0 0 0 0 0 4 9 7 0 0 0 8 23 17 9 5 0 0 0 0 0 0 0 0 0
211 93 33 18 18 163 219 264 168 86 143 113 87 120 34 36 16 0 0 0 0 0 2 5 0 0 0 0 1 5 11 33 38 4 10 10 2 0 0 0 0 0 0
118 95 61 18 153 258 318 244 164 185 209 163 124 89 53 18 6 0 0 0 0 1 3 17 27 13 13 9 42 34 26 20 21 19 0 0 2 0 0 0 0 0 0
233 206 151 171 215 286 291 222 303 197 186 143 82 86 61 21 10 31 14 14 17 25 34 34 46 53 45 47 43 13 9 3 5 0 0 0 0 0 0 0 0 0 0
0 11 155 108 137 269 209 182 154 140 106 136 70 73 140 36 2 1 7 16 10 11 12 28 62 47 44 32 24 14 5 8 1 0 0 0 0 0 0 0 0 0 0
0 0 0 0 7 12 18 7 2 1 19 67 0 0 0 1 4 1 0 0 0 0 0 0 0 1 0 0 0 0 0 0 0 0 0 0 0 0 0 0 0 0 0
0 0 0 0 0 0 0 0 0 0 0 0 0 0 0 0 0 0 0 0 0 0 0 0 0 0 0 0 0 0 0 0 0 0 0 0 0 0 0 0 0 0 0
0 0 0 0 0 0 0 0 0 0 0 0 0 0 0 0 0 0 0 0 0 0 0 0 0 0 0 0 0 0 0 0 0 0 0 0 0 0 0 0 0 0 0
0 0 0 0 0 0 0 0 0 0 0 0 0 0 0 0 0 0 0 0 0 0 0 0 0 0 0 0 0 0 0 0 0 0 0 0 0 0 0 0 0 0 0
0 0 0 0 0 0 0 0 0 0 0 0 0 0 0 0 0 0 0 0 0 0 0 0 0 0 0 0 0 0 0 0 0 0 0 0 0 0 0 0 0 0 0
0 0 0 0 0 0 0 0 0 0 0 0 0 0 0 0 0 0 0 0 0 0 0 0 0 0 0 0 0 0 0 0 0 0 0 0 0 0 0 0 0 0 0
0 0 0 0 0 1 0 0 0 0 1 0 0 0 0 0 0 0 0 0 0 0 0 0 0 0 0 0 0 0 0 0 0 0 0 0 0 0 0 0 0 0 0
0 0 0 0 0 0 0 5 3 4 33 34 11 6 0 0 0 0 0 0 0 0 0 0 0 0 0 0 0 0 0 0 0 0 0 0 0 0 0 0 0 0 0
0 0 0 0 0 0 2 5 1 1 5 5 30 76 45 16 14 5 3 0 0 0 0 0 0 0 0 0 0 0 0 0 0 0 0 0 0 0 0 0 0 0 0
0 0 0 0 0 0 0 0 0 0 0 0 0 2 43 37 60 12 31 0 0 0 0 0 0 0 0 0 0 0 0 0 0 0 0 0 0 0 0 0 0 0 0
0 0 0 0 0 0 0 3 2 0 0 0 0 3 65 96 34 24 26 0 0 0 0 0 0 0 0 0 0 0 0 0 0 0 0 0 0 0 0 0 0 0 0

GFSGL_con_mucape_117.txt.gz
CAPE
773 905 968 928 978 1240 1283 1446 1496 1173 1067 938 1007 1025 1185 1255 1259 1515 1761 1751 1886 1616 1472 1330 1542 1830 1255 1164 1386 1386 1307 1279 902 568 1051 882 1544 1770 1825 1471 1052 1318 1047
752 1038 1037 1054 1110 1162 1354 1327 1137 1183 967 990 877 765 752 974 880 1258 1420 1255 1588 1631 1517 1472 1402 1051 1650 2145 1364 1458 1351 1358 1076 1212 1159 995 1466 1340 1288 1491 1157 834 1264
816 1000 1066 1010 1140 1270 1337 1237 1036 1049 891 647 416 336 861 727 705 1285 1803 1755 1457 1520 1429 1506 1430 1364 1799 1113 2312 2115 1462 1141 1494 1252 1215 1080 967 666 865 1206 1602 1490 430
886 989 1093 1202 1285 1341 1313 788 591 664 751 875 865 869 701 860 1525 1677 1310 1320 1336 1304 1329 1540 1705 1637 1679 1591 1586 1826 1365 1875 1909 1698 1473 1007 779 1017 1068 1215 945 908 532
965 1074 1254 1566 1197 1236 761 731 410 420 453 495 546 701 992 925 677 525 698 788 856 938 1097 1347 1354 370 291 230 507 1458 1430 1713 2000 1806 1959 1271 1750 789 1382 959 544 525 944
1057 1217 1294 974 595 781 595 615 483 306 191 459 275 48 52 49 73 114 114 125 184 320 859 1049 252 94 55 48 39 51 106 1139 1515 1613 1511 1198 1208 836 584 107 214 359 457
613 659 517 244 430 208 189 305 360 141 73 187 80 53 54 47 42 65 40 17 7 229 658 1262 123 58 36 37 23 22 30 46 57 891 1037 688 152 196 0 98 438 521 494
64 94 134 164 67 93 112 134 133 100 76 79 46 43 21 15 41 39 52 57 48 9 11 117 100 8 0 14 10 4 22 30 29 24 15 0 0 0 0 47 233 274 0
107 178 96 81 77 89 52 46 102 126 70 60 55 58 72 72 66 55 58 69 49 27 4 4 42 29 25 7 0 3 5 4 0 0 0 0 0 0 0 2 0 4 158
128 101 97 107 124 127 98 84 87 71 78 93 102 118 109 82 70 59 41 30 45 53 29 47 61 42 36 25 8 16 0 0 0 0 0 0 0 0 0 0 0 0 11
139 128 70 58 100 105 99 83 106 98 78 99 83 99 117 110 86 73 45 13 8 1 0 0 10 14 12 6 0 0 0 1 3 0 0 0 0 0 0 0 0 0 0
137 89 39 24 29 30 75 77 56 82 89 120 123 124 167 197 120 105 39 21 10 0 0 0 0 0 0 0 0 0 0 0 1 0 0 0 0 0 0 0 0 0 0
142 81 86 87 12 50 17 66 93 101 162 144 121 139 116 86 120 71 57 22 11 2 10 11 6 12 11 7 3 1 4 28 12 12 4 2 0 0 0 0 0 0 0
202 134 58 52 41 0 42 83 112 150 172 212 217 163 117 76 41 22 20 5 0 0 19 32 20 24 48 45 42 68 52 44 36 13 5 0 0 0 0 0 0 0 0
104 92 57 62 46 53 80 131 154 179 191 164 136 126 98 64 90 67 39 47 4 1 2 14 5 3 44 79 48 26 54 57 53 37 20 4 0 0 0 0 0 0 0
0 1 0 38 96 104 79 110 123 140 96 85 39 4 100 34 1 6 13 6 3 0 6 13 5 3 0 0 0 0 0 0 0 0 0 0 0 0 0 0 0 0 0
0 0 0 0 0 0 0 0 1 0 0 0 0 0 0 0 0 0 0 0 0 0 0 0 0 0 0 0 0 0 0 0 0 0 0 0 0 0 0 0 0 0 0
0 0 0 0 0 0 0 0 0 0 0 0 0 0 0 0 0 0 0 0 0 0 0 0 0 0 0 0 0 0 0 0 0 0 0 0 0 0 0 0 0 0 0
0 0 0 0 0 0 0 0 0 0 0 0 0 0 0 0 0 0 0 0 0 0 0 0 0 0 0 0 0 0 0 0 0 0 0 0 0 0 0 0 0 0 0
0 0 0 0 0 0 0 0 0 0 0 0 0 0 0 0 0 0 0 0 0 0 0 0 0 0 0 0 0 0 0 0 0 0 0 0 0 0 0 0 0 0 0
0 0 0 0 0 0 0 0 0 0 0 0 0 0 0 0 0 0 0 0 0 0 0 0 0 0 0 0 0 0 0 0 0 0 0 0 0 0 0 0 0 0 0
0 0 0 0 0 0 0 1 0 0 0 0 0 0 0 0 0 0 0 0 0 0 0 0 0 0 0 0 0 0 0 0 0 0 0 0 0 0 0 0 0 0 0
0 0 0 0 0 0 1 1 1 0 0 1 0 0 0 4 6 8 2 0 0 0 0 0 0 0 0 0 0 0 0 0 0 0 0 0 0 0 0 0 0 0 0
0 0 0 0 0 0 4 13 18 3 1 4 4 2 4 12 1 40 14 10 7 1 1 0 0 0 0 0 0 0 0 0 0 0 0 0 0 0 0 0 0 0 0
0 0 0 0 2 5 4 6 11 14 12 10 11 12 22 29 69 0 53 26 0 5 2 6 0 0 0 0 0 0 0 0 0 0 0 0 0 0 0 0 0 0 0
0 0 0 0 0 2 3 4 10 16 19 21 24 33 44 56 68 51 102 25 46 2 0 0 16 8 0 0 0 0 0 0 0 0 0 0 0 0 0 0 0 0 0